GFSCGP_sfc_30mbdewp_000.txt.gz
Dewpoint
40 33 28 27 28 26 27 24 20 21 28 26 24 24 24 22 22 24 21 25 25 25 29 31 34 36 36 34 35 41 44 49 51 53 56 58 58 59 59 59 58 58 57 56
36 29 26 26 29 29 26 23 22 25 27 27 24 25 22 21 20 21 25 28 31 30 31 33 35 39 40 41 41 39 40 45 49 53 55 57 58 58 59 59 59 59 58 58
29 26 26 32 31 28 26 25 26 27 27 29 27 25 21 22 25 26 29 31 32 33 34 36 38 40 43 44 43 43 42 42 47 50 54 55 56 57 57 57 58 59 59 59
26 29 30 30 29 28 24 28 28 28 26 24 26 21 21 24 27 28 31 33 33 33 35 37 39 40 42 44 45 44 41 41 42 47 51 53 53 54 56 56 57 58 59 59
26 28 29 28 28 28 30 30 27 26 25 24 23 22 20 25 27 28 30 33 34 34 34 37 39 40 43 44 42 41 42 42 43 42 43 46 52 54 55 56 55 55 56 58
27 28 28 28 29 29 29 26 26 25 24 22 20 20 19 22 26 30 32 33 34 34 34 37 39 41 42 43 42 41 39 39 40 43 47 48 47 47 49 51 52 53 53 54
24 23 21 24 24 24 26 25 24 24 23 21 19 19 20 21 28 30 32 33 35 35 34 37 39 40 41 41 41 41 41 40 40 40 40 40 42 47 51 53 53 54 54 54
27 23 23 23 24 25 23 26 27 25 23 20 20 20 22 21 25 28 32 34 35 35 34 37 39 40 40 41 42 41 41 41 41 41 40 40 40 40 41 42 43 47 50 52
28 27 26 26 24 22 27 28 26 26 25 23 23 24 23 21 23 24 30 34 35 35 34 36 39 39 40 41 41 40 40 41 41 40 41 41 41 40 40 40 41 42 42 43
33 28 28 26 24 22 20 21 22 24 20 19 21 20 20 20 21 24 30 32 34 35 35 37 38 39 40 40 40 40 40 40 41 41 41 41 41 42 41 41 41 41 41 40
36 34 32 29 28 26 24 22 21 20 20 19 18 19 23 23 23 22 30 34 34 34 36 37 38 39 39 39 39 39 39 39 40 41 41 42 42 43 43 43 43 43 43 42
39 36 32 32 31 32 27 25 23 22 21 21 19 19 26 26 29 31 33 35 34 36 37 38 38 38 38 39 39 38 39 39 41 42 43 43 43 43 43 43 44 44 44 44
38 34 32 32 32 33 32 30 27 28 27 26 20 19 27 27 30 32 33 35 34 36 37 37 36 37 36 37 41 41 41 42 43 44 44 44 44 44 44 44 44 44 44 43
38 34 31 26 26 29 31 31 32 30 26 25 24 24 25 27 29 30 28 35 34 35 35 35 35 34 35 35 40 42 43 43 43 43 42 42 43 42 41 41 41 41 41 41
37 30 29 29 29 26 26 27 27 28 28 26 22 23 24 24 26 27 34 35 34 35 35 33 34 34 35 41 43 42 42 39 36 37 38 39 40 38 38 38 38 38 38 39
35 29 27 24 22 19 19 20 20 23 25 26 26 25 27 27 34 34 34 34 36 35 33 33 33 35 41 42 41 39 38 36 35 35 35 36 36 36 36 36 36 37 37 37
31 26 23 19 21 23 22 23 24 24 24 23 22 24 27 28 32 34 35 36 36 35 32 33 39 42 40 39 38 35 33 31 32 32 32 31 29 29 30 32 31 32 31 30
30 29 26 23 25 21 24 27 27 27 26 26 26 27 29 33 36 36 34 36 37 34 37 39 39 38 38 36 34 29 27 26 26 26 26 25 26 26 26 26 26 26 27 28
25 27 24 25 26 26 27 28 28 27 27 28 28 29 30 35 33 33 35 35 37 38 38 38 37 35 33 30 26 26 25 24 22 21 19 21 22 21 22 22 22 21 22 25
33 27 27 28 26 25 27 29 30 29 26 34 32 32 36 34 30 32 34 38 38 38 38 35 32 30 28 25 23 21 19 16 14 12 13 15 16 17 17 17 17 16 19 19
31 29 27 26 27 29 30 31 31 26 28 36 36 35 37 35 33 34 35 37 36 35 33 31 29 26 22 19 16 13 9 6 8 9 10 11 12 12 12 13 14 14 13 17
31 31 30 30 28 26 32 32 29 31 34 35 37 35 31 30 34 36 36 35 34 33 30 25 24 21 15 10 7 6 6 8 9 10 9 10 10 10 9 10 12 12 11 12
28 29 30 32 32 34 33 32 33 33 34 34 34 33 32 32 34 35 34 34 33 29 23 18 15 12 7 6 6 6 6 8 9 9 9 10 11 10 10 11 11 11 11 10
32 32 31 31 30 31 32 33 33 33 33 34 35 35 35 34 35 35 36 35 32 25 17 14 13 9 7 7 6 6 8 9 10 10 11 11 11 12 12 13 12 11 11 12
34 34 33 33 34 34 34 34 34 34 33 33 33 33 33 34 35 36 35 33 24 17 12 11 9 8 7 8 8 8 10 11 11 11 11 12 13 13 13 13 13 13 14 17
36 34 33 32 32 33 34 35 35 34 34 33 32 32 35 36 36 35 31 22 15 11 11 9 9 9 8 9 9 10 12 12 12 12 13 13 14 14 15 14 14 16 19 22

GFSCGP_sfc_30mbdewp_003.txt.gz
Dewpoint
48 44 39 37 30 29 28 26 23 24 28 27 27 26 26 25 22 25 27 29 31 33 35 38 41 43 44 43 42 42 43 50 52 57 58 58 58 59 59 58 58 57 56 55
43 40 37 31 30 29 26 25 24 25 28 26 25 27 24 20 23 29 32 32 33 35 37 39 40 43 44 45 44 43 43 43 50 52 56 58 59 59 59 60 60 59 59 58
41 39 33 30 28 28 27 25 28 28 28 28 28 26 20 24 28 31 32 33 35 36 37 39 40 41 42 42 43 44 43 42 44 52 56 56 58 58 58 58 59 60 60 59
37 31 32 28 30 28 25 28 28 28 26 24 28 22 21 25 28 31 32 33 33 35 37 40 40 41 42 42 41 40 41 43 46 46 47 52 53 54 55 56 57 57 59 59
31 29 27 30 28 28 29 30 28 26 25 24 24 21 21 27 28 30 33 34 33 34 37 39 41 42 43 43 41 40 40 41 41 41 45 47 48 50 52 53 53 54 55 56
28 30 30 29 29 30 30 27 26 26 25 22 23 22 21 26 28 30 32 34 33 34 37 40 41 42 42 42 42 42 41 41 41 41 40 40 40 43 45 48 48 49 51 53
24 22 21 26 25 24 26 26 24 23 22 20 20 19 20 25 30 30 33 34 34 34 37 39 40 40 41 41 41 42 41 41 41 41 41 40 40 40 41 41 43 43 45 48
25 23 22 22 25 25 23 25 27 25 24 23 20 18 19 24 31 33 34 35 34 34 37 39 39 40 41 41 41 40 41 41 41 41 41 41 41 42 41 41 41 42 42 42
25 26 26 26 23 24 26 26 28 25 26 23 25 25 22 27 30 33 34 35 34 34 36 39 39 40 40 40 40 40 40 40 41 42 42 42 43 43 43 43 43 43 43 43
31 26 27 26 26 23 21 22 23 25 20 19 21 21 21 23 26 30 34 34 35 35 37 38 39 39 39 40 39 39 40 41 42 43 43 43 44 45 45 45 44 44 45 45
37 32 31 29 27 27 26 23 20 22 22 20 18 20 24 22 23 26 32 35 35 35 37 38 38 39 39 39 40 41 42 43 44 44 44 44 45 45 45 44 44 44 44 44
38 34 31 32 30 31 28 26 24 21 22 22 20 20 26 29 25 30 34 35 35 36 38 38 38 38 39 41 42 43 44 44 43 43 43 43 44 44 42 42 42 41 41 42
38 34 31 31 31 33 31 31 28 28 28 24 21 20 27 30 31 33 35 35 35 37 38 37 35 35 39 42 42 42 41 39 38 38 40 40 42 40 40 39 38 37 37 38
37 32 28 26 26 30 30 31 32 29 25 23 23 24 25 28 29 31 32 35 36 38 36 34 34 37 42 42 40 39 38 36 35 36 37 36 39 37 36 35 36 36 36 37
34 27 28 27 27 25 26 26 27 29 29 24 20 22 24 25 27 29 34 35 36 35 33 33 36 42 41 39 37 35 33 32 32 34 33 34 31 29 29 30 32 32 33 34
33 27 24 19 22 21 18 19 19 21 25 27 28 26 28 28 29 34 36 35 35 32 32 38 42 39 37 36 34 31 29 27 28 26 26 26 25 26 26 27 27 28 28 29
29 24 21 16 24 24 22 24 23 23 22 21 20 23 25 28 32 34 36 36 35 32 39 40 38 37 35 34 28 25 24 24 23 22 22 19 20 21 22 22 23 23 24 23
30 27 26 22 24 22 24 28 27 25 27 27 26 26 29 32 36 35 35 36 33 38 38 37 36 33 31 26 24 23 22 20 16 18 12 13 14 15 17 17 18 18 19 18
27 28 24 24 25 26 27 29 28 27 27 30 30 32 35 34 33 34 36 37 38 38 38 35 32 29 26 22 20 18 15 12 8 9 8 9 10 11 12 13 13 14 14 16
31 29 26 26 24 22 28 30 31 30 23 34 34 34 35 34 31 32 38 38 38 37 34 31 29 27 22 18 15 11 8 5 5 7 9 10 10 11 11 11 10 11 12 12
28 27 26 27 27 27 31 31 31 25 27 34 37 36 36 35 35 36 38 36 35 33 31 28 26 23 18 13 8 5 5 5 7 10 11 11 11 11 11 10 10 10 11 11
30 29 28 28 26 25 32 32 30 32 34 35 34 35 33 35 37 37 36 35 34 33 28 23 21 17 12 7 6 5 6 7 8 10 11 11 11 12 12 11 12 12 12 12
27 30 31 31 29 32 33 33 33 33 33 33 33 33 33 35 36 35 35 34 33 29 23 17 14 12 8 8 7 6 7 8 10 11 11 12 12 13 12 13 13 13 13 12
32 33 32 31 31 33 34 33 34 34 34 34 35 34 34 34 35 35 36 35 33 26 18 13 12 9 8 8 8 8 9 10 12 12 12 13 13 14 14 14 14 14 14 15
34 35 33 33 33 33 33 34 34 34 34 34 34 33 33 33 35 36 36 35 28 19 14 11 9 9 9 9 9 10 11 12 13 13 13 13 14 14 14 15 15 15 16 18
35 34 33 32 34 33 33 35 35 35 35 34 33 32 34 35 36 36 33 24 17 12 11 10 10 10 9 10 11 11 13 14 14 13 13 14 15 15 15 15 15 17 19 21

GFSCGP_sfc_30mbdewp_006.txt.gz
Dewpoint
51 46 42 42 36 33 30 27 25 25 26 26 27 27 27 27 25 25 29 31 34 36 38 40 42 43 44 45 43 42 43 45 53 58 58 58 58 58 58 57 56 56 55 54
47 43 44 42 40 31 30 27 24 26 28 27 25 25 26 22 26 29 31 33 35 37 38 39 40 41 42 42 44 43 43 44 50 55 57 58 58 59 59 59 59 58 58 57
43 44 44 39 35 32 29 27 26 27 28 28 27 26 22 25 30 32 33 34 36 37 38 39 40 42 42 40 40 41 43 46 47 53 56 57 58 58 57 58 58 59 60 60
42 40 41 38 32 28 27 28 28 27 26 23 27 21 21 26 29 31 32 33 35 37 39 41 41 41 41 41 41 41 41 41 41 46 47 49 50 50 53 54 56 55 56 58
40 36 37 32 31 30 27 30 28 26 25 24 24 24 22 25 27 30 32 33 34 37 39 40 41 41 42 42 42 41 41 41 41 40 41 41 41 46 48 47 45 46 49 51
33 33 33 30 30 30 31 27 27 27 25 22 23 23 21 24 26 30 33 33 34 37 40 40 41 41 41 41 42 42 41 41 41 41 41 41 41 41 41 41 42 43 45 47
34 28 25 29 26 26 27 26 24 23 23 20 22 22 22 24 28 29 33 33 33 37 39 40 39 40 40 40 40 41 41 41 41 42 42 43 43 43 42 42 42 43 43 43
30 25 22 23 26 25 25 26 24 22 22 22 21 19 20 25 29 32 34 34 34 36 38 39 39 40 40 40 40 40 41 41 42 43 43 44 44 44 44 44 44 44 43 44
25 25 26 25 23 26 24 25 28 26 26 24 24 25 23 31 32 33 34 34 34 35 37 39 39 40 39 40 39 40 42 43 44 44 44 44 45 44 44 43 44 43 43 42
29 24 27 25 25 23 26 26 24 25 22 19 21 21 22 28 31 34 34 34 34 34 37 39 39 39 39 40 41 43 43 43 43 43 43 43 44 43 42 42 41 41 41 41
32 28 29 27 26 26 24 22 21 24 23 20 19 20 24 24 31 33 34 35 35 34 37 38 39 39 40 42 43 43 42 40 39 40 41 40 42 41 41 39 39 38 38 37
38 32 28 29 30 30 28 26 23 20 20 22 20 20 25 27 28 31 33 35 36 36 37 38 38 41 42 42 42 40 38 36 36 38 38 37 40 37 35 33 33 34 33 33
37 34 30 30 31 33 30 28 26 27 27 24 21 21 27 31 25 30 33 35 35 37 38 36 38 41 42 41 40 37 35 34 34 35 34 35 33 30 28 29 29 29 29 30
36 31 30 28 28 31 30 32 29 26 23 22 24 23 25 28 30 33 34 35 35 38 35 35 40 42 40 38 36 33 31 30 31 30 30 31 27 26 26 26 25 25 26 26
31 27 27 27 27 27 29 29 31 29 27 22 22 23 24 26 26 28 29 32 36 36 34 36 41 40 38 35 32 29 27 26 26 25 27 23 23 22 22 22 21 21 22 21
31 26 24 20 21 22 19 21 21 25 28 29 28 23 26 27 28 32 35 35 36 34 34 41 40 37 35 33 29 26 24 23 22 22 18 16 15 15 16 16 17 17 17 17
27 23 19 14 24 23 18 23 23 20 21 19 18 20 26 28 33 35 36 35 35 33 39 39 37 35 33 28 26 24 22 20 14 17 11 10 11 11 12 12 13 14 13 15
27 26 25 20 23 16 24 28 27 24 26 26 25 28 31 34 34 34 35 36 33 37 39 37 34 32 29 25 23 20 16 11 7 9 8 10 10 10 11 11 11 11 11 11
29 27 25 23 23 25 27 28 28 27 29 31 32 33 34 34 33 33 37 36 37 38 37 34 31 29 25 20 17 12 7 5 5 7 9 10 11 11 11 11 11 11 10 11
29 28 25 26 23 21 26 30 31 29 24 34 35 34 35 35 32 33 37 38 38 36 33 31 29 25 20 14 8 5 5 5 5 7 9 10 11 11 11 11 11 11 12 12
25 25 25 27 25 26 29 31 31 25 22 35 35 34 35 34 36 36 38 36 35 33 31 28 25 20 14 7 6 5 6 5 7 9 10 12 12 12 12 12 12 12 13 13
26 26 25 27 25 22 32 32 30 31 35 33 32 33 33 35 37 37 37 35 34 32 27 23 20 14 8 7 7 6 6 8 9 10 11 12 13 13 12 13 13 14 14 14
28 31 30 28 27 32 33 32 33 34 33 33 33 33 33 36 36 37 36 35 34 29 21 16 14 12 9 8 8 7 8 10 10 11 12 13 13 13 13 14 14 14 14 14
31 32 31 31 32 33 33 33 34 34 34 34 34 34 33 33 35 36 35 34 31 25 17 14 11 8 8 9 9 9 10 11 12 12 13 13 13 14 15 15 15 14 15 16
32 34 33 33 34 33 34 34 34 34 34 34 35 34 33 33 34 35 36 35 29 19 16 11 9 9 9 10 10 11 11 12 13 14 14 13 14 15 15 15 15 15 16 19
35 33 32 31 34 33 33 34 35 35 34 35 34 33 34 34 34 36 35 28 20 14 12 9 10 10 9 11 11 11 12 14 14 14 13 14 15 15 15 15 14 17 20 21

GFSCGP_sfc_30mbdewp_009.txt.gz
Dewpoint
51 45 42 42 41 39 34 29 26 27 27 26 26 27 27 28 27 25 29 32 35 36 39 40 41 41 41 42 44 44 45 47 53 57 57 57 57 58 58 57 56 55 54 54
47 42 44 43 38 35 32 29 29 28 29 27 26 26 27 26 25 27 30 33 35 37 38 40 41 41 40 40 40 41 43 47 51 56 57 58 58 58 59 59 59 59 58 57
41 44 46 43 42 37 33 31 31 29 28 27 27 26 27 25 28 32 33 35 37 37 38 40 40 41 41 40 40 41 41 41 45 52 55 56 56 55 53 54 54 54 56 57
44 44 45 43 38 40 38 32 30 28 27 24 27 23 24 24 29 32 33 35 37 39 40 40 40 41 41 41 41 41 41 41 41 42 43 45 45 45 48 49 48 47 49 49
41 42 43 43 39 34 36 29 28 28 25 24 24 23 24 25 28 30 32 33 36 39 39 40 41 41 41 42 41 41 42 42 42 42 42 42 42 42 43 44 43 44 44 46
38 42 44 41 38 32 30 28 27 27 25 23 24 23 22 23 25 29 32 33 36 39 40 40 41 41 40 41 41 42 42 42 43 43 44 43 43 43 43 43 43 43 43 44
34 36 36 31 29 29 29 27 25 24 24 22 23 23 23 24 26 28 32 33 36 39 39 39 40 40 40 40 40 42 42 43 44 44 44 44 44 44 43 43 42 41 41 41
31 33 31 26 27 27 27 27 25 19 21 20 23 19 20 27 28 30 33 33 35 38 39 39 40 40 40 40 41 42 43 43 43 44 44 44 43 43 42 42 42 41 41 41
29 30 25 24 25 27 25 25 28 26 26 25 23 24 25 31 31 32 33 33 34 36 38 39 39 40 39 40 42 43 42 42 42 42 42 43 42 41 40 40 40 39 38 37
30 24 27 24 24 22 26 27 24 25 23 22 21 22 23 26 30 33 33 33 34 36 38 39 39 39 40 42 43 41 40 39 39 39 39 40 40 38 38 37 35 35 35 35
29 26 28 25 25 23 22 23 23 25 24 20 19 20 24 24 30 33 34 34 34 35 38 39 39 40 42 42 41 39 37 36 36 37 36 37 34 32 31 29 29 30 30 30
35 29 26 27 30 29 27 23 22 21 21 21 20 20 25 29 29 34 34 35 35 35 38 38 39 41 42 41 38 36 34 33 34 33 33 31 28 25 24 25 25 25 24 25
36 31 28 30 31 33 29 27 24 26 26 23 20 20 26 28 28 32 34 35 35 36 38 38 41 41 41 39 36 33 31 29 30 29 30 25 22 21 22 22 22 21 21 21
36 32 27 24 28 31 29 30 27 26 25 23 23 23 25 28 29 31 33 35 35 37 37 38 41 41 39 36 33 30 27 26 25 26 22 17 16 17 17 18 18 18 18 16
30 28 28 27 28 31 30 30 28 26 25 23 23 24 25 26 28 27 29 31 35 37 35 38 41 39 37 33 30 27 24 23 21 21 14 13 14 14 14 14 14 15 15 14
30 27 24 21 23 22 21 25 31 31 30 28 28 27 26 27 30 32 35 35 35 36 34 39 40 37 34 31 27 25 22 18 14 14 9 11 11 12 12 12 12 12 12 12
25 24 21 20 24 23 16 20 20 21 22 24 21 19 27 32 34 34 35 35 36 35 36 40 37 35 33 27 24 21 17 9 6 9 9 10 11 12 12 12 12 12 12 12
25 23 22 17 23 10 21 28 27 24 26 24 30 31 33 34 35 34 35 36 35 35 39 38 35 32 26 23 20 15 9 5 6 7 8 10 11 11 12 12 11 12 12 11
28 26 24 20 20 22 27 28 26 27 30 32 33 33 35 34 33 33 36 36 36 38 38 35 32 29 23 19 13 7 5 5 6 7 9 10 11 12 12 12 12 12 12 13
29 27 25 25 22 20 26 29 31 27 29 35 35 35 35 35 31 33 37 38 37 37 34 31 28 24 20 12 6 5 6 5 6 8 9 11 12 12 12 12 12 13 13 13
25 26 25 26 24 26 28 30 31 24 23 35 33 33 32 32 34 36 38 37 36 34 32 28 25 21 13 7 6 6 6 5 8 10 11 12 13 13 12 12 13 14 14 14
25 24 25 27 25 23 32 32 29 31 34 33 33 32 32 33 35 37 37 36 34 31 28 24 21 14 8 8 7 6 5 8 10 11 12 13 13 13 13 13 14 15 15 15
28 28 27 27 26 32 33 32 34 33 33 33 33 33 33 34 36 37 37 36 34 30 23 18 16 12 8 9 9 6 8 10 11 12 12 13 14 14 14 15 15 15 15 14
30 32 30 31 32 33 32 34 34 34 34 34 34 34 34 33 34 35 36 35 33 25 21 16 13 8 7 9 9 9 10 11 12 12 13 14 14 15 15 15 16 15 15 15
31 34 32 32 33 34 33 34 34 34 34 34 35 34 34 33 33 35 35 35 31 23 17 14 10 9 8 9 10 11 11 13 12 13 14 14 14 15 16 16 15 15 16 18
35 33 31 30 33 32 33 34 35 34 34 35 35 34 34 34 34 35 35 33 25 20 13 10 9 9 9 10 11 11 12 13 13 13 13 14 16 16 16 15 15 17 19 20

GFSCGP_sfc_30mbdewp_012.txt.gz
Dewpoint
48 45 41 42 42 39 36 32 32 29 28 27 26 26 27 28 28 27 27 33 36 37 40 41 40 40 40 41 41 43 47 51 55 56 56 57 57 57 58 58 58 57 56 55
47 41 43 43 41 40 33 31 30 31 29 27 27 27 28 28 27 26 27 33 36 37 39 40 40 40 40 40 40 41 42 45 51 56 57 57 58 58 56 54 53 54 55 56
42 43 44 43 38 38 35 35 35 34 31 28 27 25 26 26 27 30 32 35 37 37 38 39 40 40 41 41 41 41 41 41 42 46 49 50 50 48 47 47 46 47 47 45
44 47 44 42 41 39 38 37 34 32 29 25 27 23 25 25 27 30 33 36 37 39 40 40 40 40 41 41 41 42 42 42 42 43 43 43 43 43 44 45 44 43 44 44
42 45 44 42 41 41 40 36 35 32 27 25 25 23 24 24 26 30 33 35 37 39 39 40 40 41 41 42 42 42 43 43 44 44 44 43 43 43 43 43 41 41 42 43
40 44 46 45 43 39 36 31 27 27 25 24 24 23 22 23 24 29 32 34 37 39 40 40 41 40 40 41 42 43 43 44 44 44 44 44 42 41 40 40 40 40 41 41
38 41 41 40 39 32 33 29 26 24 24 23 24 23 23 24 25 27 31 33 37 39 40 40 39 40 40 41 42 43 43 43 44 43 43 42 42 41 40 39 39 37 37 37
34 33 36 31 38 37 33 28 25 19 21 21 24 21 19 27 31 29 32 33 37 39 39 39 40 40 40 42 42 42 42 41 42 42 41 40 39 38 37 36 36 35 35 36
31 33 31 33 30 39 28 29 28 26 26 25 25 23 26 30 31 31 32 33 36 38 39 39 39 39 41 42 42 41 39 39 39 39 39 36 34 32 31 31 32 30 31 29
31 27 29 24 26 24 27 28 26 26 23 22 23 22 23 23 27 32 32 33 35 37 38 39 39 40 42 42 40 38 38 37 36 36 35 32 29 28 27 26 24 25 26 26
28 26 27 24 24 26 24 25 25 26 25 21 19 19 24 24 26 31 33 33 35 37 38 39 39 41 42 40 37 35 35 34 32 33 30 25 21 21 22 21 22 22 22 22
31 27 26 24 30 27 24 24 24 23 22 22 21 22 25 28 30 32 34 34 35 36 38 39 40 42 40 37 34 32 31 30 29 30 24 19 18 18 16 17 19 19 18 18
33 29 27 29 30 33 27 25 23 25 24 21 20 21 27 27 32 34 34 35 35 35 38 39 41 41 39 36 32 29 27 25 26 23 16 13 13 13 13 14 15 16 16 15
35 31 26 27 28 29 28 27 25 25 23 23 23 23 25 28 30 32 33 35 35 36 38 39 41 40 37 33 29 26 24 22 22 15 11 11 12 11 12 13 14 14 15 14
30 29 29 27 30 30 29 28 27 25 25 24 25 25 25 27 28 29 29 32 35 36 37 40 41 38 34 30 27 24 21 15 16 10 9 10 12 12 12 13 13 13 14 13
30 27 25 22 24 25 27 30 28 27 27 25 26 25 28 29 30 34 35 35 34 37 36 40 40 37 33 28 25 22 17 8 9 9 9 11 11 12 13 13 13 12 12 12
26 24 23 23 23 22 19 21 30 29 29 29 26 27 27 33 33 33 34 34 35 36 35 39 38 35 30 26 23 19 10 6 7 8 8 10 11 12 13 13 12 12 12 13
25 23 21 18 22 17 19 28 24 24 24 23 26 30 32 34 34 34 35 35 35 36 38 39 36 32 26 23 18 12 6 6 6 6 8 10 12 12 13 12 12 12 13 13
27 25 22 17 17 20 27 27 27 25 29 32 33 34 34 34 33 33 36 37 36 36 38 36 33 28 23 18 10 5 5 5 6 8 9 10 12 12 13 12 12 13 13 13
28 28 22 25 18 11 24 29 29 31 27 34 34 35 35 34 30 32 36 37 37 37 35 31 28 23 17 9 6 5 5 5 6 9 10 11 12 13 12 12 13 13 14 14
26 26 21 25 23 25 28 31 30 25 26 36 35 34 34 32 32 35 38 37 36 33 31 27 24 20 12 7 6 6 6 6 9 10 12 12 12 13 13 13 14 14 14 15
22 23 25 27 25 22 31 31 28 31 33 32 32 33 32 33 35 37 37 36 33 31 28 24 20 14 8 8 7 6 5 9 10 11 12 12 12 13 13 14 15 15 15 15
26 26 25 27 27 32 33 32 34 34 32 33 33 33 33 34 35 36 36 36 34 30 25 20 17 12 8 9 9 6 8 10 11 11 11 12 13 13 14 15 15 15 15 15
31 32 31 29 31 32 33 34 34 34 34 34 34 34 34 33 34 34 36 36 33 27 22 17 14 9 7 9 9 9 10 11 12 11 12 12 13 15 16 16 16 16 15 15
31 32 31 31 33 34 33 34 34 34 34 35 35 34 33 33 34 34 34 34 31 25 19 15 10 8 8 9 9 10 11 12 12 12 13 13 14 15 16 16 16 16 16 18
34 32 31 29 33 33 33 34 34 34 34 34 35 34 34 34 34 34 34 34 27 22 15 11 9 8 8 10 10 11 12 13 13 13 13 13 16 16 16 16 16 17 18 19

GFSCGP_sfc_30mbdewp_015.txt.gz
Dewpoint
43 44 41 41 41 38 34 33 33 35 30 27 27 27 28 29 29 28 27 33 36 38 40 40 40 40 41 41 42 44 50 54 57 57 57 57 57 55 52 51 51 51 53 54
41 41 44 43 42 37 35 33 32 32 30 29 31 29 28 29 29 28 27 34 36 38 39 40 40 41 41 41 42 42 43 46 53 57 58 57 52 49 47 46 45 44 42 42
39 41 44 42 41 39 36 34 33 35 33 30 27 26 26 27 27 29 30 36 37 37 38 39 40 41 42 42 42 43 43 43 44 46 47 46 46 46 45 43 42 43 42 40
40 46 42 41 40 40 38 36 36 35 36 33 27 25 26 26 26 30 33 36 37 38 40 40 40 40 42 42 44 44 44 44 44 45 44 44 44 42 43 42 41 40 40 40
39 45 42 41 40 40 39 39 38 36 33 26 25 24 25 25 24 29 33 36 38 39 40 40 40 41 42 43 44 44 45 45 45 44 44 43 42 42 41 39 38 38 37 38
43 49 44 42 42 41 32 30 30 28 26 24 25 24 23 22 23 28 32 36 38 39 40 40 41 41 42 43 44 45 44 43 43 43 42 41 40 38 36 36 33 33 32 33
39 44 47 45 39 36 35 36 32 27 24 24 24 23 23 25 26 28 31 34 38 39 40 40 40 40 42 43 43 43 43 42 41 40 39 38 37 35 32 30 27 25 24 27
33 34 40 41 41 38 38 36 28 23 22 22 24 22 20 25 31 31 32 34 38 39 40 40 40 40 42 42 42 41 40 40 39 37 34 32 31 29 26 25 23 22 22 23
32 33 38 33 38 41 36 36 30 26 25 25 25 25 26 28 30 31 31 34 38 39 39 40 40 40 42 42 40 39 38 37 38 34 29 25 23 21 20 20 20 20 19 16
33 28 31 30 32 31 35 33 33 27 23 21 24 23 24 23 24 31 32 34 37 39 39 40 39 41 42 40 38 37 36 34 33 28 23 19 18 17 17 16 16 17 16 17
30 28 27 29 29 27 33 32 29 27 26 23 19 19 24 24 26 28 32 34 37 38 39 39 39 42 40 37 35 34 31 31 29 23 18 15 15 14 13 13 14 15 15 15
28 28 29 25 30 30 29 30 27 25 23 23 22 22 25 27 27 30 33 34 36 38 39 39 41 41 37 34 31 30 28 28 25 19 14 13 12 12 11 11 12 13 13 13
31 29 29 29 29 32 28 24 25 25 24 22 21 21 27 30 33 34 33 34 35 37 39 39 41 39 36 32 28 26 24 24 19 13 11 10 10 10 10 11 12 12 12 12
33 30 28 28 28 29 27 25 24 25 24 23 22 22 25 29 32 34 34 35 35 35 38 40 41 39 35 30 26 24 20 20 14 11 10 10 11 11 12 13 12 12 12 12
32 28 28 27 29 29 27 27 25 24 25 24 24 24 25 27 30 32 33 35 35 36 38 40 40 37 32 28 25 22 16 12 11 9 9 10 12 13 13 13 13 13 13 12
30 29 25 24 27 29 29 29 27 25 25 25 25 25 27 29 31 32 34 33 33 36 37 40 40 36 31 27 24 21 12 7 9 8 8 12 12 13 13 13 13 13 12 12
30 25 25 25 23 23 25 25 29 27 28 26 25 26 28 32 33 34 34 35 35 36 36 40 39 35 30 26 23 17 6 6 7 8 9 11 12 12 13 13 12 12 12 13
32 26 23 21 21 21 24 27 29 29 27 29 26 26 30 33 34 34 35 34 35 36 37 39 37 32 26 23 17 9 6 6 7 8 8 11 12 12 13 12 12 12 13 13
28 26 23 20 19 20 25 27 25 27 27 26 29 33 34 34 33 34 36 37 37 36 39 38 34 27 22 17 10 6 5 5 6 8 9 11 12 12 12 11 12 13 13 13
28 34 33 24 15 13 22 29 29 30 23 34 34 34 33 33 29 32 36 37 37 37 36 33 27 22 16 9 6 5 5 5 6 9 11 12 12 12 11 12 13 13 14 13
27 25 21 24 19 22 28 31 29 24 23 35 35 35 34 31 32 35 37 36 35 33 30 26 23 20 12 7 7 6 5 5 9 11 12 12 12 12 12 13 14 14 14 14
25 23 23 25 22 17 30 31 27 31 34 34 33 33 32 33 35 36 37 35 33 30 28 23 18 12 8 8 7 6 4 8 10 12 12 11 12 12 12 14 15 15 15 15
24 25 25 25 24 32 33 32 34 33 32 33 33 33 33 34 35 36 36 36 33 29 26 22 17 11 9 9 8 5 7 10 11 11 11 11 12 12 14 15 15 15 15 15
31 32 30 28 31 32 33 34 33 33 33 34 34 33 34 34 35 35 36 35 32 27 21 18 15 11 9 9 8 9 10 12 12 11 11 11 12 14 14 16 16 15 15 16
30 31 31 31 33 33 33 34 34 34 35 34 34 34 33 34 34 34 34 35 32 25 20 18 13 9 8 9 9 10 11 12 11 11 11 12 13 14 16 16 15 15 16 18
33 31 30 29 33 33 33 34 35 34 34 34 34 33 34 34 33 34 34 34 28 22 17 13 9 8 8 9 9 11 12 12 12 11 11 12 15 16 15 15 15 18 19 19

GFSCGP_sfc_30mbdewp_018.txt.gz
Dewpoint
41 39 38 42 40 37 34 31 33 34 34 32 32 33 31 32 32 29 29 30 34 36 39 40 41 41 42 44 46 51 54 55 55 56 56 55 51 49 46 45 42 41 41 40
36 36 41 44 41 35 34 33 32 33 32 31 33 33 34 33 30 29 29 31 34 37 37 39 39 40 40 41 42 44 49 55 56 57 55 49 46 44 44 43 41 40 38 38
34 37 42 42 37 36 36 33 32 32 33 35 32 31 30 28 28 28 28 32 35 36 36 37 39 41 42 42 42 43 44 47 46 46 45 45 45 44 42 41 40 39 37 35
33 39 40 41 37 36 35 35 34 36 37 33 32 27 29 27 28 29 29 34 35 36 37 38 39 41 43 44 45 45 44 44 45 45 44 43 42 40 40 38 38 36 35 32
34 40 42 40 38 38 33 38 36 37 37 34 32 29 27 27 25 27 31 34 35 37 37 39 40 42 43 45 45 44 43 43 42 42 41 39 39 38 37 35 33 32 31 29
33 44 44 40 39 38 39 37 34 30 29 30 30 27 25 22 23 27 31 35 36 37 38 40 42 42 44 45 45 43 41 41 41 40 38 38 36 33 32 30 26 25 22 23
32 36 45 42 40 39 37 35 33 31 30 26 25 25 25 25 26 28 31 35 36 38 39 40 41 41 42 44 44 42 40 38 37 36 34 33 31 29 25 23 20 18 16 17
30 32 43 42 40 37 36 35 29 24 24 25 25 24 22 25 28 29 30 35 37 38 39 39 40 42 43 43 41 40 38 37 34 31 28 26 25 22 19 17 15 13 12 12
30 32 42 43 41 39 38 35 31 26 26 23 24 25 27 28 29 30 29 35 37 38 39 39 41 42 42 41 40 38 38 36 32 27 23 20 17 15 14 12 11 12 12 10
30 32 39 40 42 39 39 38 33 28 23 21 22 24 22 24 25 30 30 34 37 38 39 39 40 42 41 39 38 36 35 31 27 23 19 16 12 10 9 9 10 10 9 9
34 32 31 35 39 37 36 37 36 30 26 22 19 20 25 24 26 27 30 33 37 38 39 39 40 42 39 37 36 33 32 29 24 19 15 13 10 8 7 7 8 8 8 8
36 28 29 35 31 36 37 36 36 30 26 25 22 21 24 27 28 29 31 34 37 38 39 39 41 40 37 35 33 30 29 26 21 16 12 10 9 8 7 7 8 8 7 7
32 28 28 29 31 29 33 36 36 32 26 24 23 22 26 31 33 33 33 34 37 38 39 39 41 39 36 33 30 28 27 23 17 12 10 8 8 8 7 7 8 8 8 8
34 30 25 25 26 29 31 32 32 32 28 26 24 24 25 29 32 33 34 34 36 38 39 39 40 39 36 32 28 25 24 20 13 10 9 9 9 9 9 9 9 9 9 9
36 29 29 28 30 28 29 30 29 30 30 27 27 26 26 26 30 33 34 34 34 36 38 39 40 39 35 31 27 23 19 15 10 8 9 10 10 10 10 10 10 10 10 10
35 31 28 25 28 29 27 28 30 32 32 30 27 26 27 28 31 31 34 35 34 35 37 39 40 39 34 30 26 23 16 11 9 7 7 9 9 10 11 10 10 10 10 10
34 32 28 27 25 27 26 28 28 27 27 27 26 27 28 29 30 31 33 33 34 35 37 39 40 38 33 29 26 22 13 8 7 6 7 8 9 10 10 10 9 9 10 10
34 30 27 26 23 27 27 27 29 29 28 27 27 28 29 30 34 35 35 35 35 36 37 40 40 36 31 27 23 14 10 7 6 6 6 8 9 9 8 8 8 9 9 9
38 30 31 24 23 24 22 26 26 29 28 29 29 29 33 34 34 35 36 37 36 37 38 40 38 33 27 23 17 12 8 6 5 6 6 8 8 8 7 7 8 9 9 10
33 41 35 28 22 21 22 29 28 29 22 30 30 32 33 33 30 32 37 37 38 38 38 36 31 26 24 17 12 10 6 4 4 6 8 8 9 8 7 8 9 10 10 10
29 34 33 33 31 21 27 30 31 22 25 33 33 34 34 32 33 36 37 36 36 35 33 29 26 24 19 13 9 7 5 4 7 9 9 9 8 8 8 9 10 10 10 10
31 30 31 32 27 20 31 30 27 32 36 36 36 35 34 35 36 36 36 35 33 31 28 26 24 19 14 10 8 6 4 7 9 10 9 9 8 8 9 10 10 9 9 9
29 31 25 26 25 33 33 33 35 36 35 34 34 34 34 35 35 36 36 35 33 30 27 25 23 17 11 9 7 4 6 9 9 9 8 8 8 8 10 10 9 9 8 8
29 32 29 28 31 32 33 34 34 34 34 34 34 34 34 35 36 36 36 36 33 30 27 24 20 16 12 10 8 7 9 10 10 8 7 8 8 10 10 10 9 9 8 10
31 32 30 31 33 33 33 34 34 34 35 34 34 34 35 35 35 35 35 36 34 30 25 23 22 18 11 8 8 9 10 10 9 8 8 8 9 10 9 8 8 11 13 17
32 31 30 29 32 32 33 34 35 35 35 35 34 34 35 35 35 35 35 35 32 28 24 21 18 11 8 8 8 9 10 11 10 9 8 9 11 10 8 8 9 13 16 18

GFSCGP_sfc_30mbdewp_021.txt.gz
Dewpoint
37 37 35 36 42 37 36 35 34 33 32 32 32 32 31 31 31 31 30 28 30 34 38 39 41 42 44 48 51 53 53 54 55 55 55 52 50 47 45 42 40 40 39 39
34 34 35 33 38 42 36 34 32 30 32 33 32 30 31 32 32 34 31 28 30 36 37 38 39 39 40 42 46 51 53 55 55 52 50 48 46 44 43 42 40 37 36 36
32 32 35 31 38 40 37 35 30 29 32 33 32 31 31 33 34 33 30 29 32 35 36 37 39 41 41 42 43 45 46 46 47 47 46 45 45 43 40 39 38 36 34 30
33 35 35 33 37 41 37 34 32 30 33 30 34 25 27 28 29 28 28 29 33 35 35 37 39 41 43 44 44 44 44 44 44 44 44 42 40 38 38 37 36 34 33 29
31 34 34 34 36 42 34 34 32 33 32 34 34 31 27 28 26 28 28 30 34 35 35 38 40 42 44 45 44 43 42 41 41 40 39 38 37 36 35 33 32 29 28 25
31 36 37 36 39 42 39 34 35 34 33 31 31 30 24 26 25 25 28 32 35 35 36 39 42 43 45 45 43 41 40 39 38 38 37 36 34 33 32 29 26 24 22 21
33 33 40 42 41 44 38 36 33 30 30 25 26 28 25 23 25 26 29 33 35 36 38 40 41 42 43 43 42 39 38 36 35 34 33 32 31 29 26 23 21 19 17 16
29 28 36 39 43 40 39 36 26 23 23 22 25 23 23 25 27 27 31 34 35 36 38 39 40 42 43 43 40 38 37 34 32 30 28 27 27 24 21 18 17 15 14 12
31 31 36 44 45 40 38 32 32 26 25 23 25 26 24 27 29 29 29 34 35 36 38 38 41 42 42 41 40 39 36 33 30 27 25 22 19 18 17 14 14 13 11 8
35 30 35 43 41 40 38 34 31 27 22 20 22 22 22 24 25 28 28 33 35 37 38 39 40 41 41 40 38 37 34 31 27 25 22 19 15 13 12 12 10 10 8 7
39 34 33 41 40 38 37 35 35 30 27 21 20 19 25 24 26 27 29 33 36 37 38 39 40 41 40 39 37 35 32 28 25 23 20 17 14 12 11 10 8 7 6 6
39 37 32 35 36 38 39 36 34 28 27 25 23 21 24 27 29 29 30 33 36 38 38 39 40 41 39 37 35 33 31 27 24 20 17 15 14 13 11 9 7 6 6 6
37 32 32 32 35 38 37 38 38 34 30 26 22 23 27 31 31 30 31 33 36 38 38 38 40 39 38 36 33 31 29 25 21 17 15 14 13 12 9 7 8 7 7 7
36 31 27 27 30 36 35 37 36 34 30 27 25 24 25 29 31 32 32 34 36 37 38 38 40 39 37 35 32 29 27 23 18 15 14 14 12 11 10 9 9 9 8 9
37 29 28 25 28 31 33 34 35 34 33 29 27 26 25 27 29 32 33 34 36 37 38 38 40 39 37 34 31 27 25 20 16 13 13 12 12 10 10 10 10 9 10 11
37 30 29 27 29 28 26 29 32 32 32 30 28 27 30 29 28 32 33 33 35 36 38 38 40 39 37 33 30 26 22 17 14 11 10 10 9 9 10 10 10 10 11 11
36 34 29 26 27 28 27 27 28 29 30 29 28 29 31 28 29 30 33 34 34 35 37 38 40 40 37 33 29 25 19 14 12 10 8 8 8 8 9 9 8 9 10 11
35 33 33 31 26 27 28 27 29 28 28 30 31 30 29 30 30 32 34 34 35 36 37 39 40 39 35 31 28 21 15 13 10 9 7 7 7 7 7 7 8 9 10 10
36 36 32 28 25 25 26 25 26 28 28 29 28 28 29 33 34 35 36 35 36 36 39 40 40 36 32 28 21 17 13 10 8 8 6 6 6 7 7 7 8 10 10 10
41 38 36 29 25 24 24 28 27 30 25 29 30 29 31 34 30 33 36 37 38 39 39 39 36 31 28 23 19 17 12 7 7 6 6 6 7 7 6 7 9 10 10 10
36 37 35 35 31 32 28 29 30 22 28 30 30 31 33 33 34 36 36 36 37 37 35 32 30 28 22 18 17 14 9 7 6 7 7 7 7 7 8 9 10 11 10 10
33 34 34 36 34 30 30 30 26 33 34 33 33 34 35 36 36 36 35 35 34 33 31 29 27 22 19 16 15 10 7 7 7 8 8 8 8 8 9 9 10 9 9 8
34 32 31 33 33 33 33 34 34 35 35 35 35 35 35 35 35 36 35 34 32 31 29 27 25 20 16 13 10 8 7 7 7 7 7 7 9 9 9 10 9 9 8 6
31 30 29 27 30 32 33 34 35 36 35 35 35 34 34 34 35 36 35 34 33 30 28 27 23 20 16 12 8 7 8 8 8 7 6 9 9 10 10 10 9 7 6 9
30 30 30 30 32 33 34 34 35 34 34 34 34 34 34 34 35 35 35 35 33 31 29 26 25 21 17 11 7 7 9 8 8 7 9 9 10 10 10 9 7 7 9 14
32 29 28 27 31 31 32 35 35 34 34 35 35 35 35 35 35 35 35 36 34 30 27 26 25 20 12 8 6 7 9 9 9 9 10 10 10 10 8 7 8 9 13 14

GFSCGP_sfc_30mbdewp_024.txt.gz
Dewpoint
35 33 33 35 36 36 35 35 35 35 37 36 36 33 34 35 35 34 32 32 31 36 39 40 43 45 50 53 54 55 55 56 56 56 55 50 47 44 43 41 39 37 37 38
31 32 32 33 35 35 36 37 37 37 36 36 34 33 34 33 33 32 32 32 31 37 38 40 41 42 46 51 53 54 55 53 51 51 49 47 45 44 42 40 38 34 32 31
30 31 34 31 32 32 32 36 37 37 34 34 32 31 32 32 31 32 33 34 34 37 37 38 40 42 43 46 47 48 48 48 48 47 45 44 45 43 41 40 37 34 29 26
29 30 30 34 31 32 30 35 38 39 35 32 33 28 30 31 31 32 33 33 35 36 37 39 41 43 44 44 45 45 46 46 47 46 46 44 40 38 38 36 36 33 28 24
31 31 30 30 33 33 32 36 39 39 37 36 35 32 32 31 29 31 31 29 35 36 37 40 42 44 45 45 44 43 42 41 41 41 40 39 38 36 35 33 30 27 26 23
32 35 36 30 32 34 35 36 39 41 36 32 32 33 29 28 28 28 29 30 35 35 38 41 44 45 45 45 43 41 39 39 39 38 37 36 34 33 30 26 25 23 23 22
31 33 34 37 33 32 34 35 30 30 31 30 31 30 30 25 26 28 29 33 35 36 39 42 44 45 44 43 41 39 38 36 35 34 32 31 29 26 22 21 20 18 17 17
26 20 34 36 35 34 36 34 32 26 27 24 27 28 27 27 27 29 31 35 36 37 40 41 43 44 44 42 39 37 35 32 30 28 27 26 24 22 19 17 17 15 14 13
29 28 36 34 37 38 35 31 37 28 23 24 25 26 24 29 29 29 32 35 36 37 40 41 43 44 43 41 39 36 33 30 28 25 22 19 17 16 15 14 14 13 12 9
31 28 36 38 40 42 39 39 33 30 22 22 25 25 23 26 28 28 33 35 36 38 39 40 42 43 42 40 39 35 32 28 26 23 20 16 14 13 13 12 10 10 8 9
34 31 34 36 36 35 39 38 35 31 28 24 22 22 26 25 28 28 31 35 36 37 39 40 42 42 40 39 37 33 29 26 24 22 18 16 14 13 12 10 9 8 8 8
35 33 31 33 39 41 40 36 34 27 28 27 23 22 26 27 28 30 29 35 37 38 39 40 41 40 39 38 35 31 28 26 23 19 17 16 15 13 11 9 9 9 8 9
38 35 30 32 37 42 39 37 34 34 31 27 23 23 30 30 29 30 31 36 37 38 39 40 41 39 38 36 34 32 27 24 20 18 16 15 14 12 10 10 10 10 10 10
41 37 33 32 35 37 36 36 36 35 31 28 26 24 29 31 31 31 32 36 37 38 39 39 41 39 38 35 32 30 25 21 17 16 15 14 13 12 11 11 12 11 11 11
37 36 36 36 37 36 36 36 37 36 34 30 28 23 27 31 32 32 33 36 37 38 38 39 40 38 37 34 31 28 23 19 16 15 15 13 12 11 11 12 12 12 12 12
34 34 32 28 36 36 34 35 36 36 35 34 33 29 27 29 32 32 33 35 37 37 39 39 40 38 36 33 29 26 20 16 15 13 12 11 10 10 11 11 11 11 11 12
35 35 31 26 28 28 27 29 34 35 35 35 32 32 31 29 31 32 33 35 36 37 39 39 40 38 35 32 26 23 18 15 12 11 9 8 9 9 9 10 10 10 11 12
34 35 36 32 27 25 27 27 28 28 30 33 32 30 31 30 33 34 35 34 35 37 38 40 40 38 34 30 26 19 15 13 12 10 8 8 8 8 8 8 9 10 11 11
35 36 34 30 26 27 27 25 27 28 28 29 30 31 33 34 34 35 36 37 37 38 40 41 39 34 30 26 18 16 12 11 10 9 7 6 7 7 8 8 9 10 11 11
39 39 35 32 26 25 26 27 27 29 27 30 31 30 33 33 30 34 37 38 40 40 39 36 33 29 26 19 17 13 11 9 8 7 7 7 7 8 8 8 9 11 12 11
37 37 34 33 31 32 28 28 29 25 28 31 31 33 35 33 35 36 38 38 38 37 34 31 29 27 21 19 17 12 8 8 7 8 8 8 8 8 8 10 11 11 10 10
35 34 34 35 33 28 30 29 27 33 34 33 35 36 36 36 36 36 36 36 34 32 31 29 22 19 18 17 14 10 7 7 8 8 8 9 8 9 10 10 11 11 10 9
34 36 35 37 36 33 34 34 34 36 34 36 36 37 36 36 35 35 34 33 32 30 28 24 20 18 15 14 11 8 8 8 8 8 7 8 9 10 11 11 11 10 9 8
35 34 30 32 31 32 33 34 36 37 36 36 36 36 36 35 35 35 33 32 30 29 27 23 19 16 14 10 8 8 9 8 8 7 7 9 10 12 11 11 11 9 7 9
32 31 31 30 32 33 34 34 36 35 35 35 35 36 36 36 36 35 34 32 30 29 28 24 21 17 14 10 8 9 9 9 9 9 10 11 12 11 11 11 9 9 10 13
31 30 31 30 31 31 33 35 35 35 35 35 35 35 36 36 35 36 35 34 31 29 27 26 23 17 11 8 8 9 9 10 10 11 11 12 12 12 12 9 9 12 13 15

GFSCGP_sfc_30mbdewp_027.txt.gz
Dewpoint
36 35 31 33 37 35 33 33 34 36 38 37 37 38 38 37 36 35 35 31 32 37 40 42 45 49 52 54 54 55 56 56 56 51 47 44 42 40 39 36 34 33 34 32
33 31 33 33 34 37 35 34 34 36 38 38 37 38 37 36 35 36 35 34 35 39 40 42 44 48 52 53 54 55 54 53 52 50 47 44 42 40 39 35 30 28 27 28
31 30 32 32 32 33 33 33 33 32 36 38 37 36 37 36 35 35 35 35 36 38 40 41 42 46 48 49 49 49 48 48 46 45 44 43 42 40 38 36 32 26 23 23
32 32 30 33 32 31 29 31 30 31 34 32 36 33 35 34 33 32 32 32 36 38 39 41 43 44 45 45 47 47 47 46 45 45 44 42 40 38 38 36 32 27 22 20
32 31 30 29 30 33 30 31 32 32 33 36 35 34 34 31 32 32 32 33 37 38 39 42 43 44 45 44 43 42 42 43 43 43 41 39 37 36 35 30 28 25 21 19
34 35 34 30 30 30 33 32 32 33 33 30 34 36 31 31 31 31 32 34 36 38 41 43 45 45 43 42 40 39 39 38 38 38 37 35 32 28 25 23 21 21 21 18
32 33 35 36 33 33 32 31 23 24 25 25 32 34 35 30 27 30 30 35 36 39 43 44 44 43 42 40 39 37 36 34 33 32 30 27 24 22 20 19 17 16 15 14
26 23 32 34 31 29 31 30 23 18 18 22 35 32 30 35 29 30 34 35 38 41 43 44 44 43 41 40 38 35 33 30 28 27 25 23 21 19 17 16 15 14 12 12
27 27 34 33 32 30 29 29 29 30 31 29 31 29 26 28 30 33 35 36 39 41 43 44 44 43 41 38 35 33 30 28 25 22 19 18 17 15 14 13 13 12 10 9
31 26 29 32 37 34 32 32 27 30 23 26 26 22 23 26 28 33 34 35 39 41 42 43 44 43 41 38 35 31 28 26 22 18 15 14 13 13 12 11 9 8 8 8
35 31 30 34 34 32 34 33 32 32 27 28 24 24 26 27 28 33 35 36 39 40 41 43 43 42 40 37 33 30 27 24 21 17 15 14 13 12 11 9 9 8 8 9
36 33 27 30 38 38 37 34 34 26 31 31 23 22 27 28 28 32 35 36 39 40 41 42 42 40 39 36 31 27 26 23 19 17 16 15 13 11 9 9 9 10 9 10
36 30 28 31 35 39 36 36 35 36 36 29 22 22 31 29 29 31 35 36 38 39 41 42 40 39 38 34 30 27 25 20 18 17 15 14 12 11 10 10 11 11 11 11
38 34 31 30 34 36 33 37 40 37 32 30 25 27 28 29 29 31 35 37 38 39 40 41 39 38 37 34 31 26 22 19 17 16 15 13 12 11 11 12 12 12 12 12
40 32 36 37 36 36 36 37 37 36 36 28 26 26 29 30 30 32 36 37 38 39 40 40 39 38 36 33 29 24 19 17 16 16 15 13 12 11 12 12 12 12 12 12
37 33 37 36 36 36 34 35 36 37 36 35 34 32 29 32 32 32 36 37 38 38 39 40 39 38 35 31 26 21 18 16 16 14 13 12 10 11 11 11 10 10 11 12
33 35 36 30 35 34 32 34 35 36 36 35 32 30 30 31 32 32 35 37 38 38 39 40 39 37 33 29 24 19 16 15 13 11 10 10 9 9 9 9 9 9 10 12
34 35 36 31 27 23 27 29 36 36 36 36 35 33 30 33 35 35 35 37 38 39 39 40 38 35 31 26 21 17 15 13 12 10 9 9 8 8 8 8 9 9 10 11
35 35 34 28 27 28 27 25 27 30 30 33 35 34 33 34 34 35 38 37 38 39 40 40 37 32 27 21 17 15 13 12 11 9 7 7 7 7 8 8 8 10 11 11
37 38 35 31 26 24 26 27 27 29 27 31 31 32 33 33 29 34 39 39 39 38 36 33 29 23 19 17 14 12 11 10 9 7 7 7 8 8 8 8 10 11 11 11
36 37 34 32 31 30 31 28 30 25 26 33 33 34 34 30 33 37 38 36 34 32 30 28 24 20 18 15 13 12 9 8 8 8 8 8 9 8 9 10 11 11 11 11
34 34 34 33 31 27 31 27 24 31 34 36 36 36 36 37 37 37 35 34 33 31 28 24 21 19 18 14 12 9 7 8 9 9 8 9 8 10 11 11 11 11 10 9
34 35 35 35 32 35 34 33 35 36 35 36 36 36 36 36 36 35 33 32 30 27 22 20 18 17 15 13 11 8 7 8 8 8 7 8 10 11 12 11 11 11 9 8
36 37 34 36 34 33 33 34 36 36 36 37 37 36 36 35 34 33 32 30 28 25 22 18 16 14 11 10 9 9 9 9 8 7 8 10 11 14 12 12 11 9 10 11
35 35 34 31 32 33 33 34 36 36 36 36 36 36 35 34 33 32 31 29 28 26 21 18 16 13 9 8 9 9 9 9 8 9 11 11 13 13 12 12 10 12 13 15
31 32 33 33 32 30 32 35 36 35 35 36 36 36 36 35 34 33 31 30 29 26 23 20 17 15 10 8 9 9 10 10 10 10 11 12 15 13 12 11 12 14 15 16

GFSCGP_sfc_30mbdewp_030.txt.gz
Dewpoint
37 35 31 32 36 35 33 32 31 34 36 37 37 37 36 39 40 38 37 36 35 34 39 41 45 49 52 53 53 54 55 52 49 47 44 42 39 37 34 33 31 31 29 29
34 31 33 33 33 35 36 34 32 32 33 34 37 37 38 38 37 39 38 36 35 36 39 43 48 51 53 54 55 56 55 52 50 46 43 41 39 36 33 29 26 25 25 24
32 29 32 33 32 32 32 33 32 31 33 32 29 31 35 37 39 38 37 37 36 37 39 43 48 51 52 52 53 52 51 49 46 43 41 39 37 36 32 28 25 22 22 22
33 33 31 31 31 32 29 33 33 31 29 27 34 27 33 35 36 37 37 36 36 38 41 43 48 49 50 49 49 48 47 45 44 43 40 38 36 34 35 31 26 21 20 20
31 33 32 29 29 32 30 30 29 30 27 28 28 28 31 36 35 36 37 35 35 38 40 43 46 47 47 46 46 46 45 45 44 43 40 39 37 36 33 28 23 20 18 18
35 36 35 31 30 31 34 32 31 31 30 26 26 27 26 33 34 34 35 34 35 39 40 43 45 44 43 43 43 43 43 42 41 40 38 36 33 29 26 24 22 20 18 16
33 33 36 36 32 32 29 30 23 22 22 19 23 26 25 33 35 34 33 33 36 39 42 44 43 42 40 40 39 39 39 38 36 35 32 29 26 23 20 19 18 15 13 13
24 21 33 35 32 29 30 29 24 16 18 15 29 28 29 34 32 33 33 34 38 41 43 43 43 41 39 38 36 35 34 32 30 28 24 22 21 20 18 16 14 13 12 11
24 24 33 32 33 31 29 28 27 26 25 26 26 31 31 33 32 33 33 37 39 42 43 43 42 40 39 36 34 32 30 27 25 22 20 18 17 16 14 13 12 11 10 9
29 24 31 32 34 33 28 29 25 27 18 19 27 26 17 26 30 34 35 37 40 43 43 43 41 40 38 35 32 29 27 24 21 18 16 15 14 12 11 10 8 8 8 9
30 31 28 33 30 29 30 28 28 24 25 23 25 27 28 26 30 33 35 38 41 43 43 43 42 40 37 33 30 27 24 20 17 15 14 13 12 11 10 9 8 8 9 9
35 32 26 27 33 33 31 29 28 23 19 24 28 24 29 27 33 34 35 39 41 42 43 43 41 39 35 31 28 26 22 18 16 15 14 13 11 10 9 9 10 10 10 10
36 30 25 29 31 36 30 31 29 27 28 22 24 24 30 29 33 35 36 39 40 42 43 42 40 38 34 31 27 25 21 18 17 16 14 13 11 11 10 11 11 11 11 11
38 32 29 27 32 35 32 32 32 28 27 23 30 32 29 28 31 35 36 39 40 41 42 41 39 37 34 30 27 24 20 18 17 15 14 13 12 11 11 12 12 12 12 12
37 31 32 32 33 35 34 35 35 31 30 26 25 31 30 29 30 35 37 39 39 41 41 40 39 37 33 29 26 21 19 17 16 15 14 13 12 12 12 12 11 11 12 12
39 31 32 32 38 36 36 36 36 35 35 33 36 29 30 32 32 35 37 38 39 40 41 40 38 36 33 29 24 19 18 17 16 16 14 13 11 11 11 10 10 10 10 11
36 34 32 31 35 36 33 34 38 36 39 38 34 31 31 31 31 35 37 38 38 40 40 39 38 36 33 27 22 18 17 16 15 14 12 10 10 9 9 9 9 9 10 11
33 32 36 33 29 23 27 28 36 36 36 36 35 30 31 31 34 35 37 38 38 39 40 39 38 35 30 24 20 17 15 14 13 11 10 10 9 8 8 8 8 9 10 11
39 34 35 31 28 28 26 25 30 34 32 36 36 34 33 35 35 35 38 38 39 39 41 39 37 31 25 20 17 15 14 13 11 10 9 8 7 7 8 8 9 10 11 11
38 37 36 32 27 24 26 28 28 29 26 31 32 34 33 34 31 33 38 39 39 39 37 34 29 25 20 17 15 14 13 11 10 8 8 8 8 8 8 9 10 11 11 11
35 34 33 32 31 29 32 29 30 24 24 32 33 34 34 32 33 37 35 33 33 31 29 25 23 21 16 14 13 12 11 10 9 9 8 9 9 8 9 11 11 11 11 11
34 33 32 34 31 24 32 27 23 28 35 36 36 36 35 37 36 34 32 31 29 26 23 22 19 16 14 14 13 11 9 8 9 9 9 8 9 10 11 11 11 11 10 10
33 34 33 33 31 34 34 32 35 36 35 36 36 37 37 36 34 33 31 28 25 23 22 20 18 15 13 13 11 9 8 9 8 8 7 9 11 13 12 12 11 10 11 11
36 38 36 35 35 36 33 35 36 36 36 36 37 37 36 35 33 32 29 26 23 21 19 18 15 13 12 10 9 8 9 9 7 7 9 11 12 15 13 12 11 12 13 14
36 36 34 34 33 33 33 34 36 36 37 36 36 35 34 33 32 31 28 26 23 20 18 16 14 11 10 9 9 9 9 8 8 9 11 11 14 14 13 12 12 15 16 17
32 35 35 34 33 32 32 35 36 36 36 36 35 34 34 32 31 30 28 26 22 20 18 16 12 9 9 9 9 10 10 9 9 10 11 13 15 13 12 13 13 16 16 17

GFSCGP_sfc_30mbdewp_033.txt.gz
Dewpoint
36 34 30 30 34 35 34 32 31 33 34 33 34 35 37 39 38 38 39 40 39 37 37 38 41 45 48 50 50 49 53 50 49 47 44 42 39 36 33 31 30 28 28 27
34 31 33 33 33 34 35 33 31 33 33 32 31 31 33 31 32 38 38 39 39 38 37 39 43 49 51 52 53 54 51 49 48 46 42 39 36 32 29 27 25 24 23 23
31 29 31 32 32 31 31 31 29 30 32 32 31 26 23 27 33 37 39 39 38 38 37 39 44 50 52 53 54 54 50 48 45 41 38 35 32 29 26 23 22 21 21 21
33 33 32 31 30 32 28 32 31 31 31 26 30 20 25 26 30 35 37 39 38 37 37 40 46 50 52 53 53 51 48 45 42 40 37 36 33 30 30 24 21 19 19 18
31 33 33 31 30 32 29 31 31 32 31 29 26 24 23 26 26 32 37 38 38 37 38 41 46 50 51 50 50 48 45 44 42 40 38 37 35 32 27 21 18 17 17 17
32 36 35 32 32 31 33 32 32 34 29 23 24 26 19 19 27 32 36 37 38 37 39 42 48 48 47 46 47 46 45 43 41 40 38 36 32 28 24 22 19 16 16 15
32 33 36 36 32 32 29 31 23 22 23 19 22 23 22 22 29 34 35 35 36 37 41 44 46 46 44 44 44 44 43 41 39 37 35 32 29 26 23 20 18 15 13 12
24 21 31 35 33 30 29 29 23 16 17 19 22 20 21 26 26 24 26 34 35 38 42 44 46 44 43 42 42 41 39 36 34 31 28 25 23 22 20 18 15 13 11 11
24 23 32 34 33 32 31 28 28 24 27 24 23 23 20 24 27 31 34 32 34 39 42 44 43 42 40 39 38 37 34 31 28 25 22 20 19 17 15 13 12 11 11 10
27 23 29 32 34 32 29 30 25 27 16 16 19 23 17 18 18 15 26 33 37 41 43 42 41 39 37 35 33 31 29 26 22 19 18 16 14 13 11 9 8 8 9 9
29 29 28 33 31 29 30 29 28 23 23 17 17 17 30 25 19 18 30 36 40 42 42 41 39 37 34 32 29 26 24 20 18 16 15 13 11 10 9 8 8 9 9 10
31 31 26 25 33 33 31 29 29 21 19 20 26 21 29 30 29 32 36 39 42 43 41 40 38 35 33 30 27 23 19 17 16 15 13 12 10 10 9 9 10 10 10 11
35 30 24 26 31 34 31 32 32 28 23 19 16 14 30 25 33 35 39 42 43 43 41 39 37 34 31 28 25 21 18 16 15 14 13 11 10 10 10 11 11 11 11 12
37 32 28 24 27 32 29 31 32 29 22 22 21 20 19 23 32 36 40 42 43 42 41 39 37 34 30 27 24 20 17 16 16 14 13 12 11 11 11 12 11 11 12 12
36 29 32 32 33 33 32 31 30 28 25 22 23 26 27 26 31 36 40 41 42 42 41 39 37 33 29 26 23 19 17 17 15 14 14 13 12 12 12 11 11 11 11 12
38 30 32 30 33 33 31 33 30 30 26 27 32 29 30 32 35 36 39 40 41 41 41 40 37 32 29 26 21 19 17 17 16 15 14 13 12 12 11 10 10 10 11 11
35 32 31 29 33 34 29 34 31 32 31 28 31 32 32 32 33 36 38 39 40 41 41 39 37 33 29 25 20 18 17 17 16 15 13 12 12 10 10 9 9 9 10 11
36 35 33 30 32 26 32 38 37 34 36 37 37 36 37 37 34 37 38 39 40 41 40 39 37 33 28 22 19 18 17 16 15 13 11 11 10 9 8 8 9 10 10 11
37 36 34 31 29 29 26 37 36 35 34 38 38 39 35 35 35 36 38 39 40 41 40 39 36 31 24 20 18 16 15 15 13 11 10 9 8 8 8 9 9 10 11 11
38 39 35 32 28 24 26 28 31 34 33 38 39 37 33 34 29 32 38 39 40 40 39 35 30 25 21 18 16 15 14 12 11 10 8 8 8 8 9 10 11 11 11 11
36 35 33 31 29 29 32 32 29 24 24 32 33 35 34 32 35 36 36 36 37 36 32 28 26 23 18 15 15 14 12 11 10 9 8 9 8 9 10 11 11 11 11 10
32 31 32 32 30 24 32 27 24 28 35 36 35 35 35 35 33 32 31 30 30 29 26 23 20 17 15 15 14 12 11 10 9 9 9 8 10 11 11 11 11 11 11 11
32 34 32 34 31 34 34 33 35 36 35 36 36 37 35 33 32 30 27 26 24 23 21 19 17 15 14 14 13 11 9 9 9 8 8 10 12 12 12 11 11 11 12 13
36 37 36 35 34 35 34 34 36 36 36 37 37 36 35 32 30 26 24 23 22 21 19 17 16 14 12 11 10 9 9 8 7 8 10 11 13 14 13 12 12 13 14 15
35 37 35 35 35 35 33 34 36 36 36 36 36 35 33 31 29 26 24 23 21 19 17 16 15 13 10 9 9 9 9 8 8 10 11 13 14 13 13 12 13 16 16 17
34 36 34 33 35 33 32 35 37 36 36 35 34 34 33 32 29 27 24 21 20 18 16 14 12 10 9 9 9 9 9 9 9 10 11 15 15 13 13 13 14 16 17 17

GFSCGP_sfc_30mbdewp_036.txt.gz
Dewpoint
36 33 31 31 31 31 33 33 31 32 34 33 33 32 33 34 36 38 39 39 40 40 40 39 38 40 42 45 48 50 54 54 51 48 46 44 42 37 34 32 30 29 28 27
34 31 32 32 32 33 33 31 29 29 32 32 31 30 31 32 32 35 35 37 39 40 39 38 39 44 47 47 49 51 51 50 50 49 45 41 40 32 29 27 25 25 24 24
31 29 32 33 32 31 31 30 29 27 29 30 30 24 19 22 26 30 30 32 37 39 39 38 40 44 49 50 51 52 50 49 46 42 37 32 30 26 24 23 22 22 22 21
33 34 32 31 30 31 28 30 31 30 29 24 29 18 20 22 22 23 26 33 37 39 39 39 39 45 50 51 53 51 49 46 42 40 38 36 34 28 25 22 21 19 19 19
30 32 32 31 30 31 28 31 30 31 30 29 27 24 20 22 21 24 31 33 36 39 39 38 40 44 50 52 52 49 46 43 41 39 37 35 32 27 23 20 17 16 16 16
32 35 33 32 32 32 33 31 31 32 31 23 24 24 19 18 17 20 26 31 36 39 39 39 42 48 50 51 49 46 44 42 40 39 37 34 28 23 20 18 16 15 16 15
31 34 35 36 32 32 31 30 22 21 21 17 22 23 21 20 21 24 26 30 36 38 38 41 44 48 49 49 47 45 43 41 39 38 35 30 25 22 20 18 16 14 12 12
25 20 32 35 32 27 30 28 20 14 15 17 22 21 19 24 24 24 24 27 32 36 39 43 46 48 48 47 46 44 42 39 37 34 31 27 25 23 21 18 15 13 11 11
26 24 29 33 34 31 30 27 28 24 22 21 22 24 24 23 21 23 29 29 26 33 40 43 46 47 46 45 44 42 39 35 32 28 26 23 22 19 16 13 13 12 11 10
27 22 26 32 34 33 31 31 26 26 17 15 18 20 17 21 21 20 18 20 31 37 41 45 46 44 43 41 39 36 33 30 26 23 21 18 16 13 11 11 9 9 10 10
30 27 27 33 31 27 31 29 30 27 25 16 13 12 23 26 31 32 32 20 29 37 42 43 42 39 37 35 34 30 26 24 20 18 15 13 11 9 9 8 9 9 10 11
31 30 25 25 28 32 29 30 29 24 20 22 19 15 27 30 30 34 35 34 39 42 42 40 37 35 34 32 29 26 22 19 17 15 13 11 10 9 9 9 10 10 11 12
32 29 23 22 30 31 30 32 32 30 29 21 17 14 18 19 22 34 39 42 42 41 39 37 35 34 31 28 24 21 19 17 15 13 12 11 11 10 10 11 11 11 12 12
34 32 27 22 23 30 28 30 32 30 25 22 21 18 17 19 27 31 39 43 43 41 39 37 34 31 28 25 21 18 17 16 14 13 12 11 11 11 11 12 11 12 12 12
34 30 32 32 32 32 32 31 31 29 28 24 21 21 22 26 28 31 38 43 43 40 38 36 32 29 26 22 19 17 16 15 14 14 14 12 12 13 12 11 12 12 12 12
37 31 33 30 33 34 31 32 32 32 31 29 25 23 25 31 34 34 37 42 42 40 38 36 32 28 25 21 18 17 16 15 16 15 14 13 13 12 11 11 10 11 11 11
36 32 30 27 33 32 30 32 33 33 31 29 26 26 26 30 33 36 37 41 42 41 39 36 32 28 25 21 18 17 16 17 16 15 13 13 12 11 10 10 10 10 10 11
35 34 32 29 32 26 32 38 37 34 32 31 29 30 34 36 37 37 39 41 41 41 39 36 32 28 24 20 19 18 17 17 16 13 12 12 11 9 9 10 10 10 11 11
36 35 32 30 29 31 29 36 35 32 33 35 35 33 34 38 36 36 38 40 41 41 40 37 33 27 22 20 18 17 17 16 14 12 11 10 9 8 9 10 10 11 11 11
37 37 34 32 28 26 28 29 38 37 33 40 38 37 37 36 31 33 38 40 41 40 39 35 29 24 21 18 17 16 15 14 12 11 9 9 9 9 10 11 11 11 11 11
35 35 32 32 29 30 32 33 37 28 25 36 40 39 41 38 37 37 39 39 39 37 34 29 26 23 19 17 16 15 14 13 11 10 9 9 10 10 11 11 11 11 10 11
31 31 30 31 29 25 33 29 27 29 33 35 35 36 39 37 35 34 34 34 33 31 29 25 22 19 17 16 16 14 13 11 9 10 9 10 11 11 12 11 11 10 11 12
31 33 32 32 31 34 35 33 35 36 35 36 36 36 35 33 32 30 29 28 26 25 23 21 19 16 15 15 14 12 10 10 9 9 10 12 13 12 12 11 11 11 13 14
35 37 35 35 34 34 34 34 36 36 36 37 37 35 33 30 28 26 25 24 23 22 20 18 17 15 13 12 11 10 10 9 8 9 11 13 16 13 12 12 12 14 14 15
35 37 35 35 35 35 35 34 36 36 36 35 34 33 30 28 26 25 23 22 20 19 18 17 15 12 11 10 9 9 8 8 9 10 12 14 14 13 12 13 13 16 17 18
36 36 34 32 35 34 32 36 36 36 35 34 33 31 30 28 26 23 21 20 18 17 15 14 12 10 9 9 9 9 9 9 10 11 13 17 13 13 13 13 13 16 17 17

GFSCGP_sfc_30mbdewp_039.txt.gz
Dewpoint
36 33 31 32 32 31 32 32 30 30 32 31 30 31 32 33 33 34 34 34 36 39 40 41 41 40 40 42 46 49 56 59 57 54 53 50 47 44 41 36 33 32 31 28
34 31 32 32 32 32 31 30 28 29 30 31 30 29 29 30 30 29 29 31 34 35 39 40 40 40 41 42 47 51 56 56 54 54 51 48 46 43 39 31 30 29 27 25
30 29 32 32 31 30 31 30 28 27 29 30 28 24 19 20 24 26 29 30 31 33 35 38 40 40 43 45 47 51 53 52 51 45 43 40 39 35 30 26 27 26 23 22
33 34 32 32 31 32 28 30 30 30 29 23 27 18 19 19 19 19 21 25 29 31 32 36 39 40 44 47 50 51 51 49 45 43 43 43 43 37 30 26 24 22 21 21
29 32 33 31 30 32 28 30 29 30 29 28 26 25 21 22 21 21 22 24 26 29 31 36 39 40 44 50 52 51 48 46 43 43 44 44 40 32 24 20 19 18 19 18
32 34 32 31 32 32 32 31 30 32 31 22 23 25 18 18 18 19 20 21 29 33 34 37 39 42 47 51 52 49 46 43 42 41 39 37 31 24 19 18 17 16 16 16
33 34 36 35 32 33 31 31 21 18 20 16 20 24 20 20 21 21 21 23 26 31 37 39 41 44 48 51 50 47 45 42 40 38 36 31 25 21 19 17 16 15 13 14
25 21 31 35 32 26 30 28 20 12 14 16 22 20 19 23 24 24 25 25 24 29 35 39 42 46 48 50 48 46 43 40 39 36 30 26 25 23 21 18 16 14 13 13
26 24 29 34 34 31 29 27 28 22 21 20 17 19 20 20 20 24 24 25 28 28 32 37 44 47 49 49 47 45 42 39 36 32 27 25 23 21 18 16 14 13 13 12
29 24 25 31 34 33 31 30 25 26 16 15 17 18 16 18 17 21 31 33 33 27 31 40 45 47 48 48 45 42 38 35 31 28 24 22 18 16 15 13 12 12 12 13
31 26 25 31 29 26 30 28 30 29 27 18 14 13 17 16 20 32 33 35 37 29 34 42 46 46 45 42 40 36 32 29 25 22 19 16 13 12 11 11 11 11 12 13
32 30 24 23 28 30 28 27 28 24 22 25 22 18 19 27 33 32 33 38 41 40 42 44 41 39 39 36 34 32 27 24 20 17 15 12 11 10 10 10 11 12 12 13
31 29 22 20 28 31 30 30 28 31 29 24 20 16 19 21 24 30 33 41 41 40 39 37 37 37 35 33 29 25 21 18 15 14 12 11 11 11 10 11 12 12 13 14
32 31 25 21 19 24 29 31 32 30 25 22 24 21 21 20 21 28 31 42 41 39 37 36 35 33 30 27 24 20 17 15 14 13 13 12 12 11 11 12 12 13 13 13
34 29 30 29 30 31 32 31 32 29 28 25 22 24 25 24 28 28 32 41 41 39 36 34 31 29 25 22 20 18 16 14 14 14 14 13 13 13 13 13 13 13 13 13
37 30 33 30 32 32 32 34 33 33 31 30 29 27 30 26 33 34 35 40 41 39 36 32 30 26 23 21 18 17 15 15 16 15 14 15 13 13 13 12 13 13 13 12
35 33 30 27 31 32 30 34 33 33 33 31 28 29 30 29 30 33 37 39 42 39 35 31 28 25 22 19 17 16 16 16 16 15 14 13 13 12 12 12 12 12 12 12
34 33 32 28 31 25 30 38 38 35 35 34 32 30 30 32 35 38 39 40 43 39 35 31 28 23 20 18 17 17 17 16 15 14 13 13 12 11 11 11 11 11 11 11
37 34 31 29 29 29 29 31 36 35 34 37 34 33 32 34 38 36 39 42 42 39 35 31 28 23 20 18 17 17 17 16 14 13 12 11 10 10 11 11 11 11 11 10
37 36 32 31 28 25 29 32 37 37 32 38 35 35 36 38 34 35 39 42 41 38 34 30 25 22 19 18 17 17 16 14 13 12 10 10 10 11 11 11 11 11 11 10
33 32 29 30 29 30 33 32 38 28 31 33 38 38 38 39 36 37 39 40 39 37 32 27 24 21 19 18 17 16 15 13 12 10 10 10 11 11 11 11 11 10 11 11
31 32 31 31 29 26 34 31 27 30 34 35 36 39 41 37 36 35 35 34 33 31 28 25 21 19 18 17 17 15 13 11 10 10 11 12 12 11 11 11 11 11 12 12
30 32 30 31 30 32 36 35 34 36 35 36 36 36 38 34 34 33 31 30 28 26 24 21 19 17 17 16 15 13 10 10 10 11 12 12 12 12 11 11 11 12 13 13
34 36 34 35 34 35 36 35 36 36 36 36 37 35 34 32 30 28 26 25 24 22 20 18 17 15 14 14 12 10 10 10 10 11 13 14 13 12 12 13 12 14 14 15
34 36 35 35 35 35 35 35 36 36 35 33 32 31 29 29 27 25 23 22 21 20 19 17 15 13 11 11 10 9 9 10 10 12 13 14 13 12 12 13 13 16 17 18
36 35 34 32 35 34 33 36 36 35 34 32 30 29 28 27 24 23 21 20 19 17 15 14 12 11 10 9 8 9 10 11 11 13 15 14 13 13 13 13 13 17 17 17

GFSCGP_sfc_30mbdewp_042.txt.gz
Dewpoint
36 33 30 29 31 30 29 28 28 27 29 28 25 24 25 26 26 27 28 29 30 32 35 38 40 41 43 42 42 44 46 51 56 58 59 61 59 57 56 54 49 46 41 35
34 31 31 31 31 31 30 28 26 26 27 27 25 24 24 25 25 26 25 24 23 24 26 31 36 39 41 42 43 45 48 53 57 58 57 57 55 52 48 44 41 40 33 30
30 29 31 32 31 30 29 27 26 25 26 27 26 23 21 20 21 22 23 24 24 24 24 25 26 34 40 42 43 45 49 55 57 56 57 52 48 43 38 37 36 32 28 25
31 31 31 30 29 29 26 28 29 28 26 23 27 19 19 20 20 21 21 21 23 25 26 27 26 27 36 41 45 46 50 54 56 54 51 49 51 47 39 36 33 30 27 25
30 32 32 30 29 30 27 29 28 28 27 26 25 25 16 17 18 18 20 20 21 23 24 26 28 29 32 41 46 48 51 53 52 51 52 52 50 46 37 31 26 25 23 22
30 33 32 30 31 31 31 30 29 28 29 22 19 23 13 8 9 14 18 19 20 21 25 27 28 32 33 40 49 51 51 51 50 51 51 53 48 39 31 25 24 24 23 20
31 31 33 33 30 32 31 30 21 20 21 16 17 18 18 14 19 20 19 18 21 23 25 29 32 35 37 41 50 51 50 49 49 50 51 48 42 38 33 23 23 20 18 18
25 24 31 34 31 28 31 26 19 13 12 7 19 16 13 17 22 22 21 19 25 27 28 26 33 38 40 44 50 50 49 47 47 47 46 43 37 28 22 20 18 18 18 18
26 25 29 33 33 30 27 27 27 23 21 18 13 13 15 15 16 17 19 26 29 29 30 30 30 38 41 46 49 49 48 46 45 44 41 34 27 23 20 18 18 17 16 15
29 26 26 30 34 33 29 28 24 26 16 13 14 14 14 15 16 18 20 27 28 32 35 31 29 38 44 47 49 49 47 44 42 38 35 29 23 20 18 17 17 16 14 14
30 27 26 30 29 26 29 29 28 26 25 17 16 15 17 15 15 16 28 28 31 36 38 33 32 41 46 49 49 47 44 41 37 34 28 23 19 17 17 17 16 15 13 13
30 29 24 25 27 27 25 26 26 24 23 25 23 20 21 20 21 29 28 26 31 39 41 40 40 45 47 47 46 43 39 37 33 27 23 18 17 16 16 15 14 13 12 12
31 29 24 23 29 28 28 28 27 31 29 24 22 20 21 23 27 27 25 26 30 39 40 41 42 43 44 43 41 38 33 28 25 21 17 16 16 15 14 13 12 12 12 13
32 31 26 21 19 24 28 31 32 31 25 23 25 24 23 20 23 23 23 27 35 40 39 40 41 41 41 39 34 29 23 19 17 17 16 16 16 15 13 12 12 12 13 13
32 29 29 29 28 28 29 30 32 30 30 26 24 24 24 25 25 25 26 30 38 41 39 39 39 39 35 28 24 20 18 17 16 16 17 17 15 14 13 13 12 13 13 13
35 29 31 29 29 30 31 33 35 35 35 32 32 30 30 30 29 28 32 35 39 41 38 36 35 32 27 23 20 18 17 16 17 18 17 16 14 13 13 13 13 14 14 13
33 31 30 26 28 30 31 34 35 36 35 33 30 30 30 30 33 31 34 36 37 40 37 35 31 27 24 22 20 18 17 17 17 17 16 14 14 13 13 13 13 13 13 13
34 33 32 28 29 24 30 37 38 37 37 35 33 32 32 31 32 36 40 39 41 40 35 32 28 26 23 22 21 19 18 18 18 16 14 13 12 12 12 13 13 13 12 11
35 32 29 27 27 26 30 32 33 36 34 37 36 35 35 34 37 40 42 43 41 38 34 30 27 25 22 20 19 18 18 18 17 15 13 11 11 11 11 12 12 12 11 11
35 35 32 30 25 23 30 33 37 38 34 35 37 37 35 38 34 36 41 41 38 35 33 29 26 24 21 19 19 18 18 17 15 13 11 10 10 11 12 12 12 12 11 11
32 32 29 28 28 29 31 32 38 30 33 36 38 39 39 38 37 38 41 40 37 33 30 26 24 22 20 19 19 17 17 15 13 10 10 11 12 12 12 12 12 11 11 11
31 30 29 30 29 26 34 34 31 31 36 37 38 39 40 37 37 36 37 35 33 29 26 23 20 19 18 18 18 16 13 12 11 11 12 12 12 11 12 12 11 11 11 10
29 32 30 30 30 33 35 36 37 36 36 36 36 38 41 38 35 35 34 32 29 27 26 25 22 19 18 18 15 12 11 11 12 12 12 12 12 12 12 12 12 11 11 9
34 35 33 35 34 36 36 36 36 37 37 36 36 37 38 36 33 31 29 28 27 25 23 21 20 18 16 15 13 11 11 11 12 11 12 12 12 12 12 13 12 11 10 10
34 36 35 35 35 36 35 36 36 36 35 32 32 32 32 33 32 31 28 26 24 23 22 20 18 16 13 12 11 11 11 11 11 13 14 14 13 12 11 12 11 12 13 17
36 35 33 31 35 35 34 36 36 35 33 31 30 29 29 30 28 26 25 24 22 20 19 17 15 13 12 10 10 11 11 12 11 12 12 12 12 12 11 10 9 16 17 17

GFSCGP_sfc_30mbdewp_045.txt.gz
Dewpoint
35 31 29 28 28 27 28 26 25 25 26 26 25 24 24 24 24 25 26 27 27 29 32 34 36 38 38 38 40 41 42 44 47 52 56 58 59 62 63 63 61 59 55 47
34 32 30 30 29 29 29 27 25 25 25 26 24 23 24 24 24 24 24 24 25 25 27 28 31 36 38 39 42 42 42 44 49 53 56 57 60 58 57 56 56 52 47 42
31 30 31 30 30 29 28 26 25 24 25 25 25 23 21 22 24 25 25 25 25 25 24 23 23 29 37 39 40 42 42 46 51 54 57 58 54 50 46 47 45 42 41 37
31 30 29 29 29 28 25 26 26 26 26 23 26 21 21 19 19 20 21 21 22 23 23 24 24 23 28 37 42 43 44 47 52 56 56 56 53 49 44 44 42 39 35 34
30 31 30 28 27 28 27 28 27 27 26 26 25 23 19 15 12 14 17 19 19 20 21 22 24 27 27 30 41 45 46 48 54 55 56 54 51 51 43 40 37 35 33 28
29 31 31 30 30 29 31 29 28 27 27 24 22 21 16 8 8 11 11 16 19 19 20 21 24 27 29 33 39 47 47 51 54 56 53 52 53 44 38 35 35 34 31 27
29 29 31 30 29 30 31 28 23 23 22 17 14 14 16 13 14 15 15 17 16 18 20 22 24 27 29 32 35 47 49 50 53 52 52 52 52 42 38 36 35 30 27 24
25 26 29 33 30 29 29 28 21 16 13 12 15 14 12 13 18 19 19 20 19 19 23 28 29 28 31 36 37 46 49 50 50 51 52 54 46 42 39 34 28 25 25 23
25 26 29 32 32 30 29 28 27 23 21 18 13 10 12 14 15 16 17 19 21 23 27 31 33 32 32 37 39 46 49 49 49 51 52 47 44 38 32 26 24 22 22 20
28 27 27 30 32 31 28 27 24 26 17 13 11 13 14 16 17 18 18 19 22 26 30 33 32 32 30 38 41 48 48 48 49 50 47 42 33 26 22 22 21 21 21 19
29 27 27 29 29 27 28 27 26 23 23 16 15 15 17 18 18 17 19 19 25 27 31 36 33 31 33 40 44 47 48 47 47 45 38 32 26 21 20 19 18 18 18 18
30 29 26 26 27 27 26 26 26 24 20 24 23 21 22 22 21 21 21 24 26 25 34 38 37 37 40 44 48 48 46 45 42 37 32 26 21 20 19 19 18 18 17 15
30 28 24 27 27 26 25 26 25 28 29 25 23 21 21 21 23 23 24 25 24 25 33 39 40 42 44 48 47 45 42 39 35 31 25 20 20 20 20 19 19 17 15 13
30 29 27 23 24 26 29 29 29 31 26 24 25 24 24 25 26 27 23 24 26 26 38 39 40 41 43 45 43 41 37 33 29 25 21 19 19 17 16 16 16 15 14 14
31 29 28 29 27 27 28 29 30 32 31 27 26 28 30 32 32 30 29 27 26 34 40 40 40 41 42 41 37 32 30 26 23 22 20 19 18 17 16 16 15 14 14 14
34 28 29 28 29 28 28 29 30 33 36 35 35 33 35 33 30 32 30 28 35 36 41 39 39 39 34 30 27 24 21 20 20 21 20 19 18 17 16 15 15 15 15 14
34 32 30 24 27 26 30 33 34 37 38 36 31 31 31 31 35 38 38 39 38 40 39 37 36 31 26 22 20 19 19 20 21 21 19 18 17 17 16 15 15 15 14 14
33 33 32 26 26 24 26 34 35 35 37 37 37 35 35 35 35 40 41 43 40 38 36 34 30 26 22 21 20 21 22 20 21 20 19 17 16 15 15 15 15 15 14 13
36 35 30 26 24 24 25 32 31 35 36 37 37 37 36 36 41 40 43 41 39 36 32 29 25 23 24 24 24 24 24 21 19 18 17 15 14 14 14 14 13 13 12 12
35 35 32 27 24 21 28 33 36 38 34 36 39 40 39 38 37 38 41 38 35 30 29 28 28 30 33 32 32 31 28 26 25 19 14 13 13 13 14 14 13 13 13 12
31 32 28 27 26 25 27 33 39 29 33 36 39 39 40 36 38 41 40 35 33 31 31 30 29 31 29 29 25 22 20 17 14 12 12 13 13 13 14 13 13 13 13 12
31 30 29 31 28 24 33 34 33 34 38 37 41 39 38 38 38 38 36 32 30 28 28 26 24 22 21 21 20 18 14 12 12 13 13 13 13 13 13 13 12 12 12 11
28 31 34 30 28 30 35 35 36 37 36 36 37 42 39 38 38 37 34 34 33 28 27 24 21 21 22 20 18 14 12 13 13 13 13 13 13 13 13 13 13 12 11 9
32 33 32 32 32 34 35 36 36 37 36 36 36 38 43 37 37 35 32 29 29 31 31 28 25 20 16 14 12 12 12 13 12 12 13 13 12 12 13 13 12 11 9 9
33 35 34 33 34 35 35 36 36 36 35 33 33 35 39 36 34 33 33 29 27 24 23 22 19 15 13 12 11 12 12 12 12 13 13 14 14 12 12 12 11 10 12 15
35 33 33 30 35 35 35 36 37 35 33 32 32 33 35 35 33 31 28 27 25 24 21 17 14 12 12 11 11 12 14 14 14 13 13 13 13 12 11 10 8 16 15 16

GFSCGP_sfc_30mbdewp_048.txt.gz
Dewpoint
41 36 33 32 33 30 28 27 26 25 26 25 25 25 25 26 26 25 27 28 29 31 33 33 33 35 34 35 39 43 44 44 45 47 58 62 61 62 63 63 61 61 59 51
33 31 31 29 29 29 27 27 27 26 25 25 24 24 25 25 24 24 24 24 25 27 28 29 31 35 36 38 38 38 43 45 46 47 54 59 60 59 59 61 61 58 51 46
31 30 31 31 29 29 28 27 26 25 26 26 25 23 23 24 25 26 26 25 25 25 25 26 26 29 34 36 39 40 43 43 47 50 56 55 54 52 52 50 47 46 43 41
30 31 28 29 29 29 26 27 26 26 25 23 26 22 22 20 20 22 23 25 26 26 26 26 26 26 27 35 38 40 43 43 47 52 56 56 56 55 50 47 46 43 41 40
30 30 30 28 28 29 26 29 27 27 26 25 25 23 23 20 17 15 18 21 22 23 24 24 25 26 27 29 38 39 42 43 47 53 56 56 53 48 47 44 42 40 40 39
30 31 31 30 29 28 30 28 28 28 27 23 24 22 20 16 14 13 13 17 19 20 21 22 24 27 29 31 31 38 44 45 49 55 57 54 50 46 43 39 39 38 36 31
29 30 30 31 29 30 30 26 24 24 22 17 18 22 20 17 16 17 16 16 18 17 18 21 26 29 28 28 33 33 43 46 52 56 56 53 47 44 41 39 38 34 31 29
25 25 30 30 29 29 29 28 23 18 18 19 21 15 14 16 16 18 19 19 20 20 21 22 31 33 33 34 33 35 44 48 54 55 53 52 43 41 39 39 36 33 30 29
26 27 30 31 31 30 29 27 28 24 21 18 16 12 12 12 12 14 17 19 20 21 22 29 33 33 33 35 35 36 46 50 54 53 53 46 42 39 38 35 33 31 28 25
28 26 28 31 31 30 28 28 24 25 16 15 15 13 13 16 18 19 18 18 20 22 26 30 35 36 34 34 38 38 49 50 51 52 47 43 41 38 33 29 29 27 22 22
28 27 26 30 29 28 29 28 26 25 23 18 16 16 19 20 22 22 22 22 22 26 27 32 37 38 37 35 40 42 49 49 51 49 40 31 28 27 26 25 23 22 21 21
29 29 27 26 28 30 29 27 27 22 19 23 25 21 23 23 23 24 25 25 25 27 27 36 38 39 39 39 43 47 49 49 42 34 29 24 23 21 20 19 19 20 19 18
30 28 23 24 27 26 25 26 27 27 27 23 22 20 21 23 26 28 28 28 26 26 27 38 39 39 43 47 48 48 47 37 32 28 24 21 22 21 20 20 20 20 19 17
30 29 27 26 26 29 26 27 26 27 26 23 24 24 26 27 31 34 34 34 31 30 32 39 40 40 47 47 45 41 35 31 27 23 22 21 21 20 19 19 18 17 16 15
31 28 29 29 29 27 27 28 30 29 29 26 25 27 31 36 35 35 36 38 37 32 39 40 40 41 45 44 39 34 30 26 22 22 22 21 19 18 18 17 16 17 16 15
32 28 30 27 28 28 28 29 29 30 31 34 35 35 38 36 32 34 36 38 39 38 40 40 40 41 37 32 31 29 26 23 22 22 22 19 17 17 17 17 17 16 15 15
34 31 30 24 27 27 26 29 30 35 37 37 33 35 36 36 35 38 39 40 40 39 40 40 39 31 27 26 24 24 22 24 24 22 20 19 18 18 18 17 16 15 15 14
32 32 31 26 26 24 25 34 35 34 37 38 38 37 38 37 39 41 43 42 38 39 40 38 30 25 23 22 21 22 22 23 23 22 20 19 18 17 17 17 16 15 15 13
35 35 30 25 23 24 28 32 31 32 36 38 37 40 40 40 42 39 40 35 36 33 31 28 24 22 21 22 23 25 24 25 23 24 22 18 18 17 16 15 14 13 12 12
35 36 32 29 23 21 26 33 35 38 33 38 39 40 39 38 37 37 37 30 29 26 25 25 26 26 28 27 26 26 25 24 24 22 21 21 22 18 16 14 14 15 14 13
32 32 29 28 26 26 26 36 39 32 32 38 40 40 38 37 40 39 35 35 35 35 33 32 33 34 35 35 35 33 33 32 32 32 30 25 17 15 14 15 14 14 13 13
29 28 28 29 26 23 32 34 34 36 38 39 40 40 38 38 37 34 31 34 34 35 35 35 35 35 37 38 35 32 30 28 22 17 14 15 15 17 14 13 12 12 12 11
30 30 29 30 28 29 34 34 37 37 36 37 37 41 39 39 37 34 30 29 28 27 25 26 25 22 21 18 14 13 14 14 14 14 14 15 14 14 14 13 13 12 11 9
31 32 32 33 33 33 35 36 37 37 36 35 36 41 42 39 38 34 36 34 32 30 30 29 26 23 22 21 18 16 14 14 14 13 13 13 13 13 13 13 13 11 11 11
34 34 33 33 33 35 36 36 36 35 34 33 34 37 42 38 34 32 33 31 32 31 30 22 19 15 13 13 13 13 13 14 13 14 14 15 14 13 12 11 11 11 17 15
34 35 34 33 35 36 35 36 36 34 32 32 33 36 37 36 35 33 31 26 24 22 17 15 13 12 12 12 13 15 16 15 15 14 14 14 13 12 11 9 11 16 15 14

GFSCGP_sfc_30mbdewp_051.txt.gz
Dewpoint
43 39 35 35 35 33 31 28 27 28 28 25 26 28 27 27 27 26 27 27 29 31 33 34 33 33 33 35 37 41 44 52 57 63 64 63 63 64 63 62 61 60 56 53
38 35 36 35 35 34 32 28 27 28 27 26 25 25 26 26 26 26 26 26 27 28 29 30 31 32 34 34 35 38 44 45 51 59 63 63 63 62 62 63 61 60 54 49
33 30 32 32 31 29 29 28 28 26 27 26 25 21 23 25 26 26 26 26 25 25 26 28 28 29 30 34 36 38 40 44 44 48 58 57 56 55 58 57 55 53 50 46
31 32 30 31 30 29 27 28 28 27 26 22 26 19 23 20 18 21 24 26 26 26 26 26 26 26 27 28 34 37 40 43 45 50 56 58 59 59 57 53 48 46 45 45
30 30 28 28 30 30 28 29 28 27 26 25 24 20 19 24 19 18 16 18 25 26 27 26 27 27 27 28 29 35 39 41 45 49 55 57 58 54 50 47 45 45 43 42
31 32 31 30 29 30 30 28 28 28 26 21 22 21 16 18 17 15 17 17 21 23 22 25 25 27 29 30 30 34 38 41 44 49 56 57 54 51 48 44 44 43 43 41
30 30 30 31 29 30 29 26 22 21 21 15 23 23 20 22 20 19 18 17 19 18 18 20 29 32 32 32 33 33 35 38 44 50 56 54 52 51 48 44 43 42 36 34
25 22 30 30 30 28 29 26 21 15 20 20 22 20 18 18 20 18 19 18 19 20 21 21 32 33 33 33 34 34 34 37 46 55 55 51 49 48 46 44 41 41 34 32
25 25 31 30 30 30 29 26 28 23 22 19 18 16 14 16 18 17 18 19 20 21 22 26 33 35 34 34 35 35 35 40 52 54 50 46 46 45 44 41 38 37 34 30
29 26 30 31 31 31 28 29 24 23 10 10 16 15 13 18 21 22 22 24 24 25 25 30 36 36 35 35 38 37 37 43 54 53 46 43 44 43 41 37 33 31 27 26
28 27 30 31 29 28 29 28 26 24 22 17 16 15 19 20 22 23 25 27 27 26 26 27 36 37 37 37 39 40 42 50 52 46 42 42 40 38 36 34 29 26 25 25
29 29 25 27 29 30 30 28 26 20 16 23 23 21 23 22 24 27 27 33 33 34 29 28 37 37 37 39 41 42 49 50 41 37 38 35 34 31 32 29 25 23 22 22
30 27 22 25 27 30 28 29 28 26 26 21 20 19 22 23 25 27 34 36 36 36 33 37 39 38 41 46 48 48 40 34 32 31 29 28 25 26 25 25 23 22 20 21
30 28 24 21 25 28 25 26 27 27 25 22 22 22 24 25 27 33 37 36 36 37 40 39 40 40 46 45 42 36 32 29 26 26 25 24 23 22 22 22 21 22 21 19
30 27 28 28 29 29 28 27 27 25 26 25 23 24 26 30 35 38 39 37 37 39 40 42 40 41 44 38 36 32 29 27 27 26 27 25 25 23 21 21 20 19 19 17
32 26 29 26 27 29 28 28 28 29 28 27 27 29 35 37 38 37 40 40 40 41 41 41 40 41 36 33 29 28 31 29 27 24 24 23 21 21 20 19 18 17 16 16
31 28 28 23 26 27 26 28 29 29 31 31 32 35 39 39 39 39 40 40 39 39 42 40 31 28 25 26 26 27 28 27 25 23 20 19 19 21 23 22 20 16 15 14
33 29 30 24 27 22 26 31 32 32 34 37 38 39 39 40 40 39 34 36 34 34 36 28 25 25 23 24 25 26 26 24 22 21 22 25 26 27 25 19 18 19 20 20
34 31 30 26 25 24 28 34 32 32 34 39 38 37 40 39 41 38 31 28 27 26 24 24 23 23 24 25 25 26 27 25 24 23 24 28 26 22 20 19 17 14 13 14
35 35 31 28 21 20 29 33 35 38 33 39 39 40 39 39 38 37 36 29 27 26 25 25 25 26 26 26 27 29 28 30 31 30 29 25 24 24 24 25 25 23 17 14
32 32 29 25 25 25 27 33 39 30 31 38 40 42 38 38 38 36 36 34 32 31 32 32 33 32 32 32 31 31 31 31 32 32 32 32 32 31 28 24 19 15 13 12
28 28 28 28 26 21 30 37 33 34 37 39 40 40 38 37 32 34 35 35 35 34 34 34 33 33 35 35 34 32 32 32 33 32 32 30 25 20 17 15 13 13 12 10
28 29 28 28 26 27 31 34 37 37 36 37 38 41 38 36 30 29 30 32 35 35 34 34 33 34 35 34 34 32 31 32 28 22 19 18 18 15 14 13 12 11 10 10
32 31 32 32 33 32 33 36 37 36 35 35 36 41 40 37 34 31 30 28 28 27 26 26 25 23 18 17 17 17 15 16 17 20 20 15 13 13 13 14 12 12 11 11
34 33 32 32 33 35 36 36 36 35 33 33 34 39 41 38 36 34 33 31 30 29 27 26 25 22 19 19 19 19 18 16 14 14 15 15 14 12 11 11 11 15 16 12
35 34 33 33 35 36 36 36 35 34 32 33 35 39 38 35 35 35 35 33 30 24 20 18 16 14 14 14 14 15 15 15 14 14 14 13 13 12 10 10 11 18 17 16

GFSCGP_sfc_30mbdewp_054.txt.gz
Dewpoint
45 39 36 37 37 32 31 30 28 28 29 26 25 25 27 29 29 28 28 28 28 29 32 34 34 33 34 34 34 38 44 59 62 63 63 64 63 63 63 62 59 58 58 56
40 36 37 37 36 35 34 32 30 29 28 26 26 25 26 26 26 26 26 26 27 27 28 30 32 33 33 33 33 35 40 48 60 63 63 63 63 64 63 62 61 59 57 54
36 36 36 33 32 33 32 29 28 27 27 27 25 20 20 23 25 26 26 27 27 27 26 27 29 29 30 31 34 35 36 43 55 61 62 60 59 58 60 61 61 60 56 53
33 32 32 32 31 30 27 28 28 27 26 21 26 15 21 21 22 22 23 25 26 27 26 26 27 27 28 29 31 34 37 40 46 57 61 60 59 59 60 60 57 55 52 52
32 31 30 30 30 30 28 28 27 27 26 24 24 22 17 22 18 19 17 17 19 26 27 27 27 27 27 27 28 30 33 38 44 51 60 60 59 59 55 54 54 51 49 50
30 32 30 29 30 30 30 28 28 28 25 18 21 22 14 17 17 15 17 19 19 22 25 26 27 28 28 30 30 30 33 38 41 47 55 59 59 55 53 51 50 47 47 48
30 30 30 31 29 30 28 24 20 18 19 11 23 23 19 21 21 22 21 20 19 21 21 25 29 31 32 32 33 33 32 31 37 43 51 56 57 55 53 51 49 47 44 42
27 25 29 30 29 28 27 24 18 9 16 20 22 19 16 21 20 18 19 22 24 25 24 23 31 32 32 32 32 34 34 34 34 40 50 56 55 54 52 50 48 47 44 40
25 24 31 30 31 29 29 25 27 23 20 19 19 18 15 21 21 22 25 26 27 28 28 27 30 34 34 33 33 34 35 36 36 40 53 53 52 51 49 46 46 42 40 38
27 25 30 31 30 31 27 29 24 22 9 6 14 16 11 18 21 22 26 27 30 34 33 30 30 35 35 35 34 37 39 39 38 49 50 49 49 48 46 44 43 40 37 35
29 26 32 31 28 27 29 27 26 23 20 14 13 10 19 19 23 25 27 29 34 36 35 34 35 32 36 36 35 35 40 43 49 49 46 46 46 45 44 43 40 36 33 32
30 28 26 29 30 31 30 28 25 20 16 22 22 16 24 24 24 26 27 32 36 37 36 36 33 35 38 38 41 43 46 49 47 44 43 43 42 42 40 39 35 32 30 28
29 25 22 24 26 30 28 29 28 24 25 21 18 16 23 24 25 27 30 36 38 37 37 38 38 39 40 46 46 46 45 43 41 41 41 40 39 38 37 32 30 29 26 23
30 27 22 19 22 27 26 28 29 27 24 22 21 20 22 24 26 30 35 38 39 38 38 40 40 41 44 42 39 35 33 34 34 37 35 35 35 33 29 27 24 23 23 23
29 26 28 28 28 29 27 26 27 27 26 23 22 23 24 25 27 34 40 40 41 41 41 41 42 43 43 35 31 30 31 32 33 31 30 28 28 27 25 24 22 22 21 20
31 25 28 26 27 28 28 29 28 27 27 26 26 26 27 29 39 40 40 39 39 37 39 42 41 40 33 28 31 33 33 33 34 31 29 27 26 26 26 24 24 23 24 26
30 28 27 22 26 26 25 27 28 28 29 28 26 28 32 38 39 39 34 34 34 31 39 36 27 25 26 28 30 31 31 33 31 28 28 27 24 24 24 25 25 26 26 26
30 28 29 24 26 22 25 31 30 29 29 31 33 37 39 39 39 33 31 29 28 28 26 26 24 25 27 29 32 33 32 32 30 30 29 28 29 30 30 29 28 28 27 26
32 29 28 25 25 24 28 34 32 32 32 36 37 38 38 40 40 36 35 26 25 23 26 25 25 25 26 27 27 28 29 30 31 30 31 31 31 30 29 28 26 23 20 21
35 35 30 27 22 18 28 32 36 37 31 37 39 39 41 39 37 38 35 29 26 25 26 26 27 27 28 28 28 28 29 29 30 31 32 32 32 30 29 28 29 31 31 29
32 32 29 26 23 25 26 29 39 30 29 37 39 40 39 38 38 36 35 31 31 33 32 32 31 30 30 30 31 32 32 31 32 32 32 32 32 32 32 32 31 30 26 17
29 28 27 28 25 20 29 36 33 33 37 38 40 40 38 35 35 35 35 33 33 34 34 34 33 33 35 34 33 31 30 31 32 33 33 33 33 33 32 30 27 21 13 10
29 28 27 27 25 27 31 31 36 37 36 37 38 40 37 33 33 34 34 35 34 33 33 34 34 33 32 35 33 31 31 32 32 32 31 30 26 19 15 12 12 10 11 11
32 31 30 31 33 32 33 33 36 36 35 35 36 40 37 32 31 30 31 34 34 34 34 35 33 31 30 31 32 32 32 29 24 22 19 16 14 13 13 13 12 11 10 9
34 32 31 32 33 34 36 36 36 35 33 33 34 40 39 32 31 30 30 30 28 28 25 24 21 20 19 20 21 20 19 23 24 17 15 16 15 12 11 13 14 13 13 10
34 32 32 32 35 36 36 36 36 35 33 33 36 40 38 36 33 31 31 30 28 27 26 23 19 18 18 19 18 17 17 18 16 14 14 13 12 11 12 13 14 19 17 17

GFSCGP_sfc_30mbdewp_057.txt.gz
Dewpoint
46 40 37 40 38 33 32 31 29 29 29 27 26 26 27 28 28 28 30 32 32 31 32 32 33 35 35 35 35 38 48 60 63 64 64 64 63 64 64 63 61 58 57 56
40 36 40 40 40 37 33 31 30 30 29 27 26 26 26 27 27 27 27 27 28 28 28 29 30 32 33 34 34 35 41 56 61 63 64 63 64 64 64 63 61 58 58 57
36 36 37 37 36 35 33 32 30 28 27 27 25 22 22 23 24 25 26 27 27 27 27 27 28 29 31 32 33 34 35 43 58 62 63 62 61 60 61 62 62 59 58 57
34 34 34 33 32 33 30 28 28 27 26 23 26 18 20 19 20 22 23 23 25 26 27 28 27 27 28 29 30 32 34 37 50 60 62 61 60 59 61 62 62 60 57 56
34 31 34 32 31 30 28 28 27 27 25 24 24 21 15 19 18 18 19 19 20 22 25 27 27 27 28 28 28 29 31 35 41 51 60 61 59 59 59 59 60 56 54 56
32 33 30 29 31 30 30 27 27 28 24 17 21 20 10 15 17 16 21 19 22 23 23 24 29 28 28 29 29 29 30 32 36 45 57 61 60 58 56 56 56 54 52 52
30 30 31 31 29 29 27 25 18 14 17 10 23 22 17 21 23 23 21 24 27 29 30 29 24 31 32 32 32 32 32 31 35 41 48 56 59 57 56 56 56 52 51 49
27 26 29 30 29 28 27 24 15 5 12 18 22 19 17 21 20 20 26 28 31 33 32 31 29 31 33 33 33 34 33 33 34 35 41 50 56 57 55 54 54 52 51 48
25 25 30 30 31 29 28 25 25 22 19 19 19 18 14 21 22 26 27 28 31 34 35 34 32 33 34 34 34 33 34 34 34 35 39 47 54 55 54 52 51 49 46 44
26 25 30 30 31 31 27 28 22 22 13 4 10 14 9 19 22 25 25 28 31 35 37 37 35 34 35 35 35 35 35 36 38 39 43 48 52 53 51 49 47 44 43 42
28 27 31 31 28 28 28 27 25 23 19 11 8 5 19 18 23 24 26 28 32 36 38 38 37 37 36 36 37 37 37 39 41 46 47 48 49 48 47 46 44 42 40 39
30 28 27 28 30 30 29 27 25 18 17 21 20 12 23 24 24 25 27 31 35 37 39 38 37 39 39 40 45 46 46 47 48 46 46 46 45 45 44 42 40 38 38 36
28 24 23 25 26 30 28 29 25 24 22 21 16 12 23 24 24 26 28 33 39 39 39 38 39 40 40 44 41 37 35 39 42 43 43 43 43 42 42 40 37 36 32 29
29 25 21 17 21 27 25 28 28 26 23 21 21 19 20 22 24 26 29 40 40 41 41 41 42 42 44 39 34 32 32 34 37 39 40 40 40 40 37 37 35 30 26 25
29 25 26 26 27 28 27 26 28 27 26 22 22 23 23 25 26 27 38 39 38 38 36 37 41 43 38 33 33 33 34 34 33 33 34 35 34 33 32 29 26 24 22 21
30 26 28 25 27 28 27 28 27 28 28 28 27 26 28 28 29 38 39 35 35 33 29 37 32 31 29 31 32 32 31 32 31 29 29 29 27 26 25 25 25 26 27 28
29 27 26 21 25 26 23 27 28 28 28 27 26 26 28 32 38 40 36 33 30 30 28 25 25 27 29 30 31 31 31 29 29 28 28 26 27 28 28 28 29 30 31 32
29 28 28 24 26 20 23 27 29 28 28 29 28 29 31 37 40 35 33 28 27 25 27 27 26 29 31 32 31 32 32 32 32 31 31 32 32 31 31 31 31 31 31 31
30 28 27 25 24 24 28 33 30 29 31 32 30 32 38 40 38 38 34 26 25 24 26 26 27 28 29 31 32 32 33 33 33 32 32 33 32 32 31 31 31 31 31 31
32 35 30 27 21 18 25 33 36 35 31 35 36 37 39 39 37 38 33 28 27 28 27 27 29 29 29 28 29 29 30 31 32 32 32 32 32 32 31 31 31 31 32 31
31 32 28 25 22 23 26 28 38 28 29 36 38 39 40 38 38 35 32 31 33 32 31 32 32 32 32 33 32 32 31 30 32 33 33 33 33 32 32 31 31 31 30 28
28 28 27 29 25 19 28 36 32 33 36 37 39 40 40 37 35 35 33 32 33 33 33 34 33 34 34 33 32 31 30 31 32 32 32 32 32 33 32 31 29 27 18 12
29 29 26 26 24 26 29 33 33 36 36 36 37 40 38 35 34 35 35 34 33 33 33 34 33 33 35 34 33 31 31 33 33 32 32 32 31 28 21 16 13 11 11 11
31 32 29 30 31 31 31 33 34 36 35 35 35 39 36 34 34 34 35 34 33 33 33 34 33 32 32 33 33 32 33 32 30 28 23 16 14 13 13 12 12 11 10 9
33 32 31 31 32 33 34 36 36 36 35 33 33 39 36 33 32 32 33 32 33 33 32 29 27 24 29 32 31 28 26 24 18 16 16 16 13 12 13 13 10 11 12 9
34 32 31 30 34 35 35 37 36 35 34 33 34 39 38 33 32 32 32 29 28 26 24 22 23 23 23 22 20 20 23 20 16 15 14 12 12 14 16 16 17 19 18 17

GFSCGP_sfc_30mbdewp_060.txt.gz
Dewpoint
45 39 37 38 38 34 33 32 30 30 30 28 28 27 27 28 28 28 29 30 32 33 34 34 33 34 34 36 36 37 47 62 65 64 64 64 63 63 64 64 63 60 58 57
38 33 40 41 38 33 32 31 30 30 29 27 27 26 27 27 27 28 27 27 28 28 29 30 30 31 32 33 34 35 38 51 63 64 64 64 64 63 64 64 63 61 59 58
35 36 43 41 39 36 34 31 30 29 27 26 25 22 22 22 24 25 26 27 27 25 27 28 28 29 30 31 32 34 35 40 57 63 64 62 63 62 62 62 63 61 59 58
35 39 40 38 37 36 32 32 30 27 26 25 26 20 21 21 18 21 23 21 21 23 23 25 28 28 28 29 30 33 34 36 45 61 62 62 61 61 61 62 63 62 59 58
34 35 34 35 34 33 29 29 27 26 25 24 23 20 15 18 17 17 22 25 27 29 27 27 29 29 29 29 28 29 31 34 38 48 61 62 61 61 60 61 61 61 58 58
33 33 32 31 31 30 29 27 27 25 23 17 20 20 9 16 18 22 22 28 31 32 32 32 29 32 32 32 32 30 29 30 35 41 52 60 61 60 58 58 60 58 56 56
33 32 31 31 29 29 27 25 17 12 16 12 23 21 16 21 23 23 26 29 32 35 35 34 33 33 33 33 33 34 33 32 34 38 45 55 60 59 57 57 58 56 55 54
27 27 30 30 29 28 27 25 17 4 10 15 22 18 17 21 20 25 27 29 32 35 37 36 35 35 35 35 35 35 34 33 34 35 40 47 55 58 58 57 57 56 55 55
25 27 30 31 31 29 27 25 24 20 18 18 19 19 16 22 24 26 26 30 31 34 37 38 37 35 36 37 36 36 35 35 35 36 36 38 45 53 55 55 55 54 53 50
27 26 31 30 30 30 27 27 22 21 11 6 8 11 8 20 22 24 26 28 31 35 37 39 39 37 37 38 38 39 38 37 38 40 42 43 45 49 53 52 52 50 48 47
28 27 30 30 28 27 27 26 23 22 18 9 5 4 17 20 24 24 26 28 32 37 39 39 39 38 39 40 43 44 44 44 46 46 46 46 47 49 49 49 47 46 45 44
29 30 27 28 30 30 29 27 23 17 18 20 20 10 21 22 25 25 26 28 37 40 40 40 40 39 41 43 40 37 36 39 42 43 44 44 45 46 46 45 43 41 41 39
28 24 23 25 27 29 28 28 24 22 22 20 13 8 21 25 24 25 26 31 40 40 41 39 39 41 43 39 35 33 34 36 40 42 42 43 43 44 42 41 40 39 37 34
28 24 21 19 20 26 26 28 25 24 22 20 19 17 20 21 22 25 27 36 39 38 34 34 37 42 38 34 33 34 34 35 37 40 41 41 41 39 38 37 35 32 30 29
28 25 25 25 27 28 26 27 27 25 25 22 21 21 22 24 26 27 29 38 36 34 30 29 31 32 32 33 32 32 33 32 33 34 35 35 35 35 34 31 30 30 29 27
29 26 27 25 27 28 27 27 27 28 27 26 26 26 28 28 29 30 39 35 33 31 29 27 27 29 31 31 31 30 29 29 28 29 28 28 29 30 30 30 31 33 30 29
28 27 25 21 26 27 23 26 27 28 28 28 26 27 27 29 32 39 37 33 30 27 28 27 27 30 30 31 31 31 30 30 30 28 28 29 30 31 32 32 32 31 32 32
28 27 27 24 25 19 22 27 28 28 27 29 28 28 28 30 39 36 33 29 27 25 27 27 27 31 32 32 32 33 34 33 32 31 31 31 32 32 32 32 32 32 32 32
30 29 26 24 23 23 29 31 29 29 31 30 29 30 30 38 39 37 31 27 25 25 26 27 29 29 30 31 33 33 33 33 33 33 33 33 32 32 32 32 32 32 32 32
34 33 27 26 20 17 22 32 34 34 33 34 34 33 36 39 36 38 33 27 28 27 28 29 30 30 29 30 31 32 32 32 31 32 33 33 33 32 31 31 31 31 31 30
31 31 27 25 24 21 24 30 34 30 30 34 37 37 39 38 38 36 31 32 32 31 31 33 33 33 33 33 32 31 31 31 32 33 33 33 33 32 32 32 32 31 30 28
29 27 27 28 25 20 26 35 33 34 35 36 37 38 40 37 36 34 32 33 33 33 33 34 33 34 33 33 32 31 30 32 33 33 32 32 32 32 32 31 30 27 19 14
28 29 26 26 24 26 29 33 34 34 34 35 36 37 39 36 35 34 33 33 32 32 32 34 34 34 34 33 33 31 32 33 33 33 32 32 32 27 23 18 13 12 12 12
31 31 29 30 30 30 31 32 33 35 36 35 35 36 38 36 35 35 34 33 32 31 32 33 33 33 32 33 33 33 33 33 32 30 23 16 13 12 12 13 12 10 10 9
32 31 31 30 32 33 35 36 37 36 35 34 33 36 38 35 34 35 35 33 33 33 34 32 31 32 32 33 32 31 29 24 19 15 16 15 13 12 11 10 8 10 9 10
34 32 31 29 32 34 34 36 37 36 35 34 33 36 38 34 33 34 34 34 32 31 28 25 26 28 30 27 24 25 22 18 16 14 12 13 14 16 17 18 19 20 19 20

GFSCGP_sfc_30mbdewp_063.txt.gz
Dewpoint
43 39 36 37 37 32 33 31 31 33 31 28 30 30 29 29 28 28 29 29 30 32 34 35 35 35 36 36 37 38 44 60 65 65 63 63 63 64 64 64 64 62 60 59
39 36 38 39 39 34 32 30 30 30 29 29 27 26 27 28 28 28 28 28 29 29 28 28 30 32 33 34 35 37 39 46 62 64 63 63 63 64 64 64 64 63 61 60
35 35 41 41 38 35 32 31 30 28 27 26 26 24 23 22 23 23 24 24 25 25 24 24 26 29 31 32 33 34 36 39 53 63 64 63 64 63 63 63 63 63 62 60
36 40 38 37 36 36 33 33 31 28 28 26 26 20 23 20 20 25 27 29 30 30 30 28 30 29 29 30 31 32 35 36 43 59 63 62 60 60 61 62 63 62 62 61
34 38 37 33 33 37 34 36 28 26 26 25 24 22 19 18 18 24 27 30 33 33 33 32 31 33 33 32 31 31 31 34 37 48 60 61 60 61 61 62 62 62 61 61
35 37 38 35 38 37 31 27 26 24 22 18 20 20 12 16 19 22 27 31 33 36 36 35 35 35 35 36 36 35 32 31 33 38 50 61 61 61 61 61 61 62 61 60
33 34 34 34 30 29 27 25 18 16 18 13 23 21 16 20 23 23 28 30 33 36 38 38 36 36 37 38 37 36 36 34 34 36 39 49 60 61 60 60 60 60 57 57
28 26 32 32 31 29 26 27 19 6 10 13 22 18 16 21 21 25 27 29 32 37 38 39 39 36 37 39 39 38 37 35 36 36 36 41 48 57 59 59 58 59 59 58
26 27 31 31 30 29 26 26 22 19 18 17 18 19 18 24 25 26 27 29 32 37 38 39 39 39 38 39 40 42 42 40 39 39 40 40 40 44 52 57 57 57 57 55
27 27 31 30 31 29 27 26 22 20 7 3 9 11 13 21 23 25 27 28 31 38 39 40 40 39 38 40 43 43 41 43 45 46 46 46 46 47 48 51 53 53 52 51
28 27 30 30 29 26 26 25 23 21 17 6 3 4 16 22 24 24 26 28 35 40 40 40 39 40 41 42 39 37 37 40 42 43 44 45 46 47 48 48 48 49 48 48
29 29 26 29 29 30 28 26 22 16 17 19 19 9 19 21 25 25 25 28 39 40 39 37 38 40 42 38 35 34 35 38 40 42 43 44 45 46 46 46 45 45 45 44
27 25 23 25 27 29 28 27 24 22 22 19 11 9 20 24 24 24 26 29 39 38 33 35 39 41 37 35 34 34 34 35 39 41 42 43 44 44 43 42 41 41 40 39
27 24 21 17 20 27 27 28 24 23 20 19 18 16 20 21 22 26 27 35 37 34 32 31 32 33 33 33 33 33 32 33 36 38 39 39 39 38 37 36 34 33 31 29
27 24 25 24 27 27 26 27 25 23 23 21 21 21 21 23 25 28 29 37 36 32 31 29 29 31 32 32 30 30 29 29 31 30 31 32 33 32 31 30 31 31 29 29
29 27 27 25 27 28 27 27 28 26 26 24 24 25 27 28 29 30 37 36 34 31 30 28 28 30 31 31 30 30 30 30 29 30 30 31 32 32 33 33 32 33 34 34
27 26 24 21 25 27 24 27 27 28 28 28 26 27 28 27 29 38 37 34 31 27 29 27 29 31 31 31 32 32 32 32 31 31 30 31 32 33 33 33 34 34 34 34
27 27 26 23 24 19 21 27 28 27 28 29 28 28 28 29 36 36 33 31 28 26 27 27 29 31 32 32 33 33 33 33 33 33 32 32 32 33 33 33 32 32 32 32
30 28 26 23 23 22 30 30 29 28 32 29 28 29 30 32 39 37 30 27 25 26 27 28 29 29 30 32 33 33 33 33 33 33 33 33 33 33 32 32 32 32 32 31
33 30 25 26 20 16 22 33 33 33 33 36 32 34 35 39 36 38 31 27 27 28 29 30 30 30 31 32 33 33 33 33 32 32 32 33 33 32 32 32 31 31 31 30
30 31 26 25 23 22 23 29 31 30 32 34 36 37 37 38 38 35 30 31 31 31 32 33 33 33 33 32 33 32 32 31 33 33 33 33 33 32 32 32 31 30 29 28
27 27 26 27 23 19 26 32 33 35 34 34 35 37 39 38 35 32 32 32 33 33 33 34 33 33 33 33 32 31 30 32 33 33 32 32 32 32 32 30 26 22 19 16
27 27 25 25 24 26 28 31 33 32 31 34 36 36 39 37 35 33 33 33 32 31 33 34 33 33 33 33 33 31 32 33 33 33 32 31 27 23 18 13 12 12 13 12
31 31 29 29 30 30 30 32 32 34 36 36 35 35 38 36 36 34 33 32 32 32 31 33 33 32 32 33 33 33 34 34 32 27 18 14 12 12 12 12 11 11 10 9
31 31 31 30 31 33 35 35 37 38 36 35 34 35 37 36 35 35 33 32 32 32 33 33 33 32 31 33 33 34 32 26 19 15 15 14 13 9 9 10 9 10 9 10
33 31 30 29 32 32 33 36 37 37 37 36 33 35 37 36 35 35 34 33 33 33 32 30 32 32 32 32 31 29 22 18 15 13 12 13 14 17 19 20 20 22 22 22

GFSCGP_sfc_30mbdewp_066.txt.gz
Dewpoint
40 38 36 38 35 28 25 29 27 29 30 34 32 31 31 31 32 30 29 28 29 30 31 33 34 35 37 37 37 37 38 47 57 64 64 64 63 63 64 65 64 62 61 60
37 35 36 39 37 32 30 29 27 31 32 29 29 29 30 30 30 29 29 29 28 29 29 28 28 29 31 34 36 38 37 39 45 56 63 63 63 64 64 64 64 64 63 62
33 36 39 38 38 34 31 26 26 27 28 28 27 26 27 24 23 24 24 26 27 28 27 28 28 27 30 32 34 35 37 38 40 48 55 60 61 63 63 64 64 64 63 63
35 39 38 36 38 36 33 32 31 28 28 25 26 17 23 20 24 26 29 31 31 32 31 31 33 32 32 33 34 34 35 36 38 43 51 56 58 58 60 61 63 63 63 63
32 35 35 33 37 38 36 31 30 29 28 26 25 22 19 20 23 27 30 33 35 35 34 34 35 36 37 39 38 36 33 34 36 38 46 54 56 56 58 60 61 61 63 63
36 41 38 36 38 37 36 29 27 27 26 24 23 22 15 16 20 26 30 33 36 37 37 36 38 39 40 41 40 40 36 34 34 37 40 49 53 56 57 58 59 60 61 62
33 34 38 38 33 36 34 33 26 24 23 19 22 22 17 21 22 27 31 34 37 39 39 39 38 38 40 42 42 40 38 36 36 37 37 39 48 54 56 57 58 59 60 60
29 26 34 36 32 30 31 28 22 14 16 14 23 17 16 21 22 27 30 31 36 39 40 40 41 40 39 41 42 43 43 40 38 38 38 38 42 45 53 57 57 58 58 60
29 28 35 37 33 30 28 29 23 21 20 17 15 20 20 23 24 26 28 31 37 40 40 41 41 41 39 41 43 43 41 43 44 45 44 41 41 42 45 51 55 57 58 59
29 28 32 30 32 29 29 26 23 25 15 11 11 13 16 23 25 27 29 30 34 40 40 40 39 41 42 43 42 40 40 41 43 45 45 45 47 47 48 49 49 51 53 55
29 28 30 31 30 27 26 26 24 22 19 11 4 4 17 23 26 25 27 29 35 39 40 38 39 40 43 40 39 38 38 39 42 43 45 46 47 47 48 48 49 49 50 50
30 29 27 29 30 30 28 26 23 22 20 21 20 10 19 25 24 25 25 29 36 40 37 39 42 42 39 37 37 36 37 37 40 43 45 46 46 46 47 47 46 47 48 48
28 27 24 25 27 29 28 27 24 24 25 22 16 11 21 22 23 25 26 29 37 37 36 37 38 37 36 36 35 35 34 36 39 41 43 43 42 42 42 42 42 41 42 41
28 26 24 19 21 28 28 28 26 26 23 21 20 17 20 22 23 26 30 33 37 35 34 35 34 35 34 33 32 32 32 33 35 36 38 38 37 36 36 34 32 30 29 28
28 25 26 26 27 27 28 28 27 25 25 21 20 20 20 22 25 30 32 37 37 34 33 32 32 33 33 32 31 31 31 31 33 33 35 34 34 33 32 32 32 32 31 31
30 28 28 26 27 28 28 28 28 27 26 24 24 24 25 27 28 29 37 37 35 32 32 30 31 32 32 32 32 32 31 31 32 32 33 33 33 34 34 34 35 35 35 35
28 28 26 24 26 27 25 27 27 28 28 26 25 26 27 27 28 32 38 36 33 30 31 29 31 32 32 33 33 32 32 32 32 31 32 32 33 33 34 34 34 33 33 33
28 27 27 24 24 19 23 27 29 27 27 29 28 28 28 29 30 36 35 35 31 29 29 29 30 32 32 33 34 34 33 33 32 32 32 33 33 33 33 33 32 32 32 32
30 28 26 23 22 22 30 29 28 29 34 30 28 29 30 31 38 38 33 30 28 28 29 29 30 31 32 33 33 34 33 33 33 33 33 33 33 33 33 32 32 32 32 32
31 29 25 27 21 17 26 34 34 32 33 36 31 32 35 38 36 39 32 27 27 28 29 30 30 31 31 32 34 34 33 33 33 33 34 34 33 33 32 32 31 32 32 31
28 29 25 24 23 21 24 27 30 29 33 36 35 35 37 37 37 36 30 30 30 30 31 32 32 31 32 33 33 33 33 32 33 34 34 33 33 32 32 31 31 31 31 29
26 25 25 25 22 20 26 34 31 35 35 33 35 36 37 39 34 32 32 32 31 32 32 33 32 32 33 33 34 32 31 33 33 33 33 33 33 33 32 29 26 23 21 18
26 26 23 24 24 27 28 32 33 33 33 34 36 37 38 38 35 33 33 33 32 32 32 33 31 32 33 33 34 32 33 34 34 34 33 32 30 21 14 12 12 12 12 10
31 32 28 29 29 29 29 32 34 34 36 36 36 35 38 38 37 34 33 33 32 32 32 33 32 32 32 34 35 34 35 34 32 28 24 17 12 12 12 12 11 10 8 5
30 32 31 30 31 32 34 35 37 38 38 37 35 34 37 38 36 35 34 33 32 32 32 33 33 32 33 34 34 34 34 31 26 17 14 14 12 8 7 8 6 6 9 9
32 29 28 25 29 32 32 35 37 37 38 38 36 34 38 37 37 35 34 33 33 33 33 33 33 33 33 34 33 33 28 25 15 12 12 12 12 14 16 18 19 23 22 23

GFSCGP_sfc_30mbdewp_069.txt.gz
Dewpoint
43 36 33 36 34 32 24 25 23 24 31 30 28 26 28 28 31 30 28 27 26 27 28 29 31 33 34 35 36 38 39 41 52 57 64 65 64 65 65 63 62 61 60 59
36 32 37 39 34 33 27 22 22 25 28 30 27 26 27 29 29 30 28 26 24 25 26 29 31 31 32 34 36 37 37 38 40 50 61 63 63 63 64 65 65 64 62 62
30 33 35 39 37 34 35 25 23 24 29 30 26 25 26 28 29 28 28 28 28 28 28 27 28 29 30 31 33 35 37 38 38 40 48 61 61 62 64 64 64 63 64 64
29 38 33 36 37 38 30 27 24 25 27 20 26 12 20 24 24 23 25 27 29 30 30 31 33 33 34 34 35 35 36 37 38 40 41 46 56 58 60 61 62 62 63 63
34 36 37 35 36 38 35 33 28 28 26 26 26 22 21 21 23 24 28 31 32 33 33 34 36 37 38 41 40 38 35 35 35 37 39 43 49 54 56 56 58 60 63 63
37 39 37 37 38 39 32 31 30 30 29 27 23 21 18 20 22 26 29 31 34 35 35 35 38 39 41 42 41 40 37 34 34 36 37 40 46 51 55 55 56 57 59 62
33 34 37 37 33 37 35 33 27 26 26 20 23 22 17 19 23 26 29 32 36 37 38 38 38 38 41 42 43 42 40 37 37 37 36 38 42 48 52 54 55 56 58 60
29 26 32 37 35 32 35 34 30 20 19 18 21 20 19 21 23 29 32 34 37 38 39 40 41 41 40 42 43 44 43 43 42 40 39 38 39 40 43 50 54 55 56 57
30 28 36 37 36 36 33 31 26 21 19 16 15 17 21 22 23 28 29 32 37 39 40 41 41 41 41 42 43 42 41 42 43 44 44 43 41 41 42 45 49 53 55 56
29 27 34 36 36 32 33 30 25 28 15 12 12 13 15 19 23 26 29 31 35 39 40 39 39 40 42 42 41 40 40 41 43 44 45 45 46 47 47 48 48 49 50 51
30 28 31 32 34 31 28 27 25 24 21 14 6 6 19 21 24 27 29 30 34 38 39 39 40 42 41 40 39 38 39 40 41 43 45 46 46 47 47 48 48 48 48 49
30 29 27 29 30 30 28 26 24 24 23 22 22 13 21 24 26 25 28 30 35 39 38 40 42 40 39 38 38 37 37 38 40 42 44 44 44 45 45 44 45 45 46 46
28 28 25 25 27 29 28 27 25 24 28 24 16 14 22 25 24 24 25 30 35 39 37 38 38 37 37 36 35 34 34 36 38 40 41 40 40 39 38 37 36 37 37 36
27 26 27 21 24 28 28 27 26 28 24 21 20 15 20 23 23 24 29 32 36 38 36 36 36 36 36 34 33 33 33 34 35 38 38 37 36 36 35 34 33 32 31 30
27 26 27 25 26 27 28 28 27 26 25 22 19 18 19 22 23 26 32 36 38 37 35 34 35 35 34 33 33 33 33 34 34 35 36 36 35 35 35 34 34 33 33 32
29 28 28 26 26 27 27 27 28 27 25 24 23 22 23 23 28 30 33 38 38 36 34 32 33 33 33 33 33 33 33 33 33 34 34 35 35 35 35 35 35 35 36 36
27 27 27 24 26 26 25 26 27 27 27 25 24 24 27 27 28 30 35 38 37 33 33 32 33 33 33 34 33 33 33 33 33 32 33 34 34 34 34 34 34 34 34 34
27 26 26 23 24 20 24 27 28 27 27 27 27 27 27 29 30 33 36 37 34 32 31 31 32 33 33 34 35 34 34 33 33 33 33 34 34 34 34 34 33 33 33 32
28 26 25 23 21 21 29 29 27 28 31 29 28 28 30 33 37 37 36 35 32 30 30 31 32 33 34 34 34 34 34 34 34 33 33 34 34 34 33 32 33 33 32 32
29 28 25 26 22 17 29 34 33 33 33 34 31 32 34 38 35 39 34 30 28 30 31 31 31 32 32 33 34 34 34 34 34 34 34 34 34 32 32 32 32 33 33 32
26 27 24 23 22 22 26 28 30 30 33 35 33 34 35 36 37 37 31 29 30 31 31 31 31 31 32 33 34 34 34 33 34 35 34 34 34 32 32 32 33 33 32 30
24 23 23 23 21 20 33 33 28 36 35 35 35 36 37 39 36 33 32 32 31 31 32 32 32 32 33 33 34 33 32 33 34 34 34 33 34 33 33 32 29 25 23 19
24 25 23 23 24 29 28 32 31 32 34 36 37 37 37 38 35 34 33 33 33 33 32 33 32 32 33 32 34 32 33 34 34 34 34 33 31 24 16 15 14 12 11 9
28 31 26 28 27 27 28 31 36 34 36 37 37 36 36 37 38 35 34 34 33 32 32 32 31 32 32 32 34 35 35 35 33 32 29 20 12 12 13 13 11 9 7 5
29 31 28 28 29 31 31 33 37 36 38 37 37 36 35 37 38 35 35 34 33 33 32 32 32 32 32 33 34 35 34 32 29 21 14 13 13 10 8 8 10 7 15 16
29 28 28 25 29 29 33 36 36 37 37 37 38 37 36 38 38 36 35 34 33 32 32 33 33 32 33 35 34 34 33 30 20 13 14 12 11 12 16 18 21 24 23 23

GFSCGP_sfc_30mbdewp_072.txt.gz
Dewpoint
42 38 35 36 34 35 35 31 27 28 28 33 32 33 32 29 30 30 30 28 27 28 29 30 30 30 33 36 39 40 41 47 60 64 65 64 64 65 65 65 62 61 59 58
36 34 37 34 35 35 34 29 28 27 30 31 30 30 30 30 29 31 31 29 28 27 27 27 31 32 33 34 36 38 38 41 43 52 64 64 64 64 64 65 65 65 63 60
33 34 36 37 34 33 32 31 31 25 30 30 27 25 28 28 28 29 30 30 29 28 29 29 29 31 32 32 34 37 38 38 40 41 50 64 63 63 63 63 64 64 64 64
36 35 36 36 35 34 31 33 33 27 27 25 28 20 24 27 28 30 28 26 26 29 30 32 34 34 36 39 38 37 37 37 38 41 41 53 62 61 63 63 64 63 63 64
34 35 36 36 36 38 35 39 32 32 27 25 26 22 22 26 25 26 24 27 31 32 32 35 36 38 41 42 42 40 37 36 36 36 38 40 43 50 59 61 62 62 63 63
37 39 37 37 38 38 39 36 36 33 28 26 25 23 20 22 23 23 27 32 33 33 35 38 39 42 43 44 43 41 38 36 35 35 37 38 40 43 50 56 56 56 58 62
33 34 38 38 36 38 35 32 27 26 25 23 25 24 22 22 24 26 30 33 36 37 37 38 39 40 42 43 45 44 43 41 40 39 37 37 39 43 47 51 55 56 57 58
27 25 33 37 35 33 33 34 29 21 21 20 22 22 19 23 26 29 31 36 37 39 40 41 42 41 41 43 44 42 42 43 44 45 44 42 39 42 43 45 48 54 55 57
29 27 35 37 38 37 33 32 34 24 19 19 20 20 21 21 29 31 32 35 38 40 41 40 41 42 43 43 42 41 41 43 44 44 45 45 47 47 48 47 46 49 53 54
30 27 35 36 38 37 36 34 28 28 18 15 15 17 17 20 26 29 30 33 38 40 40 39 40 41 42 41 40 40 40 41 42 44 46 46 46 47 48 48 48 48 49 50
30 30 32 36 34 32 33 32 27 26 22 18 11 13 20 21 24 27 29 32 36 39 39 40 41 42 40 39 39 38 39 40 42 43 45 46 46 46 47 46 46 47 47 47
31 30 29 30 30 30 29 30 27 24 23 22 22 15 21 22 26 29 30 31 37 39 39 41 42 39 38 38 37 36 37 38 40 42 42 41 41 39 37 36 38 39 39 37
29 28 25 25 28 29 28 28 26 26 27 24 21 16 24 26 25 26 28 31 37 39 38 40 38 37 36 35 34 34 34 35 38 39 39 38 37 36 35 34 33 32 31 30
29 27 28 22 26 29 27 28 27 26 21 24 20 18 24 24 25 24 27 31 37 38 37 37 37 36 35 34 34 33 34 35 37 37 37 36 35 34 34 34 33 33 32 32
30 25 26 25 26 27 30 29 28 25 25 21 22 19 21 24 25 24 32 34 37 37 36 36 36 35 35 33 33 34 34 34 35 36 36 35 36 35 35 35 35 35 35 35
29 27 28 24 26 26 26 27 28 28 27 25 23 22 21 23 24 30 32 37 39 37 35 34 35 34 33 34 33 34 33 33 34 34 35 35 35 35 35 35 34 34 36 36
27 27 27 25 26 26 24 26 27 28 28 26 23 25 27 27 28 30 34 38 38 36 34 33 33 33 34 34 34 33 33 33 33 33 34 34 34 34 34 34 34 34 32 33
27 26 27 25 24 20 25 27 28 28 28 27 27 26 27 28 31 32 35 37 37 34 33 32 33 33 34 34 34 34 34 33 33 34 34 34 34 34 34 33 33 32 32 31
28 26 25 23 21 22 28 28 27 27 28 28 27 28 28 34 36 35 36 36 34 32 32 32 33 33 34 34 34 34 34 34 33 33 35 34 35 34 33 32 32 32 31 30
29 28 25 25 22 19 31 31 31 30 32 30 29 29 34 37 35 38 32 30 30 30 31 32 32 33 33 34 34 34 34 34 34 34 34 33 33 33 32 32 31 32 33 31
26 25 24 24 23 23 33 33 31 30 33 34 34 34 35 36 38 36 31 30 30 32 31 31 31 32 33 34 34 34 34 33 35 35 33 33 33 33 33 31 33 32 30 29
24 23 22 23 22 20 31 30 29 36 36 36 37 37 37 37 35 32 31 31 32 31 32 32 32 33 34 34 35 33 32 34 35 34 34 33 33 33 32 31 29 27 25 21
25 25 24 23 23 29 33 31 31 32 35 36 37 37 37 38 36 34 33 33 32 32 32 33 33 33 33 33 35 33 33 34 34 34 34 33 33 32 32 23 19 16 13 11
28 29 27 27 28 29 30 34 35 35 36 37 37 36 37 38 37 35 34 33 33 33 32 33 32 32 31 33 34 34 35 35 34 33 33 30 18 13 13 13 12 10 8 6
30 30 29 27 28 30 31 32 37 37 38 38 38 37 36 37 38 36 35 34 34 33 32 32 32 32 31 33 34 35 35 34 33 30 19 13 14 13 13 22 13 14 21 18
29 29 29 27 30 30 35 36 37 37 37 37 37 37 36 37 38 36 35 35 34 33 33 32 32 32 31 33 34 35 34 32 25 15 14 13 11 9 17 21 23 25 24 23

GFSCGP_sfc_30mbdewp_075.txt.gz
Dewpoint
40 36 35 35 33 32 33 33 32 33 33 34 33 33 33 31 29 30 31 31 29 29 29 28 31 33 34 34 41 52 57 64 64 64 64 63 63 64 65 64 62 59 58 58
33 33 37 37 33 34 34 31 30 29 32 34 33 32 33 32 31 30 30 30 30 28 29 29 31 32 33 34 36 38 39 45 62 64 65 64 64 64 64 64 65 65 64 60
30 35 40 36 34 33 35 33 31 29 30 31 30 30 31 32 32 31 30 31 30 29 29 29 32 33 33 34 36 36 37 39 39 48 64 64 64 63 63 63 63 64 64 65
31 33 36 35 34 34 33 34 33 33 30 30 28 23 25 28 30 29 30 30 29 28 30 34 35 36 37 40 40 38 37 36 37 37 44 63 62 62 61 62 63 63 63 63
29 34 36 36 34 35 33 38 36 35 34 27 27 23 21 24 27 28 29 28 27 30 33 35 37 39 41 42 41 41 37 35 35 36 37 40 49 55 60 62 63 63 63 63
36 38 37 37 38 37 37 36 36 35 34 27 26 24 17 23 26 27 26 27 32 34 36 37 40 42 44 44 44 44 37 38 38 36 36 37 38 40 42 50 58 61 62 62
35 34 38 39 36 37 36 33 27 26 26 23 26 24 18 23 25 25 27 32 33 34 37 38 41 42 43 44 43 43 44 44 44 44 43 40 38 39 42 46 51 55 57 57
28 26 35 38 35 33 34 33 28 20 21 21 24 23 23 22 24 29 32 35 36 37 38 41 41 42 43 43 42 41 43 44 44 45 45 46 46 45 46 46 48 52 55 58
27 27 36 38 38 36 34 31 35 27 23 19 22 21 20 26 30 32 35 36 38 40 41 41 42 43 43 41 40 40 42 42 44 45 46 46 46 47 48 49 49 49 51 53
31 27 35 36 38 37 36 35 29 29 21 19 19 19 19 23 30 33 35 36 39 40 40 40 41 42 40 39 39 39 41 42 43 45 46 46 47 47 47 47 47 47 48 49
32 30 32 35 33 31 33 32 32 30 29 19 14 15 20 21 30 31 32 37 39 40 39 40 42 40 39 38 37 38 39 41 42 44 42 41 39 38 39 39 41 41 40 41
31 31 29 31 36 35 35 34 30 25 26 21 22 17 21 22 29 29 31 35 39 39 40 42 40 39 38 36 35 36 37 38 40 40 38 37 36 35 33 32 32 32 31 32
30 27 25 27 29 30 28 32 32 27 28 22 18 17 24 26 28 29 31 37 39 38 41 40 38 37 36 35 34 34 35 37 38 37 36 35 34 34 33 33 32 32 31 31
30 28 24 19 24 27 26 28 27 24 18 24 20 21 25 26 26 27 30 34 39 38 39 39 37 36 35 34 34 34 34 36 37 36 35 35 34 34 34 34 33 33 33 33
29 24 26 26 27 29 28 28 27 24 24 20 22 21 24 25 24 24 27 32 38 37 37 37 36 35 34 34 34 34 34 36 36 36 36 35 35 35 35 35 36 36 36 36
29 27 26 24 26 26 26 28 29 26 25 25 25 23 22 25 25 25 29 34 37 37 36 36 36 35 33 33 33 33 33 34 35 35 35 35 35 35 35 34 35 35 35 35
28 26 25 24 26 26 23 26 28 29 28 26 22 23 26 24 25 30 34 37 38 37 35 35 34 33 34 33 34 33 33 33 34 34 34 34 35 34 34 34 33 33 33 33
27 27 27 24 24 17 23 28 29 28 29 28 27 26 26 29 31 33 36 38 39 37 35 33 34 34 34 34 33 33 34 34 34 34 34 35 35 34 34 33 32 32 32 31
30 27 25 22 22 22 27 28 27 27 27 29 28 28 29 34 35 35 36 36 37 34 33 33 34 34 35 35 34 34 33 33 34 34 34 35 35 33 33 32 32 31 31 30
29 28 25 23 21 19 30 29 30 31 30 31 29 28 30 36 31 36 33 32 32 32 32 33 34 34 34 34 34 34 34 34 34 34 34 34 34 33 32 32 32 32 31 31
25 25 23 23 23 23 33 33 32 29 30 33 32 33 36 35 36 37 31 30 31 32 32 32 33 33 34 35 35 34 34 34 35 34 33 34 34 33 33 32 32 30 30 28
23 23 23 21 21 19 31 30 28 34 36 36 37 37 37 37 34 32 31 31 32 31 32 32 32 33 34 35 35 34 33 34 34 34 33 33 33 33 32 31 30 29 25 22
24 24 22 23 22 28 33 32 33 37 36 36 36 37 38 37 35 33 32 32 32 32 32 33 33 33 34 35 35 33 33 34 34 33 33 33 33 32 31 28 25 22 18 14
28 29 26 26 28 28 32 34 35 34 36 37 37 36 37 38 37 34 34 33 32 32 32 33 33 32 32 33 34 34 35 35 34 33 33 32 32 31 29 20 17 12 10 8
29 30 28 28 28 29 30 36 37 37 38 38 38 37 36 37 38 36 35 34 33 33 33 33 32 31 31 32 34 35 35 35 33 33 32 29 22 16 16 16 10 13 19 11
30 29 29 28 30 32 35 36 37 36 36 36 36 36 37 36 38 37 35 35 34 33 32 32 32 32 32 33 34 35 35 34 33 30 21 14 14 13 20 21 23 24 24 24

GFSCGP_sfc_30mbdewp_078.txt.gz
Dewpoint
38 35 33 36 35 32 33 33 32 34 34 35 34 32 33 33 31 29 30 31 32 32 30 30 30 35 40 47 60 63 64 64 64 63 63 63 63 64 65 61 59 58 57 58
33 31 37 37 35 34 32 32 32 32 34 35 34 33 33 33 32 30 30 31 31 30 28 30 31 32 34 36 42 51 55 61 64 64 64 63 63 63 64 64 64 62 59 58
29 29 36 39 34 33 34 31 31 29 30 33 33 32 33 34 34 33 31 31 31 30 28 30 32 33 34 35 36 37 38 39 51 62 64 64 63 63 63 63 64 64 64 63
30 31 35 35 34 33 33 36 33 33 30 28 30 26 29 32 33 33 32 31 31 29 29 32 33 35 37 39 39 38 37 37 37 39 54 64 63 62 62 62 63 63 63 64
24 30 34 33 34 34 33 36 34 35 34 28 28 26 26 24 30 31 33 31 31 28 32 34 36 39 41 41 41 40 36 35 35 36 38 55 61 61 60 61 62 61 62 63
31 38 38 36 39 36 38 36 36 36 35 27 28 28 24 22 23 27 31 31 29 30 35 37 40 42 43 44 44 40 42 44 43 38 37 37 38 41 43 45 54 60 62 62
31 35 39 40 36 37 36 34 26 25 26 23 27 26 25 22 24 25 28 29 32 35 37 40 42 43 44 43 42 44 44 44 45 45 45 41 39 39 41 44 48 53 56 58
28 26 35 38 36 35 34 30 23 18 21 22 26 24 24 23 24 25 28 31 34 36 38 40 42 43 44 42 41 43 43 43 45 45 46 46 47 47 47 47 50 53 56 57
27 27 36 38 38 35 34 31 34 26 23 20 23 24 22 28 28 30 32 34 35 37 39 41 41 43 42 41 40 41 42 43 45 46 46 46 47 48 48 48 49 50 51 52
29 27 35 37 37 37 35 35 29 30 22 18 19 20 21 26 29 32 34 36 39 40 41 41 42 41 40 39 39 41 42 42 44 45 44 45 45 45 45 45 45 45 46 49
31 28 31 34 33 33 33 32 33 30 28 20 16 17 20 24 30 33 36 38 40 40 40 41 41 40 39 38 38 39 40 42 42 41 39 37 36 35 35 36 36 36 37 41
32 30 27 29 34 34 34 32 31 25 26 25 20 17 21 22 30 34 36 39 40 40 40 41 40 38 37 36 36 37 38 40 39 38 36 35 34 33 33 32 31 32 32 32
30 29 26 27 32 35 33 35 33 29 26 24 21 19 25 26 30 32 34 39 39 39 41 40 39 37 36 34 34 35 37 38 37 36 35 34 34 33 33 33 33 33 33 33
31 28 23 20 23 28 28 31 34 28 22 21 21 18 23 27 29 30 33 38 39 39 41 39 38 36 35 34 34 34 36 37 36 35 35 35 34 34 34 34 34 34 34 34
26 24 25 26 29 28 27 28 29 28 24 21 21 20 23 26 28 30 33 38 38 38 40 39 37 35 34 34 33 34 35 37 36 36 35 35 35 35 35 36 36 36 36 36
30 26 25 24 26 26 25 28 28 26 24 25 25 23 25 27 26 27 29 33 37 38 38 38 37 35 34 33 33 34 35 36 36 36 35 35 35 35 35 35 35 35 35 35
28 27 22 20 26 26 21 25 28 28 28 26 22 23 25 26 25 25 26 30 35 38 37 36 36 35 34 33 34 33 33 35 35 35 35 35 35 34 34 34 34 33 33 34
28 27 26 24 24 16 18 28 28 28 29 28 26 26 26 26 27 29 33 32 36 38 36 36 35 34 34 34 33 33 34 34 34 34 34 35 35 34 33 33 32 32 32 33
29 27 24 22 21 20 25 27 28 28 27 29 28 28 30 32 33 33 36 37 39 39 36 35 34 34 34 33 33 34 34 34 34 34 35 35 35 33 33 32 31 32 31 31
29 28 25 24 20 16 27 30 30 31 28 32 29 28 32 35 29 29 34 34 35 34 34 34 34 34 34 34 34 33 33 34 34 34 35 35 34 33 32 32 32 32 31 29
24 25 24 23 22 23 27 33 33 28 26 32 30 29 33 33 33 37 32 31 32 33 33 34 34 34 34 35 35 34 34 34 35 34 35 34 34 33 32 32 32 30 29 29
22 22 23 22 20 17 32 31 30 33 36 36 36 36 36 37 35 34 32 31 32 32 33 33 33 34 35 35 35 34 34 35 34 34 34 33 33 33 32 31 30 29 27 25
23 23 22 23 21 25 31 31 33 37 36 37 37 37 38 36 35 33 32 32 32 32 32 32 33 34 35 35 35 34 34 34 34 33 33 33 33 31 31 29 27 25 21 19
27 29 26 26 26 28 32 33 34 34 36 37 37 36 38 37 37 35 34 32 32 32 32 33 33 33 33 35 35 35 35 34 34 32 32 33 32 31 30 27 24 19 16 12
27 29 28 27 28 29 30 34 36 37 37 37 38 37 36 37 38 36 35 34 33 33 33 33 33 32 32 33 34 35 35 35 34 33 33 32 31 30 27 20 16 12 11 10
30 29 28 27 29 29 33 36 37 37 36 36 36 36 37 37 36 38 36 35 34 33 33 33 33 32 32 32 34 35 35 35 34 33 32 30 27 20 18 15 18 23 25 23

GFSCGP_sfc_30mbdewp_081.txt.gz
Dewpoint
38 34 32 35 36 31 33 31 32 34 35 35 34 33 33 32 33 34 34 37 33 32 33 31 31 38 52 59 61 62 63 64 64 63 63 63 63 64 63 59 59 58 59 59
33 30 35 37 36 33 33 31 31 33 35 34 34 34 34 34 33 32 30 33 32 32 31 30 30 31 36 40 56 61 62 63 63 63 63 63 63 63 64 64 62 59 58 58
27 29 36 38 35 33 33 30 31 29 32 34 33 32 34 34 34 34 32 31 31 31 30 30 32 32 34 35 38 47 54 57 63 64 64 63 63 62 62 63 63 64 62 60
27 31 35 34 34 35 31 33 32 32 29 27 32 26 28 32 33 34 34 34 32 31 29 31 33 35 36 38 38 37 37 38 40 51 63 63 63 62 62 62 63 63 64 64
25 28 33 32 35 35 34 36 34 34 30 29 28 27 27 25 29 31 33 34 33 32 30 31 34 37 40 40 40 38 36 36 36 36 42 58 62 62 61 61 61 61 62 63
31 35 35 36 38 36 38 36 36 35 33 26 28 28 27 25 25 28 31 33 33 31 31 34 39 42 43 43 40 43 43 44 42 38 37 40 52 57 56 55 56 57 60 61
30 33 38 39 33 38 36 32 26 24 25 23 27 27 27 27 24 24 25 28 32 31 34 37 41 43 43 42 43 44 44 44 45 45 44 41 39 39 40 42 44 47 53 57
26 25 34 37 35 35 33 30 23 17 20 24 26 25 26 27 27 27 25 27 31 34 37 41 42 43 42 42 43 43 43 44 45 45 46 47 47 46 46 46 49 52 55 56
28 27 36 38 38 36 34 29 31 25 22 20 23 25 24 25 25 27 27 32 34 36 39 41 42 43 41 41 41 42 43 44 45 46 46 46 47 47 47 48 49 50 51 52
30 27 35 36 37 37 34 35 28 30 20 17 19 20 21 22 24 30 31 32 35 38 40 41 42 41 40 40 41 42 42 44 44 43 44 43 43 43 44 44 44 44 46 48
31 29 31 35 34 32 33 32 32 29 28 20 18 16 21 21 25 28 33 36 38 40 41 41 41 40 39 39 39 40 41 42 40 39 37 36 35 35 35 35 35 36 38 40
32 31 28 31 35 35 34 32 32 25 25 25 18 19 23 22 24 33 36 38 40 40 41 41 40 38 37 37 37 38 40 40 38 36 35 34 34 33 33 32 32 32 33 33
32 28 26 27 31 34 33 32 31 28 26 25 21 19 24 26 28 35 37 39 40 40 41 40 39 37 36 35 35 37 39 38 36 36 35 34 33 33 33 33 33 33 34 34
31 28 23 20 22 31 30 33 32 30 25 24 22 24 22 25 29 34 37 39 39 40 40 40 38 37 35 34 34 35 37 37 36 35 35 34 34 34 35 35 35 35 35 35
27 26 25 26 29 29 29 29 33 31 29 24 24 22 21 24 29 32 36 39 39 39 40 39 38 37 35 34 34 35 37 36 36 35 35 35 35 36 35 35 35 35 35 35
29 25 25 24 27 27 26 28 31 32 31 28 25 24 25 26 29 30 33 38 38 39 40 39 38 36 34 34 33 35 36 36 36 36 35 36 35 35 35 35 35 35 35 35
27 27 22 16 25 25 20 24 28 29 29 28 26 26 25 26 27 29 31 36 38 38 38 39 38 36 35 34 34 34 35 36 36 35 35 35 35 35 34 34 34 34 34 35
27 25 25 24 23 12 15 28 28 28 29 28 27 26 26 26 27 27 29 31 34 37 38 38 38 36 35 34 34 33 35 35 35 35 35 35 35 34 34 33 33 33 34 34
29 28 24 22 21 20 22 27 27 27 25 29 28 27 29 31 31 30 35 36 32 36 37 37 36 35 34 34 33 33 34 34 34 34 35 35 35 34 33 32 32 32 33 32
28 28 25 24 19 13 25 30 30 30 24 32 30 29 30 33 26 29 35 35 37 37 36 36 35 35 34 34 34 33 34 34 34 34 35 35 35 33 32 32 32 32 31 30
26 26 24 23 22 22 25 32 32 26 25 32 31 30 31 33 31 34 34 33 34 34 34 34 34 34 34 34 34 33 33 34 35 35 35 35 34 33 33 32 32 30 29 27
23 23 23 23 21 18 30 31 28 31 36 36 33 32 33 36 36 34 33 32 32 33 34 34 34 34 35 35 34 34 34 35 35 35 34 34 34 33 33 31 29 29 28 25
23 23 23 22 21 23 29 31 32 37 36 37 37 38 37 36 35 34 33 32 32 33 33 34 34 34 35 35 35 34 35 35 34 34 33 33 33 32 32 29 28 27 26 24
27 28 25 26 26 27 29 33 35 35 37 37 36 38 38 37 37 35 34 33 32 32 32 33 33 33 34 35 35 35 35 34 34 33 33 33 31 31 30 29 27 24 21 18
27 29 27 27 28 29 30 33 35 36 37 37 37 37 36 37 38 37 35 34 33 32 32 32 32 32 33 34 35 36 35 34 33 32 32 33 32 31 29 27 25 21 18 15
29 29 27 27 29 29 29 33 37 37 37 36 36 36 36 37 37 38 37 36 34 33 33 33 33 32 32 33 34 34 35 35 34 33 32 32 31 30 28 23 16 20 18 21

GFSCGP_sfc_30mbdewp_084.txt.gz
Dewpoint
33 32 29 33 37 30 30 32 31 32 35 36 34 34 33 39 43 43 45 46 45 37 35 34 33 38 58 60 62 63 63 64 64 63 62 62 62 63 61 60 61 61 62 61
30 28 31 35 37 35 28 31 32 34 35 35 34 34 34 33 36 37 42 42 41 37 36 34 31 30 36 54 59 61 62 63 64 63 63 62 62 63 63 63 60 60 59 60
26 29 35 36 35 35 29 29 30 30 34 34 33 33 34 35 34 34 34 37 38 37 36 33 31 31 32 38 47 56 61 63 63 63 63 63 62 62 62 63 63 62 60 59
30 35 34 33 32 35 30 30 30 30 30 29 32 25 29 34 34 34 34 32 33 36 33 31 31 33 34 36 37 40 43 49 52 62 63 62 62 61 61 61 62 63 63 62
28 30 32 31 32 36 33 33 32 31 29 28 28 27 27 27 31 33 34 34 34 33 31 30 32 35 38 39 38 37 36 37 36 38 51 61 62 62 61 61 61 61 62 63
31 35 32 34 35 38 38 35 35 34 30 24 27 27 25 26 26 27 30 32 34 34 33 31 35 40 42 41 40 41 41 42 41 38 37 38 47 56 58 59 58 59 59 60
30 32 36 37 32 38 38 32 27 25 24 20 26 27 27 28 25 25 26 28 33 34 32 32 37 41 42 41 43 43 43 44 45 44 43 42 39 39 42 46 47 47 50 55
25 24 33 37 34 34 35 29 21 17 19 22 27 25 25 28 29 30 28 26 27 32 33 35 40 42 42 43 43 43 44 44 45 45 46 47 47 46 46 47 48 51 53 54
26 27 36 36 37 37 33 30 27 23 20 21 23 24 25 26 26 26 27 28 28 31 35 39 42 42 41 42 42 43 44 45 45 45 46 46 46 46 47 47 48 49 50 52
31 27 34 35 38 37 35 34 27 27 18 15 18 19 19 21 22 25 28 29 33 36 40 42 43 41 40 41 42 42 43 43 43 43 42 41 41 42 42 41 42 43 45 47
34 30 31 33 32 32 32 31 31 28 26 19 17 16 21 22 21 21 28 32 35 38 40 42 41 40 39 40 41 42 43 41 40 38 37 36 35 35 35 35 35 36 37 38
34 32 27 31 36 36 34 31 30 23 24 23 18 20 22 23 23 25 31 35 38 39 41 41 40 39 38 39 39 41 41 39 38 36 35 34 34 33 33 33 33 33 34 34
32 29 26 27 30 34 33 32 31 26 27 25 22 20 23 26 25 30 34 37 39 40 41 40 39 37 37 37 37 39 39 37 36 36 35 34 34 33 33 33 34 34 35 35
32 28 24 21 22 29 29 31 31 28 25 23 23 24 25 25 25 30 36 38 39 40 41 39 38 37 36 35 36 38 38 37 36 35 35 34 34 34 35 35 35 35 35 35
29 27 26 26 27 31 30 29 31 29 27 23 24 24 25 25 23 28 36 39 39 39 40 39 38 37 35 35 35 37 37 36 36 35 35 35 35 35 35 35 35 35 35 35
29 25 25 24 28 28 27 29 31 30 29 29 27 25 26 26 28 30 35 39 39 39 40 40 39 37 35 34 34 36 36 36 36 35 35 35 35 35 35 35 35 35 35 34
27 26 23 18 25 24 18 23 29 31 32 31 28 28 29 27 26 29 33 38 39 39 40 40 39 38 36 34 34 35 36 36 36 36 36 35 35 35 35 34 35 35 35 35
26 24 24 23 23 12 16 28 28 29 30 31 30 28 27 26 27 27 31 34 38 39 39 40 40 38 36 35 34 35 36 36 35 35 35 35 35 34 34 34 34 34 34 34
28 27 24 21 21 19 22 27 27 26 24 29 29 30 28 31 30 28 29 31 35 37 39 39 39 38 36 34 34 34 35 35 35 34 35 35 35 34 34 33 33 33 33 33
28 28 24 23 19 13 23 31 30 29 24 31 31 30 29 32 26 27 35 36 37 38 37 37 37 36 35 34 34 33 34 34 34 34 35 35 35 34 33 33 32 32 32 30
26 26 24 22 21 22 24 28 32 26 25 33 31 31 30 31 30 33 34 33 34 35 35 35 35 35 34 34 34 33 34 34 34 35 35 35 35 34 33 32 32 31 29 26
24 23 23 24 23 18 25 31 28 30 36 36 34 31 31 35 36 34 33 33 33 34 35 35 35 34 34 34 34 33 33 35 35 35 35 34 34 34 33 32 30 29 27 25
22 23 22 23 23 24 26 32 32 35 36 37 37 37 36 36 35 34 34 33 33 33 34 34 34 34 35 34 34 33 34 35 35 35 34 34 33 33 32 30 29 28 26 24
27 27 25 25 26 27 28 32 34 35 37 36 37 38 37 37 36 35 34 33 33 33 33 34 34 34 34 35 35 35 35 35 34 34 33 33 32 32 31 30 28 27 25 23
27 29 27 27 28 28 29 32 35 36 37 36 37 37 37 38 38 37 38 36 34 33 32 33 33 33 33 34 34 35 35 34 34 33 33 32 32 31 30 29 28 26 24 21
29 28 27 25 29 28 29 32 37 37 37 37 36 36 36 36 37 37 37 37 35 34 33 32 33 33 33 33 34 35 35 34 33 33 32 32 32 31 30 28 25 27 23 22

GFSCGP_sfc_30mbdewp_087.txt.gz
Dewpoint
33 30 30 33 34 33 30 32 31 33 37 36 33 34 34 39 43 41 42 45 44 43 44 40 36 42 59 61 63 64 64 64 64 63 63 63 63 63 63 63 63 63 64 63
29 27 33 34 35 36 30 30 31 33 35 37 34 33 35 35 42 42 42 44 43 42 42 40 36 32 34 56 60 62 63 64 64 64 63 63 63 63 64 63 62 62 62 63
26 30 31 35 33 32 31 31 31 30 34 33 34 33 34 35 35 40 41 44 42 40 40 40 37 35 32 34 51 60 62 63 64 64 63 63 63 62 63 63 63 62 60 60
30 35 31 34 33 33 28 32 31 33 32 28 32 25 30 34 34 34 37 37 41 40 39 35 33 33 33 34 37 44 56 61 63 63 63 63 62 61 62 62 63 63 62 61
28 33 33 30 32 33 34 30 30 31 30 28 30 28 27 29 33 34 35 34 34 37 37 37 34 33 35 38 38 39 41 44 45 56 62 63 62 62 62 62 62 62 63 63
29 34 33 33 35 34 35 33 32 32 28 25 27 28 25 26 27 32 34 35 35 34 34 34 33 37 39 40 39 39 40 41 39 39 41 53 59 60 60 60 60 60 61 61
30 30 36 35 30 33 32 30 25 22 22 20 25 28 26 28 28 27 28 32 34 35 35 34 34 38 40 40 41 43 43 43 44 43 42 41 39 40 44 48 50 51 51 54
24 21 30 36 32 31 33 28 20 16 18 21 27 25 23 28 29 28 28 27 28 34 35 34 36 39 40 41 43 43 44 44 45 45 46 47 47 46 46 47 48 50 52 54
27 26 33 35 35 34 33 28 25 22 20 21 23 24 24 26 27 27 27 27 28 28 31 34 38 41 41 43 43 44 44 45 45 46 46 45 46 46 47 47 49 49 50 51
31 26 33 35 36 37 35 34 26 24 18 15 19 20 17 21 22 23 24 28 29 33 34 39 42 41 42 42 43 44 44 44 44 43 43 42 42 41 41 41 42 44 45 46
34 31 30 34 31 31 33 31 28 27 24 17 15 15 21 21 20 21 22 27 31 36 39 42 41 41 41 41 42 43 42 42 40 39 38 37 36 36 36 36 36 37 38 38
32 32 27 29 35 37 35 31 28 22 23 20 20 17 21 22 24 25 26 33 36 38 41 41 40 39 40 40 41 42 41 39 38 37 36 35 35 34 35 34 34 35 36 36
33 29 25 27 30 35 32 33 29 27 27 23 20 19 23 25 26 29 32 36 38 40 41 40 39 39 39 39 40 40 39 38 36 36 35 34 34 34 34 34 35 35 35 36
35 29 24 19 20 28 29 31 29 27 25 24 24 22 23 25 25 25 31 37 39 40 40 39 38 38 37 37 38 39 38 37 36 36 35 35 35 35 35 35 35 35 35 35
32 29 26 27 27 30 29 30 30 28 27 23 23 24 24 25 26 25 30 38 38 39 40 39 38 37 36 36 36 38 37 36 36 36 35 35 35 35 35 35 35 35 35 35
29 26 25 25 28 29 28 29 30 30 29 28 27 26 27 27 27 28 32 38 38 39 40 40 39 38 36 35 35 37 37 36 36 36 35 35 35 35 35 35 35 35 35 35
27 27 24 21 25 24 17 22 28 30 31 29 27 27 28 27 27 27 30 37 39 39 40 40 40 39 37 35 35 36 37 36 36 36 35 35 35 35 35 35 35 35 35 35
26 24 24 22 22 11 15 27 28 28 30 32 31 31 30 30 28 27 29 33 38 40 40 41 40 39 38 36 35 35 36 36 36 35 35 36 36 35 35 35 35 35 35 35
28 26 24 21 20 19 23 27 27 26 24 28 30 32 31 29 30 28 29 31 36 39 40 40 41 40 38 36 35 35 36 36 35 35 35 35 35 35 34 34 34 34 34 34
28 27 24 23 18 12 22 30 30 29 24 30 31 30 30 31 27 28 33 33 33 35 36 38 39 38 37 35 34 35 35 35 35 35 35 35 35 35 34 34 33 34 33 32
25 26 24 21 20 21 24 27 31 24 25 34 33 31 30 30 29 33 34 34 35 36 36 36 36 37 36 35 34 34 34 34 35 35 35 36 35 35 34 33 33 32 31 28
23 22 23 23 20 17 24 31 28 30 35 37 36 31 31 35 35 34 33 34 34 35 35 35 35 35 35 35 34 34 34 35 35 36 36 35 35 34 33 33 32 31 28 26
23 23 22 23 21 24 24 32 32 33 36 36 37 36 35 35 35 35 34 33 33 34 34 35 35 34 34 34 34 34 34 35 35 35 35 34 34 34 33 31 30 29 26 24
26 26 24 25 25 26 28 29 32 36 37 36 38 38 37 36 35 35 34 34 33 33 33 34 34 34 34 34 34 34 34 35 35 35 34 34 33 32 32 30 29 28 26 24
28 28 27 27 27 28 29 30 34 37 37 36 37 37 37 38 38 37 37 36 34 33 33 33 34 34 34 34 35 35 35 35 34 34 34 33 33 32 30 30 29 28 26 24
29 28 26 25 29 29 29 34 36 36 37 37 36 36 36 36 36 37 37 37 36 35 33 33 33 33 33 34 34 35 35 35 34 33 33 32 32 31 30 29 29 30 28 28

GFSCGP_sfc_30mbdewp_090.txt.gz
Dewpoint
34 32 30 32 34 34 23 23 23 26 35 35 31 31 32 34 37 35 34 37 39 39 39 41 40 40 60 62 62 62 62 65 66 66 65 65 65 65 65 64 65 64 64 63
30 28 31 30 33 35 32 22 26 25 36 34 31 31 33 34 34 34 34 33 36 41 39 41 41 36 50 60 62 63 62 63 65 65 65 65 65 66 66 66 65 64 64 64
28 28 30 32 34 32 31 23 24 28 34 35 32 31 30 32 35 35 37 37 36 41 40 40 41 41 39 42 57 62 62 63 65 65 64 64 64 64 64 65 65 64 64 63
29 35 31 33 31 33 29 25 29 28 28 25 33 19 26 30 32 34 35 37 39 41 41 40 39 39 38 37 38 47 60 63 64 65 64 63 63 62 63 63 65 65 63 62
29 33 32 32 31 34 33 32 28 29 27 28 30 27 22 29 30 32 33 35 36 39 39 40 39 39 37 40 40 42 47 58 62 64 64 64 63 64 64 63 63 63 64 64
30 36 35 32 36 36 36 32 31 30 29 25 22 25 17 23 26 29 32 33 35 36 37 38 39 38 39 42 41 42 43 45 47 56 61 63 63 63 62 62 62 63 63 63
28 31 35 34 32 34 32 30 25 23 23 17 22 26 20 24 28 27 28 30 34 35 36 36 37 38 40 41 41 42 42 43 42 42 43 46 52 55 56 56 56 56 56 58
22 21 31 34 31 30 31 31 19 12 13 13 27 22 19 25 26 28 29 28 30 35 36 36 36 37 40 41 42 41 42 43 43 43 44 45 43 42 43 45 45 47 50 52
26 26 33 33 34 33 33 29 27 23 23 17 19 23 24 25 27 28 29 28 29 30 33 35 37 38 39 41 42 42 43 44 45 45 45 46 46 47 47 48 50 50 51 51
32 26 30 35 35 35 32 36 26 28 19 13 19 18 8 21 23 23 23 26 29 30 30 31 35 38 40 42 43 44 43 44 45 45 45 44 44 44 45 45 46 47 48 48
32 31 29 34 31 30 31 31 29 27 26 15 15 15 21 21 23 23 23 25 28 31 34 33 37 40 42 43 43 44 43 43 43 42 42 42 41 41 41 41 41 42 42 43
29 32 26 30 34 33 35 31 28 25 24 22 22 16 21 23 26 27 28 32 34 35 38 39 39 41 41 42 43 42 42 41 41 40 40 39 39 39 39 38 38 39 39 39
33 31 26 27 32 35 32 33 29 28 29 24 18 16 23 24 26 27 29 33 37 38 40 40 40 40 41 41 42 42 41 40 39 38 38 38 37 37 37 37 37 37 38 38
37 30 26 21 22 29 30 32 30 29 26 24 23 21 23 23 26 26 27 34 37 39 40 40 40 40 40 40 41 40 40 39 38 38 37 37 37 37 36 36 36 37 37 37
34 30 27 28 28 29 30 30 30 28 28 25 23 24 23 23 25 26 29 35 37 39 40 40 40 39 39 39 39 40 39 38 38 37 37 37 37 37 36 36 36 36 36 36
35 29 27 25 28 29 28 30 31 30 29 27 26 25 26 26 27 27 28 34 36 38 40 40 40 39 39 38 38 39 38 38 38 37 37 37 36 36 37 36 36 36 36 36
30 29 27 24 25 24 20 22 29 30 31 29 27 27 28 27 27 28 29 33 37 37 39 40 40 40 39 38 38 37 38 37 37 37 36 36 36 36 37 37 36 36 36 36
27 25 25 22 22 12 18 26 28 28 29 31 30 30 30 30 31 30 28 29 33 38 39 40 41 41 40 38 37 37 37 37 37 37 36 36 37 37 36 36 36 37 36 36
28 26 24 20 18 19 26 28 27 26 26 30 30 30 31 32 31 31 31 30 30 37 39 40 41 41 41 39 37 36 37 37 37 36 37 37 37 36 36 36 36 36 35 35
28 28 25 24 19 12 24 29 30 29 27 32 32 31 31 31 28 27 33 35 32 35 40 41 42 42 41 39 37 36 36 36 36 36 36 37 37 36 36 36 35 35 35 34
25 27 24 22 20 19 24 29 31 24 28 34 35 32 31 30 31 34 34 35 36 37 37 38 39 40 40 39 37 36 36 36 37 37 37 36 36 36 36 35 34 34 33 32
22 21 22 23 20 17 24 31 28 30 34 37 37 32 32 35 36 35 34 35 35 36 36 37 38 38 38 37 37 37 37 38 37 36 36 36 37 36 35 34 33 33 31 29
23 24 22 23 20 25 25 32 33 33 35 37 37 35 34 36 36 35 35 35 34 35 35 36 36 36 36 36 36 36 37 36 36 36 36 36 36 35 34 33 32 30 28 27
26 26 24 25 26 27 28 29 30 34 37 37 38 38 38 36 36 36 35 35 35 34 34 35 35 35 35 35 35 35 35 35 35 35 35 35 35 34 33 32 31 30 28 26
28 28 27 26 28 29 30 31 32 37 38 37 38 37 38 39 38 38 37 37 36 35 34 34 35 35 35 35 35 34 35 35 35 35 35 35 34 34 32 31 31 30 29 28
29 28 26 25 29 29 29 35 36 36 37 37 37 36 36 37 37 38 37 37 37 36 35 34 35 35 34 34 35 35 35 35 35 34 35 34 33 33 31 31 30 32 32 31

GFSCGP_sfc_30mbdewp_093.txt.gz
Dewpoint
35 31 29 32 35 30 33 26 20 19 28 29 31 28 28 33 34 33 32 32 33 36 39 40 43 55 58 60 60 61 63 64 66 66 66 65 64 65 64 64 64 63 62 62
30 27 29 32 33 35 33 30 22 18 30 30 30 29 28 31 33 33 32 30 32 34 37 39 41 46 58 59 61 61 60 62 65 66 66 65 65 66 66 66 65 65 65 64
26 28 28 30 34 32 32 29 25 19 30 32 30 27 28 29 31 32 32 31 31 31 35 38 40 42 55 59 60 60 59 59 63 65 66 65 65 65 65 66 66 66 65 65
29 30 30 32 33 32 30 28 28 23 28 22 29 22 23 26 28 29 32 31 32 32 36 39 40 42 42 44 55 60 60 62 64 65 64 63 62 59 62 62 64 65 66 65
30 30 28 29 31 33 33 35 26 28 26 24 26 22 18 23 26 28 30 30 31 34 38 39 41 43 43 42 43 47 58 61 63 64 64 63 61 62 62 63 64 64 65 65
32 37 34 33 32 33 36 34 34 29 27 25 23 20 13 23 24 26 28 29 30 33 38 39 41 41 42 44 44 45 47 54 60 63 63 60 59 59 61 62 62 63 64 64
31 33 37 37 32 34 33 32 26 23 24 16 18 22 18 21 24 24 27 29 30 33 36 38 40 40 40 43 44 44 43 45 48 54 58 61 62 61 60 60 60 60 61 62
22 23 33 36 33 31 31 32 25 17 18 16 22 17 18 21 23 26 27 28 29 32 34 35 37 40 40 42 43 42 43 43 43 44 46 46 46 46 49 48 46 48 49 51
23 26 35 33 34 33 31 28 30 24 17 16 18 17 22 24 25 27 27 28 29 31 33 34 36 36 39 42 43 42 42 44 44 44 45 45 45 46 46 48 48 49 50 51
32 25 29 34 33 34 32 34 26 27 17 13 15 10 14 21 23 25 26 27 29 29 30 31 35 36 39 41 42 43 43 43 44 45 44 45 45 45 46 47 48 49 49 50
32 31 29 32 29 29 30 30 33 28 27 14 15 12 21 21 23 23 24 25 26 29 30 31 32 35 38 41 43 43 43 44 44 44 43 43 42 42 43 43 43 44 44 45
33 32 27 30 34 31 33 31 28 24 23 24 24 17 23 25 26 26 27 31 32 33 34 34 33 38 40 42 42 42 43 43 42 41 41 41 41 41 40 40 40 40 41 41
35 31 26 27 32 35 32 33 34 28 30 25 21 17 22 26 26 26 27 31 34 36 38 37 38 39 40 41 42 42 42 41 40 40 40 40 40 39 39 38 38 38 39 39
38 34 29 24 26 29 30 32 29 31 25 21 22 20 21 22 25 25 27 30 34 37 38 38 38 39 40 41 41 41 40 40 40 39 39 38 38 38 38 38 37 37 38 38
37 32 28 27 28 28 31 31 29 28 27 24 23 23 21 22 25 25 27 31 34 37 38 38 38 39 39 40 41 40 40 39 39 39 39 38 38 38 37 37 37 37 37 37
35 30 27 27 28 28 28 29 30 29 28 27 26 26 27 27 27 26 26 30 33 36 39 39 39 39 39 40 40 40 39 39 39 38 38 38 37 37 38 37 37 37 37 37
30 28 27 25 25 25 24 27 29 29 30 29 27 28 28 27 27 28 28 30 32 35 38 39 39 39 39 39 39 39 39 38 38 38 37 37 37 37 38 37 37 37 37 38
27 25 24 20 21 15 21 25 27 28 27 29 29 29 29 29 30 31 30 29 29 34 37 39 40 40 40 40 39 39 38 38 38 37 37 37 37 37 38 38 38 38 38 37
29 26 22 20 16 19 26 28 26 26 27 30 30 30 30 31 31 31 32 32 31 31 37 38 40 41 41 40 39 38 38 38 38 37 37 37 37 37 37 37 38 37 36 36
28 28 25 22 18 11 24 28 30 29 26 33 33 32 31 31 29 30 34 35 33 33 39 39 41 41 42 41 39 38 38 37 38 38 37 38 38 37 37 37 37 36 36 35
24 25 23 21 20 18 24 29 31 26 31 35 36 32 30 30 32 34 34 35 36 37 37 38 41 42 42 41 39 38 38 38 38 38 38 38 38 38 37 37 36 35 34 34
22 20 20 22 20 17 26 32 28 31 34 37 37 32 32 35 36 36 36 36 37 37 37 39 39 40 40 40 39 39 39 40 39 38 38 37 38 37 37 36 35 34 33 32
22 23 23 23 22 25 25 27 30 32 33 37 37 35 34 35 36 36 36 36 36 36 36 37 38 38 38 39 39 39 39 39 38 37 37 37 37 36 35 35 33 32 31 30
26 27 24 25 26 27 28 30 31 31 36 37 38 38 38 37 37 37 37 37 36 35 35 36 36 36 36 37 37 37 38 37 36 36 36 36 36 35 34 34 33 31 30 29
29 28 26 25 27 29 31 33 32 36 38 37 38 38 39 39 38 38 38 37 37 36 35 35 35 35 35 35 35 35 35 35 35 35 35 35 35 35 34 33 32 32 31 30
29 29 27 31 29 29 29 31 36 36 37 38 37 36 37 37 37 37 37 38 37 37 36 35 35 36 36 35 35 35 35 35 35 35 35 35 34 34 33 32 32 35 34 34

GFSCGP_sfc_30mbdewp_096.txt.gz
Dewpoint
35 30 28 31 32 35 32 28 26 25 27 28 31 31 30 29 31 32 34 35 35 35 38 42 47 57 60 61 62 63 64 65 65 66 65 65 63 64 64 64 63 62 62 62
30 25 26 32 33 35 33 33 26 27 28 29 31 31 30 29 33 33 33 33 32 33 37 39 46 53 58 60 61 62 64 65 65 65 66 65 65 64 65 65 65 65 64 64
26 26 29 30 32 32 32 31 30 31 28 32 29 30 30 28 31 33 34 33 32 32 34 38 42 50 57 59 61 62 63 64 66 66 66 65 65 65 64 64 65 65 65 65
28 27 31 29 33 34 28 32 31 29 28 30 34 26 33 33 30 32 32 32 32 31 33 36 42 46 56 59 61 61 61 62 64 65 65 63 62 61 62 62 63 63 64 65
28 30 28 32 33 34 31 36 34 35 29 27 29 26 29 31 26 28 30 32 32 32 34 36 41 43 45 50 56 61 61 62 64 64 63 63 60 59 59 61 61 63 63 65
31 36 36 32 35 34 36 35 34 35 32 26 29 23 17 21 25 27 29 30 32 32 34 37 44 45 44 45 46 47 60 61 62 60 58 56 56 56 59 59 59 61 63 64
32 34 37 36 33 35 33 32 26 24 24 23 27 23 18 19 24 26 27 30 31 31 34 39 43 43 44 45 46 47 48 53 60 61 61 58 54 55 54 56 56 54 54 56
23 24 33 36 34 31 31 31 26 17 19 18 23 26 21 22 24 26 27 29 30 31 35 39 42 42 43 45 46 44 45 45 48 52 55 57 59 57 56 55 55 55 55 56
24 26 34 36 36 34 31 28 34 29 21 20 18 16 18 24 25 26 27 28 29 32 33 38 39 41 43 44 45 44 45 44 45 46 45 45 45 46 47 47 49 50 50 51
31 25 30 33 32 34 32 33 28 30 22 20 17 14 16 22 23 26 27 28 29 30 31 32 36 39 43 43 43 44 45 44 45 45 45 45 46 47 47 48 49 49 49 50
31 30 30 31 28 28 29 29 32 31 26 20 15 16 22 23 24 24 24 26 29 30 30 31 33 37 42 43 43 43 44 45 45 45 44 44 43 43 44 44 44 44 44 44
34 32 25 28 31 31 31 28 31 27 23 28 26 19 26 26 26 27 30 30 31 32 32 32 32 40 42 42 43 43 45 44 44 43 43 42 41 42 41 40 40 41 41 41
35 31 26 27 32 34 32 31 33 32 30 25 26 19 26 26 26 26 28 33 34 35 36 36 37 40 42 42 43 43 43 42 41 41 41 41 41 40 39 39 39 39 39 40
38 33 29 26 27 30 29 29 31 31 25 24 29 20 22 24 25 27 28 32 36 37 38 37 38 40 41 42 42 42 41 41 40 40 40 39 39 38 38 38 38 38 38 38
36 31 32 27 28 30 30 31 31 29 28 24 25 23 24 25 25 25 28 31 36 38 38 38 38 39 40 41 41 41 40 40 40 39 39 38 38 38 38 38 37 38 37 38
36 31 28 26 28 28 29 31 30 30 29 27 27 27 27 27 27 28 28 31 33 37 38 39 39 39 40 41 40 40 40 39 39 39 38 38 38 37 38 37 37 37 37 37
32 33 28 27 26 25 25 28 30 30 30 29 27 29 30 29 29 28 30 30 32 35 39 39 39 39 40 40 40 40 39 39 39 38 38 38 38 38 38 37 37 37 37 38
29 27 25 21 22 18 22 25 27 29 28 28 28 29 29 30 30 30 31 31 30 34 37 40 40 40 40 40 40 40 39 38 38 38 37 38 38 38 38 38 38 38 37 37
29 28 24 22 18 21 26 27 26 27 27 31 30 31 31 31 33 33 34 34 32 31 35 39 40 40 41 40 39 39 38 38 38 38 37 38 38 38 38 37 37 37 37 35
28 29 27 23 19 15 26 28 30 29 27 33 34 33 31 31 30 33 35 35 36 36 39 40 41 42 41 40 39 38 38 38 38 38 38 38 38 38 37 37 37 36 37 35
25 25 24 23 21 21 26 29 31 26 31 36 36 32 31 33 34 35 35 36 37 37 38 39 42 42 42 41 39 38 38 38 39 39 38 38 38 38 37 37 37 35 35 35
22 21 22 22 21 19 30 31 30 32 36 37 37 32 33 36 36 36 36 36 37 37 38 40 40 40 40 40 39 39 38 39 39 39 38 38 38 38 37 36 35 34 34 33
23 24 25 24 24 25 26 26 28 30 30 37 37 35 35 37 36 36 36 36 36 36 36 37 38 38 38 39 39 39 40 39 39 38 38 37 38 37 36 36 34 33 33 32
28 27 24 25 27 27 30 31 32 32 37 38 38 38 38 37 38 38 38 37 36 36 35 36 36 36 36 37 37 39 39 39 38 37 37 37 37 36 35 35 34 33 32 31
30 29 27 26 29 31 31 32 35 36 38 38 38 38 40 39 38 38 38 37 37 36 35 35 35 35 35 36 35 36 37 36 36 36 36 36 36 35 34 34 33 32 32 31
29 29 29 32 30 29 29 31 37 36 38 38 37 37 37 37 37 37 37 37 37 37 37 36 36 35 36 36 35 35 35 35 35 35 35 35 35 34 35 33 33 34 34 33

GFSCGP_sfc_30mbdewp_099.txt.gz
Dewpoint
33 28 25 31 32 32 31 31 31 28 29 37 35 35 35 39 43 43 42 41 37 42 43 45 54 58 62 64 64 64 64 65 65 65 64 64 64 64 64 63 63 62 61 60
28 24 26 33 32 32 32 31 28 28 27 28 31 32 33 30 31 36 38 37 35 37 40 43 53 58 61 62 63 64 64 65 65 65 65 65 64 64 64 64 64 63 63 62
24 24 26 30 32 30 31 31 28 27 29 30 29 29 32 32 30 34 34 34 34 33 35 43 50 57 59 60 62 63 64 65 65 65 65 65 64 64 64 64 64 65 65 65
26 31 27 29 31 32 29 36 32 31 29 26 34 24 30 32 30 32 33 33 33 32 33 43 48 54 58 59 61 63 64 64 65 65 65 63 62 61 63 63 63 63 64 65
25 30 29 31 33 33 32 36 34 33 32 29 33 30 29 32 30 31 31 33 33 32 33 40 45 52 57 59 60 61 62 64 65 65 64 62 61 60 61 61 61 61 62 63
30 34 36 33 35 37 36 36 36 35 34 25 30 30 19 29 31 31 31 32 32 32 32 38 43 49 54 54 54 59 61 62 64 63 62 61 58 59 59 60 60 61 62 62
30 32 37 36 33 35 34 32 26 24 25 22 30 28 22 26 28 30 29 30 32 32 32 37 43 45 45 47 50 53 58 61 61 58 57 56 55 55 55 56 56 56 56 55
22 23 33 36 33 30 31 30 25 19 20 20 28 24 23 23 25 28 28 30 31 32 32 40 44 44 43 43 46 48 52 56 59 59 58 58 57 57 57 57 54 52 52 55
25 26 36 35 35 34 31 28 33 28 25 20 25 22 20 25 25 26 28 29 30 31 32 39 44 43 44 44 44 43 46 49 51 53 51 52 53 53 51 50 50 51 52 52
30 25 30 34 33 34 32 33 27 28 20 17 17 16 15 22 23 26 27 28 29 31 33 40 43 42 44 45 45 44 45 44 47 47 47 47 47 48 48 49 49 49 50 50
31 27 29 31 29 27 28 28 32 32 27 20 16 16 24 24 24 25 26 27 29 30 30 33 39 42 43 44 44 43 44 44 45 45 46 46 46 46 47 46 46 45 45 46
34 30 23 26 36 31 30 27 32 26 25 28 23 19 26 26 27 29 30 30 32 32 31 32 40 42 43 43 43 43 44 44 45 45 44 44 44 44 43 42 42 43 42 42
34 30 23 26 30 32 31 31 33 33 30 28 26 20 26 26 26 28 31 33 34 35 35 36 41 42 42 43 43 44 44 44 43 43 42 42 42 41 40 39 39 40 40 40
38 32 29 21 23 29 28 30 31 31 24 29 29 23 24 25 26 28 30 34 36 37 37 37 40 42 42 43 43 43 42 42 41 41 41 40 40 39 38 38 38 38 39 39
36 30 32 30 30 30 29 29 31 30 27 25 28 24 26 25 25 26 29 35 37 37 38 38 39 40 42 42 42 41 41 40 40 40 39 39 38 38 38 37 37 38 38 38
35 29 30 27 28 30 30 31 31 31 30 29 28 27 29 27 28 28 29 32 36 38 38 38 39 40 41 41 41 40 40 40 40 39 38 38 38 38 37 37 37 37 37 38
32 32 29 26 26 25 24 28 31 30 30 29 27 29 30 29 29 30 30 30 33 37 38 39 39 40 41 41 41 40 39 40 39 39 38 38 37 37 37 37 37 37 37 37
31 28 26 23 22 17 22 25 28 30 28 28 28 29 30 30 31 33 34 31 31 32 39 39 39 40 40 41 40 40 39 39 39 38 38 38 38 38 38 37 37 37 37 37
34 28 26 22 19 21 26 27 27 26 29 31 31 32 32 32 32 33 35 35 33 33 39 39 40 40 40 40 40 40 39 39 38 38 38 38 38 38 38 37 37 37 37 37
28 29 27 24 20 16 26 28 30 29 28 35 34 31 30 31 29 32 35 35 36 37 38 40 41 41 40 40 40 39 38 38 38 38 38 38 38 38 37 37 37 37 37 35
26 25 24 24 22 21 27 29 31 20 29 36 34 31 33 32 33 35 36 37 37 38 39 41 42 41 41 40 39 38 38 38 38 39 38 38 38 38 37 37 37 36 35 35
22 22 22 23 22 20 30 31 29 32 34 37 35 32 36 36 36 36 36 36 36 36 38 40 40 39 40 40 39 38 38 38 39 39 38 38 38 38 37 37 36 35 35 34
22 25 25 24 25 25 26 26 29 29 30 37 36 36 36 36 36 36 35 36 36 36 36 38 38 38 38 39 39 38 39 39 39 38 38 37 37 37 37 36 35 34 34 33
31 29 24 25 30 31 33 34 35 36 37 38 39 38 37 37 38 38 37 37 36 35 35 36 36 36 36 37 37 39 39 39 38 37 37 37 37 36 36 36 35 34 33 32
29 30 28 30 30 31 30 33 36 36 38 38 38 40 39 39 38 38 38 37 36 36 36 36 35 35 35 36 35 38 38 38 37 37 37 37 37 37 35 35 34 34 33 33
29 29 30 31 33 33 32 33 37 37 37 38 38 37 38 37 37 37 37 37 37 37 37 37 37 36 36 36 35 35 35 36 36 35 36 36 36 35 35 34 34 35 35 34

GFSCGP_sfc_30mbdewp_102.txt.gz
Dewpoint
32 25 21 30 32 32 30 32 30 31 36 39 37 34 41 46 45 45 46 46 45 43 49 53 58 61 63 64 65 65 65 66 65 65 64 63 63 63 63 62 60 59 59 59
26 24 28 27 33 31 31 30 30 32 32 36 36 35 39 45 44 45 44 45 45 42 42 48 54 60 62 63 64 64 65 65 65 65 65 64 64 64 64 64 63 62 62 60
24 24 27 28 32 30 30 30 30 31 33 35 34 34 36 39 42 44 46 46 43 37 41 44 53 57 61 62 63 63 64 65 65 65 65 64 64 64 64 64 64 64 64 63
25 30 30 27 31 32 27 34 32 31 32 29 35 26 33 37 35 35 40 44 41 37 36 42 48 56 59 61 63 63 64 64 65 65 64 63 63 62 63 63 64 64 65 64
22 28 30 30 29 33 31 37 33 31 30 30 32 24 28 32 32 31 31 35 35 33 33 37 45 55 59 60 61 62 63 64 64 65 64 63 62 62 62 63 63 63 63 63
30 34 33 34 35 35 37 36 35 34 31 24 30 26 23 29 29 30 31 32 33 33 33 38 46 53 57 58 59 61 62 63 64 64 63 62 60 60 60 61 61 61 62 62
29 31 37 36 32 34 34 32 25 24 24 22 32 30 27 27 30 30 30 31 33 33 33 36 42 50 54 56 57 60 61 61 62 63 62 60 59 59 59 60 59 59 59 58
24 23 33 35 32 29 31 30 25 19 19 23 30 25 23 25 26 32 32 31 32 33 33 36 42 47 53 54 54 58 59 60 60 60 59 57 57 57 57 57 57 56 56 56
24 26 35 35 35 34 30 28 33 26 23 23 27 25 23 25 26 26 30 30 31 32 32 37 43 46 49 50 51 56 58 58 59 57 56 56 55 55 55 54 54 53 53 54
30 24 31 34 34 32 32 34 27 27 19 17 22 16 16 22 25 27 27 28 29 31 31 38 43 44 45 45 46 47 53 55 56 55 54 54 54 53 50 50 50 50 50 51
33 25 28 30 28 27 30 29 31 30 26 18 16 16 24 24 24 26 27 28 29 31 32 36 43 44 44 44 44 44 46 49 51 50 49 50 49 49 49 49 49 48 48 48
33 27 23 25 33 32 28 27 32 23 25 26 19 20 25 26 28 29 30 31 33 31 31 36 42 43 44 44 43 43 44 44 46 45 46 46 46 46 46 45 45 44 43 43
33 28 22 23 29 31 30 31 32 31 28 27 21 21 26 26 27 30 32 33 34 35 35 39 41 42 43 43 43 43 44 44 44 44 44 43 43 42 41 41 41 41 41 41
38 32 26 19 21 28 28 30 32 28 24 28 27 26 24 24 26 27 32 35 36 36 36 40 41 42 42 43 43 44 44 43 43 42 42 41 41 40 39 39 39 39 39 39
35 29 31 30 30 30 28 28 30 29 31 29 29 28 26 25 25 26 29 35 36 37 37 39 41 42 42 43 43 43 42 42 41 41 40 40 39 38 38 38 38 38 38 38
34 29 29 27 27 30 30 30 30 32 30 31 32 29 30 29 29 29 30 34 36 37 38 38 40 41 42 42 42 41 41 40 40 40 39 38 38 38 37 37 37 37 37 38
32 30 28 23 25 25 24 29 30 31 30 29 28 28 30 29 29 30 30 30 33 37 38 38 39 40 41 42 41 41 40 40 39 39 38 38 38 37 37 37 37 37 37 37
31 28 26 23 20 16 22 25 30 29 28 29 29 29 30 31 33 34 34 33 31 32 38 39 39 40 41 41 41 40 40 39 39 38 38 38 37 37 37 37 37 36 36 36
33 30 26 21 19 20 26 29 27 27 29 32 32 32 31 31 33 33 35 35 36 36 39 39 40 40 41 41 40 40 39 39 39 38 38 38 38 37 37 36 36 36 37 37
30 30 26 24 20 16 26 28 29 29 28 35 33 30 31 32 28 32 35 36 37 37 39 41 41 40 40 41 40 39 39 39 38 38 38 38 38 38 37 37 36 36 37 37
25 25 23 23 22 21 27 29 31 21 27 36 32 31 33 31 33 35 36 37 37 38 40 41 41 41 40 40 40 39 39 38 39 39 38 38 38 38 37 36 36 36 36 35
22 22 22 23 23 20 30 31 29 31 34 37 34 33 35 36 36 36 36 36 36 36 38 39 39 39 40 40 40 39 39 39 39 39 38 38 38 38 37 36 36 36 36 35
22 25 25 24 24 26 30 29 32 31 30 37 35 35 36 36 36 36 36 35 35 35 36 37 37 38 38 39 39 38 38 39 39 39 38 37 37 37 37 36 36 35 35 34
30 29 24 26 31 31 32 34 36 37 37 38 39 38 37 36 37 37 37 36 36 35 35 36 36 36 36 37 37 39 39 39 38 38 37 37 37 36 36 36 35 35 34 33
29 29 28 29 30 30 31 33 36 37 38 38 39 40 39 39 38 38 37 36 36 36 36 36 35 35 35 35 35 38 39 39 38 37 37 37 37 37 36 36 35 35 34 34
29 29 29 29 32 33 34 36 36 37 37 38 37 38 38 39 38 37 37 37 36 35 35 36 36 36 35 35 35 35 35 36 36 36 36 37 37 37 36 35 35 36 36 35

GFSCGP_sfc_30mbdewp_105.txt.gz
Dewpoint
31 25 22 23 32 31 30 30 30 32 38 38 37 35 37 41 41 46 45 44 44 45 45 46 60 63 63 64 65 66 66 66 65 65 64 63 62 61 60 58 57 56 56 57
25 22 27 28 33 32 30 29 30 32 34 36 37 35 38 40 40 46 45 44 44 45 44 43 52 61 62 63 63 65 65 65 65 65 64 64 63 63 61 61 61 59 59 58
24 22 27 26 31 30 30 29 31 31 37 37 36 35 38 42 43 44 46 45 45 46 44 41 48 58 61 62 63 64 64 65 65 65 64 64 64 64 63 63 62 62 61 61
25 28 30 27 30 31 27 32 32 32 32 29 36 27 35 38 40 42 43 44 44 45 44 41 43 54 59 60 63 63 64 65 65 65 64 63 62 61 63 63 64 64 64 63
19 28 30 29 30 33 31 35 31 33 32 32 32 26 29 37 37 38 39 43 44 45 44 41 39 52 57 60 61 63 63 64 64 64 64 63 62 62 62 63 63 63 64 64
29 33 33 34 34 36 35 35 32 34 32 24 29 27 25 32 32 34 36 41 44 45 44 38 38 48 56 59 60 62 62 63 63 64 63 63 62 61 61 62 62 62 62 63
29 30 34 36 32 34 32 29 24 22 22 20 31 26 22 30 30 30 32 33 41 41 35 33 41 48 54 57 59 60 61 61 63 63 63 62 61 60 60 61 60 60 60 61
24 24 33 35 32 29 31 30 21 17 17 23 32 24 23 27 27 30 31 31 32 33 34 34 41 48 52 56 57 59 60 60 61 61 61 60 60 59 60 59 59 59 59 58
24 25 34 34 35 34 30 28 33 23 24 23 26 27 23 24 26 27 31 31 31 32 33 33 40 46 51 54 55 58 59 59 60 60 59 58 58 58 57 57 57 56 55 55
29 22 30 33 33 32 33 34 27 25 16 19 23 18 17 23 24 27 28 31 31 31 33 33 40 44 49 53 53 55 57 58 58 58 57 56 56 55 54 54 54 53 52 53
32 24 24 28 28 27 29 28 31 29 24 17 18 17 23 25 25 26 28 29 29 30 31 33 38 43 46 48 50 51 54 55 56 55 53 53 53 51 50 51 50 50 49 50
33 25 21 25 30 34 29 27 31 22 24 23 18 22 25 27 29 29 31 32 33 32 32 35 39 42 44 45 45 45 47 51 52 50 50 50 49 48 48 47 46 46 45 45
33 27 20 21 28 30 29 30 31 29 26 25 18 22 25 27 28 32 32 33 35 35 38 40 42 43 43 44 43 43 44 45 46 46 46 45 45 44 43 43 42 42 42 42
37 32 25 19 21 26 26 30 32 26 23 26 25 24 24 24 26 28 33 35 36 36 37 40 41 42 43 43 43 43 44 44 44 44 43 43 42 41 40 40 40 40 40 39
35 29 32 30 29 29 28 28 30 28 30 24 28 27 26 26 26 27 29 35 36 37 37 39 41 42 42 43 43 43 43 43 43 42 42 41 40 39 39 38 38 38 38 38
34 28 30 26 27 30 29 29 30 31 31 32 30 28 30 30 30 30 31 33 35 37 37 39 41 41 42 42 42 42 42 42 42 41 40 39 38 38 38 37 37 37 37 38
31 28 26 21 23 26 23 25 30 30 30 32 27 29 30 29 30 31 32 31 31 33 38 38 39 41 42 42 42 41 41 41 40 40 39 38 38 37 37 37 37 37 36 37
30 28 26 22 19 16 22 26 30 29 29 29 29 29 31 31 33 34 35 34 33 33 38 39 39 39 41 42 42 41 40 40 39 39 38 38 38 37 37 37 36 36 36 36
32 30 25 20 19 20 27 29 31 29 30 33 32 32 31 31 33 33 35 36 36 36 37 39 40 40 41 41 41 40 40 39 39 38 38 38 38 37 37 36 36 36 36 36
32 31 26 23 19 17 25 27 29 29 28 35 32 30 31 31 27 31 35 37 36 37 39 40 41 41 41 41 41 40 39 39 39 38 38 38 38 37 37 36 36 36 36 36
25 25 23 23 22 21 25 30 30 21 25 36 32 31 32 30 32 35 36 36 36 37 39 40 41 41 40 41 40 40 39 39 39 39 38 38 38 37 37 36 36 36 36 35
22 22 22 23 23 20 27 31 28 30 34 37 34 33 35 35 36 36 35 35 36 36 37 38 39 39 40 41 40 39 39 39 39 39 38 38 38 38 37 36 36 35 36 36
23 24 24 23 23 29 33 33 35 36 31 37 36 35 36 36 36 36 35 35 35 35 36 37 37 38 38 39 40 39 39 39 39 38 38 37 37 37 36 36 36 36 36 35
29 30 24 28 30 31 32 34 36 37 37 38 39 38 37 36 36 37 37 36 35 35 35 35 35 35 35 36 39 39 39 39 38 38 37 37 37 36 36 36 36 36 35 34
28 29 28 29 30 30 32 35 35 37 38 38 39 40 39 39 38 38 37 36 36 37 36 36 35 35 35 35 35 37 38 38 38 37 37 36 36 37 36 36 36 35 35 35
28 28 28 28 31 32 33 36 36 35 36 36 37 38 39 40 39 37 37 36 35 34 34 35 36 35 35 35 34 35 35 36 36 36 36 36 37 37 37 36 35 36 37 36

GFSCGP_sfc_30mbdewp_108.txt.gz
Dewpoint
30 26 21 24 26 30 30 27 27 30 34 33 35 34 35 40 39 40 45 45 46 47 47 51 61 63 62 63 66 66 66 66 65 65 64 63 62 61 60 59 58 57 58 59
26 23 23 28 28 31 30 27 29 32 35 34 36 35 39 38 39 41 44 45 45 46 46 46 58 62 61 61 64 65 66 66 65 65 64 63 63 62 61 60 58 57 57 58
25 22 26 28 27 28 29 28 30 30 36 38 36 35 37 40 42 43 43 45 45 45 45 45 53 60 62 61 63 64 64 65 65 65 64 64 63 63 62 61 60 60 59 58
26 26 29 29 28 31 26 33 34 33 31 29 35 26 36 39 39 41 43 44 44 45 45 42 44 55 60 61 63 62 64 65 65 65 64 62 62 61 62 62 62 62 62 61
19 27 28 29 31 33 30 35 33 34 31 32 31 25 32 38 37 38 40 42 44 45 45 43 42 45 57 61 62 63 63 64 64 64 63 60 61 63 63 63 63 63 63 63
26 32 31 32 35 34 34 34 32 33 30 24 30 24 27 34 35 36 38 43 44 44 44 43 38 39 53 59 60 61 62 63 63 64 63 63 62 61 62 62 62 63 63 63
29 30 33 35 32 33 31 28 22 20 20 22 30 24 23 34 35 36 34 40 43 43 44 40 37 42 51 56 59 60 61 61 62 63 63 62 62 61 61 61 61 61 61 61
23 22 32 35 32 30 31 28 20 15 18 23 30 23 24 26 32 35 36 37 43 43 43 38 36 40 49 54 57 59 60 60 61 61 61 61 61 60 60 60 61 61 60 60
24 25 35 33 34 34 30 27 32 23 23 21 26 24 22 25 25 27 30 34 36 37 34 34 34 40 49 53 56 57 59 60 60 60 60 60 59 59 59 59 59 58 57 57
30 21 28 32 33 34 33 35 26 24 16 18 23 18 21 24 25 27 29 31 32 32 33 33 35 40 48 53 55 56 58 58 58 58 58 57 57 57 56 56 56 54 53 54
31 23 22 27 29 28 29 29 30 27 24 19 17 20 23 26 26 28 30 30 30 30 31 33 35 42 47 50 53 55 56 56 56 56 55 55 54 53 52 52 51 50 50 51
32 25 23 25 29 34 29 27 30 22 23 20 20 22 25 27 31 31 32 34 33 33 36 37 35 41 44 47 50 52 53 54 54 53 53 52 51 50 49 48 47 47 47 46
35 26 18 18 23 28 29 31 32 27 26 24 19 22 26 27 29 33 33 34 35 36 38 40 41 42 43 45 46 47 48 51 50 50 49 48 48 47 46 45 44 43 43 43
36 31 25 22 25 27 25 29 31 26 23 25 23 23 25 25 26 27 33 36 36 36 38 40 41 42 43 43 43 43 44 46 46 47 46 46 45 44 43 42 41 41 41 40
34 28 30 30 29 30 29 28 30 29 28 24 26 25 26 28 28 29 32 35 36 37 37 40 41 41 42 43 43 43 43 44 44 43 43 42 41 40 39 39 39 39 39 38
34 27 29 25 26 30 28 29 31 30 31 30 29 28 30 30 30 30 31 31 32 36 38 38 41 41 42 42 43 43 43 42 42 42 41 40 39 38 38 38 38 38 37 37
31 27 25 20 22 27 22 23 29 30 30 30 26 29 30 30 31 32 33 33 31 34 38 38 38 41 42 42 42 42 42 41 41 40 39 38 38 37 37 37 37 37 37 37
30 28 26 21 19 16 22 28 28 30 29 29 29 30 31 31 33 34 35 34 34 35 36 38 39 39 41 42 42 41 41 40 40 39 38 38 38 37 37 37 36 36 36 36
31 29 24 20 18 20 27 28 32 30 31 34 32 31 30 32 33 33 36 36 36 36 37 39 41 41 40 42 41 40 40 39 39 38 38 38 38 37 37 36 36 36 35 35
32 30 25 23 18 17 25 27 28 31 28 35 32 30 31 31 26 31 36 36 36 37 39 40 40 41 41 41 41 40 39 39 39 38 38 38 38 37 36 36 35 35 35 36
24 25 22 23 21 21 24 30 31 21 23 36 32 32 32 31 32 35 36 36 36 37 38 39 40 40 41 41 40 40 39 39 39 39 38 38 38 37 37 36 36 36 35 35
22 22 22 23 22 19 30 30 27 29 33 37 35 33 35 35 36 35 35 35 35 36 36 38 38 38 39 41 40 39 39 39 39 39 38 38 37 37 36 36 36 35 35 35
22 23 23 22 23 30 33 34 35 36 34 37 37 36 36 36 36 36 36 36 35 35 35 36 37 36 38 39 40 39 38 39 39 38 38 38 37 37 36 36 35 35 35 36
29 29 24 28 30 30 33 34 36 37 37 38 39 38 37 36 36 37 36 35 36 36 35 35 35 35 35 38 39 39 39 39 38 38 37 37 36 36 36 36 36 36 36 35
28 29 27 27 30 30 32 34 35 36 36 37 38 40 39 38 38 37 36 36 36 36 36 36 35 35 35 35 35 35 37 38 38 37 37 37 36 37 36 36 36 36 36 35
28 27 28 26 30 30 32 36 34 34 35 36 37 37 39 40 40 38 36 36 34 32 32 34 35 35 34 34 34 34 35 35 36 36 36 36 36 36 36 36 36 37 37 37

GFSCGP_sfc_30mbdewp_111.txt.gz
Dewpoint
30 27 22 21 25 27 27 26 25 26 28 31 32 28 34 41 40 38 38 40 42 47 48 55 60 61 62 64 65 65 65 65 65 64 63 62 61 62 62 61 60 61 62 63
25 23 24 25 27 27 27 27 26 28 30 31 30 29 35 39 37 38 40 41 41 45 47 53 61 61 62 63 65 65 65 65 65 65 64 63 63 62 62 61 60 59 60 60
24 22 26 27 28 27 27 27 27 28 33 34 33 32 37 38 39 41 42 44 44 46 46 49 59 60 61 62 63 65 65 65 65 65 64 64 63 63 62 61 61 59 59 59
25 26 27 29 28 29 25 33 32 31 31 28 35 26 35 37 37 40 41 42 45 46 45 45 55 60 60 59 63 64 64 63 65 65 64 63 62 61 62 62 62 61 60 60
20 22 27 25 31 33 29 32 33 34 32 31 31 27 32 37 35 38 41 43 45 45 44 43 49 56 59 62 62 63 63 63 62 64 64 62 61 62 62 62 62 61 61 61
27 28 30 30 33 33 34 34 33 33 30 24 30 25 28 34 35 37 39 43 46 44 45 43 40 43 55 60 62 62 61 61 62 62 63 61 59 60 62 63 62 62 63 63
28 30 33 34 31 33 32 26 19 19 20 21 31 26 25 32 36 37 39 43 43 44 44 39 41 45 53 59 61 61 62 62 62 61 59 62 61 62 62 62 62 62 62 62
23 20 32 35 33 29 30 26 22 14 19 23 28 24 23 25 27 35 38 41 43 44 42 38 37 43 52 57 59 59 61 61 62 62 62 62 62 61 62 62 62 62 62 62
24 22 32 34 34 32 30 26 32 23 22 21 24 21 23 25 26 28 31 41 42 42 36 35 35 42 48 55 58 59 60 60 61 62 62 61 61 61 60 61 61 60 60 60
29 20 24 30 34 34 31 34 26 24 17 18 19 21 23 25 27 29 30 35 42 41 39 38 34 40 49 53 56 58 59 59 59 59 59 59 59 59 59 58 57 56 57 58
31 22 21 27 29 29 29 29 29 26 22 19 17 23 24 27 29 31 32 31 40 41 35 37 34 41 47 52 55 56 57 57 56 57 57 57 56 56 56 55 53 52 53 53
32 24 23 25 29 35 29 29 30 22 21 20 22 24 26 28 32 33 34 34 35 40 39 38 38 39 44 49 53 54 55 55 55 54 54 53 53 52 52 51 50 50 50 49
34 26 18 16 21 27 27 29 31 26 26 23 20 23 26 27 28 33 35 36 36 38 40 41 41 40 43 46 49 50 52 52 52 52 52 50 50 49 48 47 46 46 46 45
35 31 25 23 26 29 27 28 30 24 22 23 23 23 26 28 28 31 34 36 37 37 40 41 41 42 43 44 45 46 48 49 49 49 49 48 47 46 45 43 43 43 42 42
32 26 30 29 30 30 29 30 30 28 28 22 25 25 28 29 30 30 31 32 34 37 38 40 41 42 43 43 43 43 45 46 47 47 46 45 44 42 41 41 40 40 40 39
32 26 27 24 29 27 26 29 30 30 29 29 28 27 30 30 32 32 33 31 33 36 38 39 40 41 42 42 43 43 43 43 44 44 43 41 40 40 39 39 38 38 38 38
30 26 23 20 23 26 20 24 29 29 31 29 27 29 30 31 32 33 33 34 34 35 35 37 39 39 42 42 42 42 42 42 42 41 40 39 39 38 38 38 38 37 37 37
29 27 25 20 18 15 21 30 28 30 31 29 30 31 31 32 34 35 35 35 35 35 36 37 39 40 40 42 42 41 41 41 41 40 39 38 38 37 37 37 37 36 36 37
31 27 23 19 18 20 26 28 31 29 31 34 31 29 31 32 32 33 36 36 36 36 38 39 40 40 41 41 41 40 40 40 39 39 38 38 38 37 37 36 36 36 36 36
31 27 24 23 17 17 25 27 29 31 29 34 30 30 31 30 26 30 36 36 36 37 38 39 40 41 41 41 41 40 39 39 39 38 38 38 37 37 36 36 36 36 36 36
24 24 21 23 21 21 24 28 31 19 25 37 32 33 33 31 32 35 35 35 36 36 37 38 39 39 40 41 40 40 39 39 39 39 38 38 38 37 37 36 36 36 36 36
22 21 21 22 21 19 30 30 25 27 32 37 35 34 35 35 36 35 35 35 35 35 36 37 37 38 39 40 40 39 39 39 39 39 38 38 38 37 36 36 36 36 35 35
22 22 22 22 22 28 34 34 35 36 35 37 37 36 36 36 35 36 36 36 35 35 35 35 36 37 38 39 40 39 38 39 39 38 38 38 37 37 36 36 36 35 35 35
28 28 24 27 30 31 32 34 36 37 37 38 39 38 37 36 36 37 36 35 36 36 35 35 35 35 35 36 37 38 39 39 38 38 37 37 37 37 36 36 36 35 35 35
27 28 26 27 30 31 32 34 35 36 36 36 37 39 39 37 37 37 36 36 36 35 35 35 35 34 34 34 34 35 35 38 38 38 38 37 37 37 36 36 36 36 36 36
27 27 26 25 29 29 30 35 34 34 34 36 37 37 38 40 40 38 36 36 33 32 32 34 34 34 34 33 33 33 34 34 35 36 37 37 37 37 37 36 36 37 37 37

GFSCGP_sfc_30mbdewp_114.txt.gz
Dewpoint
30 26 21 19 21 25 24 23 22 20 22 24 31 28 28 38 40 39 41 40 41 40 41 44 51 54 60 60 63 64 65 65 65 64 63 63 62 62 62 63 62 61 61 61
27 22 19 23 23 22 24 22 22 22 24 25 28 29 27 33 37 39 40 39 40 40 41 43 49 59 57 62 62 64 64 65 64 64 64 63 63 62 61 61 62 62 62 63
23 19 22 23 24 24 24 25 23 25 30 28 29 27 28 37 38 38 39 39 42 41 41 44 47 59 59 60 61 63 64 65 65 64 64 64 63 62 61 62 61 61 61 62
23 24 24 23 25 28 25 31 31 30 28 25 28 22 31 34 37 38 39 41 43 42 43 45 47 58 59 61 63 63 65 65 65 65 64 63 62 61 60 62 62 61 59 60
22 21 23 24 25 31 29 33 31 32 30 30 29 28 31 37 36 37 38 41 41 44 45 45 47 58 60 61 60 63 64 64 65 65 64 63 62 62 63 63 62 62 61 61
27 28 28 28 30 33 34 32 32 32 30 25 29 27 29 34 34 36 37 40 42 46 46 46 52 59 59 60 60 61 62 62 63 63 63 62 62 62 62 63 62 62 62 62
27 30 33 34 30 33 32 30 22 22 23 23 32 23 26 28 35 37 38 40 45 46 47 42 47 57 60 59 59 59 60 60 61 61 61 61 61 61 61 62 61 62 62 62
23 21 30 35 32 29 30 30 24 18 20 24 29 24 27 27 28 30 40 42 45 46 44 40 46 54 59 60 60 60 60 59 60 60 61 61 61 61 61 61 61 61 61 62
24 24 32 34 33 33 30 28 33 26 23 22 27 26 27 28 30 30 40 41 44 46 44 39 44 51 58 59 60 60 60 60 60 60 60 59 60 58 61 61 62 62 62 62
29 23 24 30 35 33 33 34 28 27 19 19 23 26 26 28 30 31 39 40 44 45 38 36 43 48 53 58 59 60 61 60 60 60 60 59 59 58 59 59 61 61 60 61
30 24 25 28 30 29 30 29 29 26 23 20 20 25 28 30 32 32 37 42 44 44 42 38 38 47 53 56 58 58 58 59 59 60 60 59 59 58 59 59 59 59 59 59
32 26 25 27 29 34 30 30 30 25 22 23 23 25 26 30 34 34 35 41 44 44 43 41 40 43 50 54 56 56 57 57 58 58 58 58 58 58 58 56 56 56 56 55
33 27 22 21 26 29 27 29 30 27 28 24 22 25 28 30 32 35 35 38 41 42 42 42 41 42 45 50 52 54 55 55 56 56 55 55 55 55 53 52 52 52 52 51
34 29 27 22 26 29 28 29 29 27 24 23 24 25 28 29 30 31 34 37 37 40 41 42 42 42 43 46 48 51 51 53 53 54 53 52 52 52 52 50 49 49 48 47
32 28 28 29 29 29 30 29 28 28 26 25 25 26 28 30 31 31 32 34 37 38 38 40 41 42 43 43 44 47 49 50 51 51 51 50 49 48 48 47 46 45 44 43
31 28 28 26 25 26 26 28 28 28 27 27 27 28 30 32 32 32 33 33 34 35 36 39 39 42 42 43 43 44 46 47 48 48 47 46 44 44 44 43 42 42 41 40
30 27 25 23 24 25 23 27 29 29 29 29 27 29 31 31 32 33 34 34 34 35 36 37 39 40 42 43 43 43 43 44 44 44 43 43 42 41 41 40 40 40 39 39
29 28 25 20 19 16 25 30 30 31 32 31 31 30 31 32 34 35 36 35 35 35 37 38 39 40 41 42 42 42 43 42 42 41 41 40 40 40 39 39 39 39 39 39
32 28 22 19 19 23 26 29 32 30 31 33 29 30 31 33 33 34 36 36 36 37 38 39 40 41 41 42 42 42 42 42 41 40 40 40 39 39 38 39 39 39 39 39
30 27 24 22 18 17 24 27 31 31 28 34 31 31 31 30 26 32 36 36 36 37 39 39 40 41 41 42 41 41 41 41 41 40 40 39 39 39 38 39 39 39 39 39
23 24 22 22 20 21 25 28 31 20 27 36 33 34 33 31 34 36 36 36 36 36 38 39 40 40 41 42 41 41 40 40 40 40 40 39 39 39 39 39 38 38 39 38
22 20 20 23 21 19 30 30 24 30 35 37 35 35 35 36 36 36 37 36 36 36 36 38 39 39 40 41 41 41 40 41 40 40 39 39 39 38 38 38 38 38 38 38
21 23 22 22 22 30 34 34 36 35 36 38 38 37 36 36 36 36 37 36 36 36 36 36 37 37 37 38 39 39 39 40 40 39 39 39 38 38 37 37 37 36 37 36
28 28 25 27 29 32 33 35 37 37 37 38 39 38 37 36 37 37 36 36 36 36 36 36 36 35 35 35 35 36 38 39 39 38 38 38 38 37 37 37 37 37 36 36
27 28 26 27 30 31 33 34 36 36 37 37 38 40 38 37 38 37 37 36 35 35 35 35 35 34 34 34 34 34 35 38 39 39 39 38 38 38 37 36 37 37 37 37
28 28 25 24 29 28 30 34 35 34 35 36 37 37 38 40 39 39 37 36 33 32 33 34 34 34 33 33 33 34 34 35 35 35 36 37 37 38 38 37 37 38 38 38

GFSCGP_sfc_30mbdewp_117.txt.gz
Dewpoint
28 26 22 23 19 21 20 19 19 16 16 16 16 22 31 27 30 30 29 33 33 39 39 41 45 55 58 59 59 63 64 63 63 63 64 63 59 55 54 55 54 56 54 55
25 24 22 18 16 18 17 16 15 17 18 19 21 21 22 27 32 36 35 36 39 39 39 40 45 53 56 59 57 60 63 64 63 63 63 63 63 62 61 60 56 54 54 56
21 20 20 19 18 19 19 20 20 20 23 28 28 23 21 26 30 33 37 38 38 38 39 39 44 51 56 55 58 58 61 63 64 63 64 63 62 62 62 62 62 61 61 61
22 21 20 19 20 23 24 25 30 28 26 22 24 21 25 25 29 34 34 37 38 39 39 40 44 49 57 56 56 61 60 63 64 64 63 62 61 60 61 61 62 62 61 63
23 23 21 21 24 32 27 31 31 30 28 28 26 25 28 26 31 34 36 39 40 41 40 42 44 49 58 58 58 61 61 63 64 63 63 63 62 61 61 62 61 61 61 62
26 27 27 28 29 33 34 31 31 31 29 23 25 26 28 31 35 35 39 40 42 45 45 45 46 49 58 59 60 61 61 61 63 63 62 63 62 62 61 62 61 61 61 61
27 28 31 34 31 33 32 30 25 22 21 21 32 28 29 34 34 39 39 41 45 45 45 45 46 55 59 59 59 58 60 61 61 63 63 62 62 63 62 62 62 62 61 61
24 24 31 36 32 29 29 31 25 18 21 23 24 25 29 35 34 39 39 43 45 44 42 40 48 57 59 59 59 58 58 58 60 59 60 61 61 61 61 61 62 62 62 62
25 25 30 33 34 33 29 29 32 27 28 24 28 31 35 34 37 38 39 43 44 43 42 43 47 57 58 58 58 58 59 59 59 59 59 61 60 61 60 61 62 60 62 62
28 24 26 29 35 35 34 35 28 29 22 20 25 26 25 33 36 38 39 42 44 44 42 43 50 57 58 58 58 59 59 59 59 60 59 60 60 60 61 61 60 61 61 62
29 28 30 32 31 30 32 29 28 27 22 23 21 24 35 34 35 39 40 43 43 44 44 43 51 57 58 59 59 60 60 60 60 60 60 60 59 59 60 59 60 60 60 61
30 28 27 27 28 31 32 30 28 29 22 26 22 25 33 34 36 39 40 43 44 44 43 44 49 55 56 57 57 58 59 59 60 60 59 59 58 58 58 58 59 60 60 60
32 28 26 26 25 28 30 28 28 27 29 23 21 26 29 31 34 37 40 42 43 43 43 42 44 48 51 54 54 55 57 57 58 59 58 58 58 58 57 57 57 58 58 57
35 27 28 23 26 29 29 26 29 30 26 26 28 28 28 30 30 34 36 38 40 42 43 43 42 43 46 49 52 52 54 56 56 56 56 56 56 55 55 55 55 55 54 54
31 26 26 26 28 27 27 27 26 26 26 26 27 27 29 30 31 32 33 34 35 37 40 43 44 43 43 45 49 50 51 52 54 54 54 53 53 53 51 51 51 51 51 49
30 27 27 24 25 26 27 28 28 28 27 27 27 28 31 32 32 32 32 33 34 35 37 39 41 44 43 43 44 47 49 50 51 51 50 49 49 49 48 47 46 45 44 43
29 27 25 23 24 23 22 29 29 29 30 28 27 29 30 31 33 33 33 33 34 35 37 38 39 41 42 43 43 43 45 47 47 47 46 46 46 46 45 45 44 44 42 42
28 27 25 20 19 16 26 31 32 31 31 29 29 29 30 32 34 35 35 34 35 36 38 39 39 41 41 42 42 43 43 43 44 44 45 45 44 44 43 42 42 41 41 41
30 27 22 19 19 23 26 29 32 33 30 29 29 29 29 32 33 35 36 36 36 38 39 40 40 41 42 42 42 42 42 43 42 41 41 41 41 41 40 41 41 41 41 41
28 27 24 21 18 16 23 28 31 31 28 32 31 31 30 29 28 33 36 36 36 38 39 40 41 41 42 42 42 41 41 41 41 41 40 41 41 41 41 41 41 41 41 40
21 21 21 20 19 22 25 29 31 23 30 34 33 33 32 33 34 36 37 37 37 37 38 40 41 41 42 42 42 41 41 41 41 41 40 40 40 40 40 40 40 40 40 39
20 18 17 20 18 19 30 30 26 33 37 35 35 35 35 36 36 37 37 37 37 36 36 39 39 39 39 41 41 41 40 41 41 40 40 40 40 39 40 40 39 40 39 39
19 22 21 22 23 31 34 34 35 34 35 37 36 37 36 36 36 37 36 36 36 36 36 36 37 37 36 37 38 38 39 40 40 40 40 40 39 39 39 38 38 38 38 38
26 27 24 26 29 32 34 36 37 37 37 38 39 38 38 36 37 37 36 36 36 36 36 36 36 35 35 35 35 35 37 40 39 38 38 38 38 38 37 38 38 37 37 37
25 28 24 26 29 31 33 34 36 37 37 37 38 40 38 37 37 37 37 36 35 35 35 35 34 34 34 34 34 35 35 36 38 39 39 39 39 39 38 37 38 37 38 38
27 25 23 19 26 27 28 33 36 36 35 36 37 38 39 39 38 39 38 36 34 33 34 34 34 34 33 33 33 33 34 34 35 35 35 36 37 38 38 38 38 39 40 40